Wetterdaten: Samstag, 01.12.2018
Datum Zeit Temp. A. Pool Temp. Temp. 5cm Feuchte A. Luftdruck Regen Wind Richtung Richtung Sonnenschein ET UV Solar Taupunkt Windchill Windben Empfang
01.12.2018 00:00 -1,1 C 3,3 C 0,0 C 96 % 1018,5 hPa 0,0 l/m 3,4 km/h (1 Bft) O-NO 65 0 min 0,000 mm 0,0 UV-I 0 W/m -1,7 C -1,1 C 4,8 km/h (1 Bft) 95,74 %
01.12.2018 00:02 -1,2 C 3,3 C 0,0 C 96 % 1018,5 hPa 0,0 l/m 4,0 km/h (1 Bft) O-NO 67 0 min 0,000 mm 0,0 UV-I 0 W/m -1,8 C -1,2 C 6,4 km/h (2 Bft) 97,30 %
01.12.2018 00:04 -1,2 C 3,3 C 0,0 C 96 % 1018,5 hPa 0,2 l/m 4,3 km/h (1 Bft) O-NO 72 0 min 0,000 mm 0,0 UV-I 0 W/m -1,8 C -1,2 C 4,8 km/h (1 Bft) 94,34 %
01.12.2018 00:06 -1,2 C 3,3 C 0,0 C 96 % 1018,4 hPa 0,0 l/m 4,2 km/h (1 Bft) O-NO 72 0 min 0,000 mm 0,0 UV-I 0 W/m -1,8 C -1,2 C 6,4 km/h (2 Bft) 97,62 %
01.12.2018 00:08 -1,2 C 3,3 C 0,0 C 96 % 1018,4 hPa 0,0 l/m 3,9 km/h (1 Bft) O-NO 72 0 min 0,000 mm 0,0 UV-I 0 W/m -1,8 C -1,2 C 4,8 km/h (1 Bft) 98,00 %
01.12.2018 00:10 -1,2 C 3,3 C 0,0 C 96 % 1018,4 hPa 0,0 l/m 3,5 km/h (1 Bft) O-NO 72 0 min 0,000 mm 0,0 UV-I 0 W/m -1,8 C -1,2 C 4,8 km/h (1 Bft) 97,37 %
01.12.2018 00:12 -1,1 C 3,3 C 0,0 C 96 % 1018,4 hPa 0,0 l/m 2,6 km/h (1 Bft) O-NO 72 0 min 0,000 mm 0,0 UV-I 0 W/m -1,7 C -1,1 C 4,8 km/h (1 Bft) 98,04 %
01.12.2018 00:14 -1,1 C 3,3 C 0,0 C 96 % 1018,4 hPa 0,0 l/m 3,8 km/h (1 Bft) NO 48 0 min 0,000 mm 0,0 UV-I 0 W/m -1,7 C -1,1 C 6,4 km/h (2 Bft) 98,00 %
01.12.2018 00:16 -1,1 C 3,3 C 0,0 C 96 % 1018,4 hPa 0,0 l/m 3,6 km/h (1 Bft) NO 55 0 min 0,000 mm 0,0 UV-I 0 W/m -1,7 C -1,1 C 4,8 km/h (1 Bft) 97,87 %
01.12.2018 00:18 -1,1 C 3,3 C 0,0 C 96 % 1018,4 hPa 0,0 l/m 4,6 km/h (1 Bft) NO 55 0 min 0,000 mm 0,0 UV-I 0 W/m -1,7 C -1,1 C 6,4 km/h (2 Bft) 96,00 %
01.12.2018 00:20 -1,0 C 3,3 C 0,0 C 96 % 1018,4 hPa 0,0 l/m 3,6 km/h (1 Bft) NO 55 0 min 0,000 mm 0,0 UV-I 0 W/m -1,6 C -1,0 C 4,8 km/h (1 Bft) 100,00 %
01.12.2018 00:22 -1,0 C 3,3 C -0,6 C 96 % 1018,4 hPa 0,0 l/m 4,4 km/h (1 Bft) NO 50 0 min 0,000 mm 0,0 UV-I 0 W/m -1,6 C -1,0 C 6,4 km/h (2 Bft) 100,00 %
01.12.2018 00:24 -1,1 C 3,3 C -0,6 C 96 % 1018,4 hPa 0,2 l/m 3,3 km/h (1 Bft) NO 47 0 min 0,000 mm 0,0 UV-I 0 W/m -1,7 C -1,1 C 4,8 km/h (1 Bft) 100,00 %
01.12.2018 00:26 -1,1 C 3,3 C 0,0 C 96 % 1018,4 hPa 0,0 l/m 4,1 km/h (1 Bft) NO 51 0 min 0,000 mm 0,0 UV-I 0 W/m -1,7 C -1,1 C 4,8 km/h (1 Bft) 100,00 %
01.12.2018 00:28 -1,1 C 3,3 C 0,0 C 96 % 1018,4 hPa 0,0 l/m 4,9 km/h (1 Bft) NO 53 0 min 0,000 mm 0,0 UV-I 0 W/m -1,7 C -1,1 C 6,4 km/h (2 Bft) 97,87 %
01.12.2018 00:30 -1,1 C 3,3 C 0,0 C 96 % 1018,3 hPa 0,0 l/m 3,5 km/h (1 Bft) O-NO 61 0 min 0,000 mm 0,0 UV-I 0 W/m -1,7 C -1,1 C 4,8 km/h (1 Bft) 100,00 %
01.12.2018 00:32 -1,1 C 3,3 C 0,0 C 96 % 1018,3 hPa 0,0 l/m 3,7 km/h (1 Bft) NO 53 0 min 0,000 mm 0,0 UV-I 0 W/m -1,7 C -1,1 C 6,4 km/h (2 Bft) 98,11 %
01.12.2018 00:34 -1,1 C 3,3 C 0,0 C 96 % 1018,3 hPa 0,0 l/m 3,5 km/h (1 Bft) NO 53 0 min 0,000 mm 0,0 UV-I 0 W/m -1,7 C -1,1 C 4,8 km/h (1 Bft) 100,00 %
01.12.2018 00:36 -1,1 C 3,3 C 0,0 C 96 % 1018,3 hPa 0,2 l/m 4,9 km/h (1 Bft) NO 39 0 min 0,000 mm 0,0 UV-I 0 W/m -1,7 C -1,1 C 6,4 km/h (2 Bft) 95,74 %
01.12.2018 00:38 -1,0 C 3,3 C 0,0 C 96 % 1018,3 hPa 0,0 l/m 5,3 km/h (1 Bft) O-NO 59 0 min 0,000 mm 0,0 UV-I 0 W/m -1,6 C -1,0 C 6,4 km/h (2 Bft) 97,73 %
01.12.2018 00:40 -1,0 C 3,3 C 0,0 C 96 % 1018,4 hPa 0,0 l/m 4,8 km/h (1 Bft) NO 47 0 min 0,000 mm 0,0 UV-I 0 W/m -1,6 C -1,0 C 6,4 km/h (2 Bft) 95,74 %
01.12.2018 00:42 -1,0 C 3,3 C 0,0 C 96 % 1018,3 hPa 0,0 l/m 4,5 km/h (1 Bft) NO 53 0 min 0,000 mm 0,0 UV-I 0 W/m -1,6 C -1,0 C 6,4 km/h (2 Bft) 97,87 %
01.12.2018 00:44 -1,0 C 3,3 C 0,0 C 96 % 1018,4 hPa 0,0 l/m 4,7 km/h (1 Bft) NO 44 0 min 0,000 mm 0,0 UV-I 0 W/m -1,6 C -1,0 C 6,4 km/h (2 Bft) 96,23 %
01.12.2018 00:46 -1,0 C 3,3 C 0,0 C 96 % 1018,3 hPa 0,0 l/m 3,7 km/h (1 Bft) NO 44 0 min 0,000 mm 0,0 UV-I 0 W/m -1,6 C -1,0 C 4,8 km/h (1 Bft) 100,00 %
01.12.2018 00:48 -0,9 C 3,3 C 0,0 C 96 % 1018,3 hPa 0,2 l/m 3,7 km/h (1 Bft) O-NO 69 0 min 0,000 mm 0,0 UV-I 0 W/m -1,5 C -0,9 C 4,8 km/h (1 Bft) 94,23 %
01.12.2018 00:50 -0,9 C 3,3 C 0,0 C 96 % 1018,2 hPa 0,0 l/m 5,3 km/h (1 Bft) O-NO 72 0 min 0,000 mm 0,0 UV-I 0 W/m -1,5 C -0,9 C 6,4 km/h (2 Bft) 97,92 %
01.12.2018 00:52 -1,0 C 3,3 C 0,0 C 96 % 1018,2 hPa 0,0 l/m 3,8 km/h (1 Bft) O-NO 58 0 min 0,000 mm 0,0 UV-I 0 W/m -1,6 C -1,0 C 4,8 km/h (1 Bft) 97,14 %
01.12.2018 00:54 -0,9 C 3,3 C 0,0 C 96 % 1018,3 hPa 0,0 l/m 3,3 km/h (1 Bft) O-NO 58 0 min 0,000 mm 0,0 UV-I 0 W/m -1,5 C -0,9 C 4,8 km/h (1 Bft) 97,87 %
01.12.2018 00:56 -0,9 C 3,3 C 0,0 C 96 % 1018,3 hPa 0,0 l/m 4,3 km/h (1 Bft) NO 47 0 min 0,000 mm 0,0 UV-I 0 W/m -1,5 C -0,9 C 6,4 km/h (2 Bft) 98,00 %
01.12.2018 00:58 -0,9 C 3,3 C 0,0 C 96 % 1018,3 hPa 0,0 l/m 4,5 km/h (1 Bft) NO 50 0 min 0,000 mm 0,0 UV-I 0 W/m -1,5 C -0,9 C 4,8 km/h (1 Bft) 97,87 %
01.12.2018 01:00 -1,0 C 3,3 C 0,0 C 96 % 1018,2 hPa 0,0 l/m 4,3 km/h (1 Bft) O-NO 74 0 min 0,000 mm 0,0 UV-I 0 W/m -1,6 C -1,0 C 6,4 km/h (2 Bft) 100,00 %
01.12.2018 01:02 -1,0 C 3,3 C 0,0 C 96 % 1018,2 hPa 0,0 l/m 4,0 km/h (1 Bft) O 84 0 min 0,000 mm 0,0 UV-I 0 W/m -1,6 C -1,0 C 6,4 km/h (2 Bft) 100,00 %
01.12.2018 01:04 -1,1 C 3,3 C 0,0 C 96 % 1018,2 hPa 0,2 l/m 4,3 km/h (1 Bft) O 85 0 min 0,000 mm 0,0 UV-I 0 W/m -1,7 C -1,1 C 6,4 km/h (2 Bft) 100,00 %
01.12.2018 01:06 -1,1 C 3,3 C 0,0 C 96 % 1018,1 hPa 0,0 l/m 4,6 km/h (1 Bft) O-NO 76 0 min 0,000 mm 0,0 UV-I 0 W/m -1,7 C -1,1 C 6,4 km/h (2 Bft) 100,00 %
01.12.2018 01:08 -1,1 C 3,3 C 0,0 C 96 % 1018,0 hPa 0,0 l/m 4,0 km/h (1 Bft) O 99 0 min 0,000 mm 0,0 UV-I 0 W/m -1,7 C -1,1 C 6,4 km/h (2 Bft) 100,00 %
01.12.2018 01:10 -1,1 C 3,3 C 0,0 C 96 % 1018,1 hPa 0,0 l/m 5,0 km/h (1 Bft) O 98 0 min 0,000 mm 0,0 UV-I 0 W/m -1,7 C -1,1 C 6,4 km/h (2 Bft) 100,00 %
01.12.2018 01:12 -1,1 C 3,3 C 0,0 C 96 % 1018,1 hPa 0,0 l/m 3,8 km/h (1 Bft) O 81 0 min 0,000 mm 0,0 UV-I 0 W/m -1,7 C -1,1 C 6,4 km/h (2 Bft) 100,00 %
01.12.2018 01:14 -1,1 C 3,3 C 0,0 C 96 % 1018,0 hPa 0,0 l/m 4,6 km/h (1 Bft) O 88 0 min 0,000 mm 0,0 UV-I 0 W/m -1,7 C -1,1 C 8,0 km/h (2 Bft) 100,00 %
01.12.2018 01:16 -1,2 C 3,3 C 0,0 C 96 % 1018,2 hPa 0,0 l/m 5,1 km/h (1 Bft) O 83 0 min 0,000 mm 0,0 UV-I 0 W/m -1,8 C -1,2 C 6,4 km/h (2 Bft) 97,87 %
01.12.2018 01:18 -1,2 C 3,3 C 0,0 C 96 % 1018,1 hPa 0,2 l/m 4,0 km/h (1 Bft) O 82 0 min 0,000 mm 0,0 UV-I 0 W/m -1,8 C -1,2 C 6,4 km/h (2 Bft) 100,00 %
01.12.2018 01:20 -1,2 C 3,3 C 0,0 C 96 % 1018,2 hPa 0,0 l/m 4,5 km/h (1 Bft) O 80 0 min 0,000 mm 0,0 UV-I 0 W/m -1,8 C -1,2 C 6,4 km/h (2 Bft) 100,00 %
01.12.2018 01:22 -1,1 C 3,3 C 0,0 C 96 % 1018,1 hPa 0,0 l/m 5,4 km/h (1 Bft) O 90 0 min 0,000 mm 0,0 UV-I 0 W/m -1,7 C -1,1 C 9,7 km/h (2 Bft) 96,00 %
01.12.2018 01:24 -1,1 C 3,3 C 0,0 C 96 % 1018,2 hPa 0,0 l/m 3,8 km/h (1 Bft) O-NO 77 0 min 0,000 mm 0,0 UV-I 0 W/m -1,7 C -1,1 C 4,8 km/h (1 Bft) 100,00 %
01.12.2018 01:26 -1,1 C 3,3 C 0,0 C 96 % 1018,2 hPa 0,0 l/m 4,7 km/h (1 Bft) O 86 0 min 0,000 mm 0,0 UV-I 0 W/m -1,7 C -1,1 C 6,4 km/h (2 Bft) 100,00 %
01.12.2018 01:28 -1,1 C 3,3 C 0,0 C 96 % 1018,2 hPa 0,0 l/m 4,5 km/h (1 Bft) O-NO 77 0 min 0,000 mm 0,0 UV-I 0 W/m -1,7 C -1,1 C 6,4 km/h (2 Bft) 100,00 %
01.12.2018 01:30 -1,1 C 3,3 C 0,0 C 96 % 1018,2 hPa 0,0 l/m 4,2 km/h (1 Bft) O 79 0 min 0,000 mm 0,0 UV-I 0 W/m -1,7 C -1,1 C 4,8 km/h (1 Bft) 100,00 %
01.12.2018 01:32 -1,1 C 3,3 C 0,0 C 96 % 1018,2 hPa 0,0 l/m 4,3 km/h (1 Bft) O-NO 77 0 min 0,000 mm 0,0 UV-I 0 W/m -1,7 C -1,1 C 6,4 km/h (2 Bft) 100,00 %
01.12.2018 01:34 -1,1 C 3,3 C 0,0 C 96 % 1018,2 hPa 0,0 l/m 4,5 km/h (1 Bft) O 84 0 min 0,000 mm 0,0 UV-I 0 W/m -1,7 C -1,1 C 6,4 km/h (2 Bft) 100,00 %
01.12.2018 01:36 -1,1 C 3,3 C 0,0 C 96 % 1018,2 hPa 0,0 l/m 4,8 km/h (1 Bft) O 84 0 min 0,000 mm 0,0 UV-I 0 W/m -1,7 C -1,1 C 6,4 km/h (2 Bft) 100,00 %
01.12.2018 01:38 -1,1 C 3,3 C 0,0 C 96 % 1018,2 hPa 0,2 l/m 4,4 km/h (1 Bft) O 83 0 min 0,000 mm 0,0 UV-I 0 W/m -1,7 C -1,1 C 6,4 km/h (2 Bft) 97,73 %
01.12.2018 01:40 -1,1 C 3,3 C 0,0 C 96 % 1018,2 hPa 0,0 l/m 5,0 km/h (1 Bft) O 84 0 min 0,000 mm 0,0 UV-I 0 W/m -1,7 C -1,1 C 6,4 km/h (2 Bft) 97,37 %
01.12.2018 01:42 -1,1 C 3,3 C 0,0 C 96 % 1018,2 hPa 0,0 l/m 4,6 km/h (1 Bft) O-NO 77 0 min 0,000 mm 0,0 UV-I 0 W/m -1,7 C -1,1 C 6,4 km/h (2 Bft) 96,61 %
01.12.2018 01:44 -1,1 C 3,3 C 0,0 C 96 % 1018,2 hPa 0,0 l/m 4,7 km/h (1 Bft) O-NO 76 0 min 0,000 mm 0,0 UV-I 0 W/m -1,7 C -1,1 C 6,4 km/h (2 Bft) 97,56 %
01.12.2018 01:46 -1,1 C 3,3 C 0,0 C 96 % 1018,3 hPa 0,0 l/m 5,4 km/h (1 Bft) O 99 0 min 0,000 mm 0,0 UV-I 0 W/m -1,7 C -1,1 C 6,4 km/h (2 Bft) 94,34 %
01.12.2018 01:48 -1,1 C 3,3 C 0,0 C 96 % 1018,3 hPa 0,0 l/m 4,5 km/h (1 Bft) O-NO 71 0 min 0,000 mm 0,0 UV-I 0 W/m -1,7 C -1,1 C 6,4 km/h (2 Bft) 97,56 %
01.12.2018 01:50 -1,1 C 3,3 C 0,0 C 96 % 1018,3 hPa 0,0 l/m 3,3 km/h (1 Bft) O-NO 71 0 min 0,000 mm 0,0 UV-I 0 W/m -1,7 C -1,1 C 4,8 km/h (1 Bft) 96,00 %
01.12.2018 01:52 -1,1 C 3,3 C 0,0 C 96 % 1018,3 hPa 0,0 l/m 4,7 km/h (1 Bft) O 84 0 min 0,000 mm 0,0 UV-I 0 W/m -1,7 C -1,1 C 6,4 km/h (2 Bft) 96,00 %
01.12.2018 01:54 -1,1 C 3,3 C 0,0 C 96 % 1018,2 hPa 0,0 l/m 4,5 km/h (1 Bft) O 80 0 min 0,000 mm 0,0 UV-I 0 W/m -1,7 C -1,1 C 6,4 km/h (2 Bft) 94,00 %
01.12.2018 01:56 -1,1 C 3,3 C 0,0 C 96 % 1018,2 hPa 0,2 l/m 4,9 km/h (1 Bft) O 86 0 min 0,000 mm 0,0 UV-I 0 W/m -1,7 C -1,1 C 6,4 km/h (2 Bft) 95,12 %
01.12.2018 01:58 -1,1 C 3,3 C 0,0 C 96 % 1018,2 hPa 0,0 l/m 4,2 km/h (1 Bft) O-NO 73 0 min 0,000 mm 0,0 UV-I 0 W/m -1,7 C -1,1 C 4,8 km/h (1 Bft) 95,24 %
01.12.2018 02:00 -1,1 C 3,3 C 0,0 C 96 % 1018,3 hPa 0,0 l/m 4,2 km/h (1 Bft) O-NO 73 0 min 0,000 mm 0,0 UV-I 0 W/m -1,7 C -1,1 C 6,4 km/h (2 Bft) 96,36 %
01.12.2018 02:02 -1,1 C 3,3 C 0,0 C 96 % 1018,3 hPa 0,0 l/m 4,5 km/h (1 Bft) O-NO 73 0 min 0,000 mm 0,0 UV-I 0 W/m -1,7 C -1,1 C 6,4 km/h (2 Bft) 94,87 %
01.12.2018 02:04 -1,1 C 3,3 C 0,0 C 96 % 1018,3 hPa 0,0 l/m 4,6 km/h (1 Bft) O-NO 78 0 min 0,000 mm 0,0 UV-I 0 W/m -1,7 C -1,1 C 6,4 km/h (2 Bft) 92,00 %
01.12.2018 02:06 -1,1 C 3,3 C 0,0 C 96 % 1018,3 hPa 0,0 l/m 4,2 km/h (1 Bft) O 79 0 min 0,000 mm 0,0 UV-I 0 W/m -1,7 C -1,1 C 4,8 km/h (1 Bft) 95,12 %
01.12.2018 02:08 -1,1 C 3,3 C 0,0 C 96 % 1018,4 hPa 0,0 l/m 4,6 km/h (1 Bft) O 82 0 min 0,000 mm 0,0 UV-I 0 W/m -1,7 C -1,1 C 6,4 km/h (2 Bft) 98,00 %
01.12.2018 02:10 -1,1 C 3,3 C 0,0 C 96 % 1018,4 hPa 0,0 l/m 3,6 km/h (1 Bft) O 81 0 min 0,000 mm 0,0 UV-I 0 W/m -1,7 C -1,1 C 4,8 km/h (1 Bft) 100,00 %
01.12.2018 02:12 -1,1 C 3,3 C 0,0 C 96 % 1018,4 hPa 0,0 l/m 4,0 km/h (1 Bft) O 80 0 min 0,000 mm 0,0 UV-I 0 W/m -1,7 C -1,1 C 4,8 km/h (1 Bft) 98,11 %
01.12.2018 02:14 -1,1 C 3,3 C 0,0 C 96 % 1018,4 hPa 0,0 l/m 3,5 km/h (1 Bft) O 80 0 min 0,000 mm 0,0 UV-I 0 W/m -1,7 C -1,1 C 4,8 km/h (1 Bft) 100,00 %
01.12.2018 02:16 -1,1 C 3,3 C 0,0 C 96 % 1018,4 hPa 0,0 l/m 3,3 km/h (1 Bft) O 80 0 min 0,000 mm 0,0 UV-I 0 W/m -1,7 C -1,1 C 4,8 km/h (1 Bft) 100,00 %
01.12.2018 02:18 -1,1 C 3,3 C 0,0 C 96 % 1018,4 hPa 0,0 l/m 3,2 km/h (1 Bft) O 80 0 min 0,000 mm 0,0 UV-I 0 W/m -1,7 C -1,1 C 4,8 km/h (1 Bft) 97,37 %
01.12.2018 02:20 -1,1 C 3,3 C 0,0 C 96 % 1018,4 hPa 0,2 l/m 3,7 km/h (1 Bft) O 79 0 min 0,000 mm 0,0 UV-I 0 W/m -1,7 C -1,1 C 6,4 km/h (2 Bft) 98,00 %
01.12.2018 02:22 -1,1 C 3,3 C 0,0 C 96 % 1018,4 hPa 0,0 l/m 3,7 km/h (1 Bft) O-NO 78 0 min 0,000 mm 0,0 UV-I 0 W/m -1,7 C -1,1 C 4,8 km/h (1 Bft) 100,00 %
01.12.2018 02:24 -1,1 C 3,3 C 0,0 C 96 % 1018,5 hPa 0,0 l/m 3,7 km/h (1 Bft) O 80 0 min 0,000 mm 0,0 UV-I 0 W/m -1,7 C -1,1 C 4,8 km/h (1 Bft) 100,00 %
01.12.2018 02:26 -1,1 C 3,3 C 0,0 C 96 % 1018,5 hPa 0,0 l/m 3,9 km/h (1 Bft) O-NO 70 0 min 0,000 mm 0,0 UV-I 0 W/m -1,7 C -1,1 C 6,4 km/h (2 Bft) 100,00 %
01.12.2018 02:28 -1,1 C 3,3 C 0,0 C 96 % 1018,4 hPa 0,0 l/m 3,8 km/h (1 Bft) O-NO 70 0 min 0,000 mm 0,0 UV-I 0 W/m -1,7 C -1,1 C 4,8 km/h (1 Bft) 100,00 %
01.12.2018 02:30 -1,1 C 3,3 C 0,0 C 96 % 1018,4 hPa 0,0 l/m 4,1 km/h (1 Bft) O-NO 70 0 min 0,000 mm 0,0 UV-I 0 W/m -1,7 C -1,1 C 4,8 km/h (1 Bft) 100,00 %
01.12.2018 02:32 -1,2 C 3,3 C 0,0 C 96 % 1018,4 hPa 0,0 l/m 3,6 km/h (1 Bft) O-NO 70 0 min 0,000 mm 0,0 UV-I 0 W/m -1,8 C -1,2 C 4,8 km/h (1 Bft) 100,00 %
01.12.2018 02:34 -1,1 C 3,3 C 0,0 C 96 % 1018,4 hPa 0,0 l/m 3,8 km/h (1 Bft) O-NO 70 0 min 0,000 mm 0,0 UV-I 0 W/m -1,7 C -1,1 C 4,8 km/h (1 Bft) 100,00 %
01.12.2018 02:36 -1,1 C 3,3 C 0,0 C 96 % 1018,4 hPa 0,0 l/m 3,1 km/h (1 Bft) O-NO 70 0 min 0,000 mm 0,0 UV-I 0 W/m -1,7 C -1,1 C 4,8 km/h (1 Bft) 100,00 %
01.12.2018 02:38 -1,2 C 3,3 C 0,0 C 96 % 1018,4 hPa 0,0 l/m 3,4 km/h (1 Bft) O-NO 72 0 min 0,000 mm 0,0 UV-I 0 W/m -1,8 C -1,2 C 4,8 km/h (1 Bft) 100,00 %
01.12.2018 02:40 -1,2 C 3,3 C 0,0 C 96 % 1018,4 hPa 0,2 l/m 2,7 km/h (1 Bft) O-NO 72 0 min 0,000 mm 0,0 UV-I 0 W/m -1,8 C -1,2 C 4,8 km/h (1 Bft) 100,00 %
01.12.2018 02:42 -1,2 C 3,3 C 0,0 C 96 % 1018,5 hPa 0,0 l/m 3,0 km/h (1 Bft) O-NO 71 0 min 0,000 mm 0,0 UV-I 0 W/m -1,8 C -1,2 C 3,2 km/h (1 Bft) 100,00 %
01.12.2018 02:44 -1,2 C 3,3 C 0,0 C 96 % 1018,4 hPa 0,0 l/m 2,5 km/h (1 Bft) O-NO 71 0 min 0,000 mm 0,0 UV-I 0 W/m -1,8 C -1,2 C 3,2 km/h (1 Bft) 100,00 %
01.12.2018 02:46 -1,1 C 3,3 C 0,0 C 96 % 1018,5 hPa 0,0 l/m 2,7 km/h (1 Bft) O-NO 71 0 min 0,000 mm 0,0 UV-I 0 W/m -1,7 C -1,1 C 3,2 km/h (1 Bft) 97,73 %
01.12.2018 02:48 -1,1 C 3,3 C 0,0 C 96 % 1018,5 hPa 0,0 l/m 2,2 km/h (1 Bft) O-NO 71 0 min 0,000 mm 0,0 UV-I 0 W/m -1,7 C -1,1 C 3,2 km/h (1 Bft) 100,00 %
01.12.2018 02:50 -1,1 C 3,3 C 0,0 C 96 % 1018,5 hPa 0,0 l/m 2,6 km/h (1 Bft) O-NO 71 0 min 0,000 mm 0,0 UV-I 0 W/m -1,7 C -1,1 C 3,2 km/h (1 Bft) 100,00 %
01.12.2018 02:52 -1,1 C 3,3 C 0,0 C 96 % 1018,5 hPa 0,0 l/m 2,6 km/h (1 Bft) O-NO 71 0 min 0,000 mm 0,0 UV-I 0 W/m -1,7 C -1,1 C 3,2 km/h (1 Bft) 98,11 %
01.12.2018 02:54 -1,0 C 3,3 C 0,0 C 96 % 1018,5 hPa 0,0 l/m 2,4 km/h (1 Bft) O-NO 71 0 min 0,000 mm 0,0 UV-I 0 W/m -1,6 C -1,0 C 3,2 km/h (1 Bft) 97,37 %
01.12.2018 02:56 -1,0 C 3,3 C 0,0 C 96 % 1018,5 hPa 0,0 l/m 2,0 km/h (1 Bft) O-NO 71 0 min 0,000 mm 0,0 UV-I 0 W/m -1,6 C -1,0 C 3,2 km/h (1 Bft) 100,00 %
01.12.2018 02:58 -1,0 C 3,3 C 0,0 C 96 % 1018,6 hPa 0,0 l/m 1,5 km/h (1 Bft) O-NO 71 0 min 0,000 mm 0,0 UV-I 0 W/m -1,6 C -1,0 C 3,2 km/h (1 Bft) 100,00 %
01.12.2018 03:00 -1,0 C 3,3 C 0,0 C 96 % 1018,5 hPa 0,0 l/m 2,9 km/h (1 Bft) O-NO 71 0 min 0,000 mm 0,0 UV-I 0 W/m -1,6 C -1,0 C 3,2 km/h (1 Bft) 100,00 %
01.12.2018 03:02 -0,9 C 3,3 C 0,0 C 97 % 1018,5 hPa 0,0 l/m 2,3 km/h (1 Bft) O-NO 71 0 min 0,000 mm 0,0 UV-I 0 W/m -1,3 C -0,9 C 3,2 km/h (1 Bft) 96,00 %
01.12.2018 03:04 -0,9 C 3,3 C 0,0 C 97 % 1018,5 hPa 0,0 l/m 2,5 km/h (1 Bft) O-NO 71 0 min 0,000 mm 0,0 UV-I 0 W/m -1,3 C -0,9 C 3,2 km/h (1 Bft) 95,12 %
01.12.2018 03:06 -0,9 C 3,3 C 0,0 C 97 % 1018,5 hPa 0,0 l/m 2,6 km/h (1 Bft) O-NO 71 0 min 0,000 mm 0,0 UV-I 0 W/m -1,3 C -0,9 C 3,2 km/h (1 Bft) 94,34 %
01.12.2018 03:08 -0,9 C 3,3 C 0,0 C 97 % 1018,5 hPa 0,2 l/m 2,6 km/h (1 Bft) O-NO 70 0 min 0,000 mm 0,0 UV-I 0 W/m -1,3 C -0,9 C 4,8 km/h (1 Bft) 94,34 %
01.12.2018 03:10 -0,9 C 3,3 C 0,0 C 97 % 1018,5 hPa 0,0 l/m 2,5 km/h (1 Bft) O-NO 70 0 min 0,000 mm 0,0 UV-I 0 W/m -1,3 C -0,9 C 3,2 km/h (1 Bft) 95,12 %
01.12.2018 03:12 -0,9 C 3,3 C 0,0 C 97 % 1018,5 hPa 0,0 l/m 2,5 km/h (1 Bft) O-NO 70 0 min 0,000 mm 0,0 UV-I 0 W/m -1,3 C -0,9 C 3,2 km/h (1 Bft) 95,74 %
01.12.2018 03:14 -0,9 C 3,3 C 0,0 C 97 % 1018,4 hPa 0,0 l/m 3,0 km/h (1 Bft) O-NO 70 0 min 0,000 mm 0,0 UV-I 0 W/m -1,3 C -0,9 C 3,2 km/h (1 Bft) 96,23 %
01.12.2018 03:16 -0,9 C 3,3 C 0,0 C 97 % 1018,5 hPa 0,0 l/m 2,4 km/h (1 Bft) O-NO 70 0 min 0,000 mm 0,0 UV-I 0 W/m -1,3 C -0,9 C 3,2 km/h (1 Bft) 94,44 %
01.12.2018 03:18 -1,0 C 3,3 C 0,0 C 97 % 1018,4 hPa 0,0 l/m 2,1 km/h (1 Bft) O-NO 67 0 min 0,000 mm 0,0 UV-I 0 W/m -1,4 C -1,0 C 3,2 km/h (1 Bft) 96,15 %
01.12.2018 03:20 -0,9 C 3,3 C 0,0 C 97 % 1018,5 hPa 0,0 l/m 3,1 km/h (1 Bft) O-NO 67 0 min 0,000 mm 0,0 UV-I 0 W/m -1,3 C -0,9 C 4,8 km/h (1 Bft) 98,00 %
01.12.2018 03:22 -1,0 C 3,3 C 0,0 C 97 % 1018,5 hPa 0,0 l/m 2,6 km/h (1 Bft) O-NO 67 0 min 0,000 mm 0,0 UV-I 0 W/m -1,4 C -1,0 C 3,2 km/h (1 Bft) 97,44 %
01.12.2018 03:24 -1,0 C 3,3 C 0,0 C 97 % 1018,5 hPa 0,0 l/m 2,2 km/h (1 Bft) O-NO 67 0 min 0,000 mm 0,0 UV-I 0 W/m -1,4 C -1,0 C 3,2 km/h (1 Bft) 95,74 %
01.12.2018 03:26 -1,0 C 3,3 C 0,0 C 97 % 1018,5 hPa 0,0 l/m 2,3 km/h (1 Bft) O-NO 67 0 min 0,000 mm 0,0 UV-I 0 W/m -1,4 C -1,0 C 3,2 km/h (1 Bft) 95,74 %
01.12.2018 03:28 -0,9 C 3,3 C 0,0 C 97 % 1018,5 hPa 0,0 l/m 1,8 km/h (1 Bft) O-NO 67 0 min 0,000 mm 0,0 UV-I 0 W/m -1,3 C -0,9 C 3,2 km/h (1 Bft) 98,00 %
01.12.2018 03:30 -1,0 C 3,3 C 0,0 C 97 % 1018,4 hPa 0,2 l/m 1,5 km/h (1 Bft) O-NO 67 0 min 0,000 mm 0,0 UV-I 0 W/m -1,4 C -1,0 C 3,2 km/h (1 Bft) 92,00 %
01.12.2018 03:32 -1,0 C 3,3 C 0,0 C 96 % 1018,5 hPa 0,0 l/m 2,1 km/h (1 Bft) O-NO 67 0 min 0,000 mm 0,0 UV-I 0 W/m -1,6 C -1,0 C 3,2 km/h (1 Bft) 97,37 %
01.12.2018 03:34 -1,0 C 3,3 C 0,0 C 96 % 1018,5 hPa 0,0 l/m 2,1 km/h (1 Bft) O-NO 67 0 min 0,000 mm 0,0 UV-I 0 W/m -1,6 C -1,0 C 3,2 km/h (1 Bft) 94,34 %
01.12.2018 03:36 -1,0 C 3,3 C 0,0 C 96 % 1018,5 hPa 0,0 l/m 1,5 km/h (1 Bft) O-NO 67 0 min 0,000 mm 0,0 UV-I 0 W/m -1,6 C -1,0 C 3,2 km/h (1 Bft) 96,23 %
01.12.2018 03:38 -1,0 C 3,3 C 0,0 C 96 % 1018,6 hPa 0,0 l/m 2,3 km/h (1 Bft) O-NO 67 0 min 0,000 mm 0,0 UV-I 0 W/m -1,6 C -1,0 C 3,2 km/h (1 Bft) 94,74 %
01.12.2018 03:40 -1,0 C 3,3 C 0,0 C 96 % 1018,5 hPa 0,0 l/m 2,2 km/h (1 Bft) O-NO 67 0 min 0,000 mm 0,0 UV-I 0 W/m -1,6 C -1,0 C 3,2 km/h (1 Bft) 96,61 %
01.12.2018 03:42 -0,9 C 3,3 C 0,0 C 97 % 1018,5 hPa 0,0 l/m 1,4 km/h (1 Bft) O-NO 67 0 min 0,000 mm 0,0 UV-I 0 W/m -1,3 C -0,9 C 3,2 km/h (1 Bft) 91,43 %
01.12.2018 03:44 -0,9 C 3,3 C -0,6 C 97 % 1018,5 hPa 0,0 l/m 2,0 km/h (1 Bft) O-NO 67 0 min 0,000 mm 0,0 UV-I 0 W/m -1,3 C -0,9 C 3,2 km/h (1 Bft) 96,23 %
01.12.2018 03:46 -0,9 C 3,3 C -0,6 C 97 % 1018,6 hPa 0,0 l/m 1,3 km/h (1 Bft) O-NO 67 0 min 0,000 mm 0,0 UV-I 0 W/m -1,3 C -0,9 C 3,2 km/h (1 Bft) 94,29 %
01.12.2018 03:48 -0,9 C 3,3 C 0,0 C 97 % 1018,5 hPa 0,0 l/m 0,8 km/h (0 Bft) O-NO 67 0 min 0,000 mm 0,0 UV-I 0 W/m -1,3 C -0,9 C 1,6 km/h (1 Bft) 94,64 %
01.12.2018 03:50 -0,9 C 3,3 C 0,0 C 97 % 1018,6 hPa 0,0 l/m 0,7 km/h (0 Bft) O-NO 67 0 min 0,000 mm 0,0 UV-I 0 W/m -1,3 C -0,9 C 1,6 km/h (1 Bft) 94,34 %
01.12.2018 03:51 -0,9 C 3,3 C 0,0 C 97 % 1018,5 hPa 0,0 l/m 0,0 km/h (0 Bft) O-NO 67 0 min 0,000 mm 0,0 UV-I 0 W/m -1,3 C -0,9 C 0,0 km/h (0 Bft) 100,00 %
01.12.2018 03:52 -0,9 C 3,3 C 0,0 C 97 % 1018,6 hPa 0,0 l/m 0,0 km/h (0 Bft) O-NO 67 0 min 0,000 mm 0,0 UV-I 0 W/m -1,3 C -0,9 C 0,0 km/h (0 Bft) 92,86 %
01.12.2018 03:54 -1,0 C 3,3 C 0,0 C 97 % 1018,5 hPa 0,0 l/m 0,0 km/h (0 Bft) O-NO 67 0 min 0,000 mm 0,0 UV-I 0 W/m -1,4 C -1,0 C 0,0 km/h (0 Bft) 94,00 %
01.12.2018 03:56 -1,0 C 3,3 C -0,6 C 97 % 1018,5 hPa 0,0 l/m 0,4 km/h (0 Bft) O-NO 67 0 min 0,000 mm 0,0 UV-I 0 W/m -1,4 C -1,0 C 1,6 km/h (1 Bft) 94,00 %
01.12.2018 03:58 -1,0 C 3,3 C 0,0 C 97 % 1018,5 hPa 0,0 l/m 0,9 km/h (0 Bft) O-NO 67 0 min 0,000 mm 0,0 UV-I 0 W/m -1,4 C -1,0 C 1,6 km/h (1 Bft) 97,96 %
01.12.2018 04:00 -1,0 C 3,3 C 0,0 C 97 % 1018,5 hPa 0,0 l/m 0,5 km/h (0 Bft) O-NO 67 0 min 0,000 mm 0,0 UV-I 0 W/m -1,4 C -1,0 C 1,6 km/h (1 Bft) 97,44 %
01.12.2018 04:02 -1,0 C 3,3 C 0,0 C 97 % 1018,5 hPa 0,0 l/m 0,0 km/h (0 Bft) O-NO 67 0 min 0,000 mm 0,0 UV-I 0 W/m -1,4 C -1,0 C 0,0 km/h (0 Bft) 100,00 %
01.12.2018 04:04 -1,0 C 3,3 C 0,0 C 97 % 1018,5 hPa 0,0 l/m 0,0 km/h (0 Bft) O-NO 67 0 min 0,000 mm 0,0 UV-I 0 W/m -1,4 C -1,0 C 0,0 km/h (0 Bft) 96,00 %
01.12.2018 04:06 -1,0 C 3,3 C -0,6 C 97 % 1018,6 hPa 0,2 l/m 1,0 km/h (0 Bft) O-NO 67 0 min 0,000 mm 0,0 UV-I 0 W/m -1,4 C -1,0 C 1,6 km/h (1 Bft) 98,00 %
01.12.2018 04:08 -0,9 C 3,3 C -0,6 C 97 % 1018,6 hPa 0,0 l/m 0,6 km/h (0 Bft) O-NO 67 0 min 0,000 mm 0,0 UV-I 0 W/m -1,3 C -0,9 C 1,6 km/h (1 Bft) 97,37 %
01.12.2018 04:10 -0,9 C 3,3 C -0,6 C 97 % 1018,6 hPa 0,0 l/m 0,7 km/h (0 Bft) O-NO 67 0 min 0,000 mm 0,0 UV-I 0 W/m -1,3 C -0,9 C 1,6 km/h (1 Bft) 96,00 %
01.12.2018 04:12 -0,9 C 3,3 C -0,6 C 97 % 1018,6 hPa 0,0 l/m 0,7 km/h (0 Bft) O-NO 67 0 min 0,000 mm 0,0 UV-I 0 W/m -1,3 C -0,9 C 1,6 km/h (1 Bft) 95,74 %
01.12.2018 04:14 -0,9 C 3,3 C -0,6 C 97 % 1018,6 hPa 0,0 l/m 0,0 km/h (0 Bft) O-NO 67 0 min 0,000 mm 0,0 UV-I 0 W/m -1,3 C -0,9 C 0,0 km/h (0 Bft) 94,74 %
01.12.2018 04:16 -1,0 C 3,3 C -0,6 C 97 % 1018,6 hPa 0,0 l/m 0,0 km/h (0 Bft) O-NO 67 0 min 0,000 mm 0,0 UV-I 0 W/m -1,4 C -1,0 C 0,0 km/h (0 Bft) 94,92 %
01.12.2018 04:18 -0,9 C 3,3 C -0,6 C 97 % 1018,6 hPa 0,0 l/m 0,0 km/h (0 Bft) O-NO 67 0 min 0,000 mm 0,0 UV-I 0 W/m -1,3 C -0,9 C 0,0 km/h (0 Bft) 95,74 %
01.12.2018 04:20 -1,0 C 3,3 C 0,0 C 97 % 1018,7 hPa 0,0 l/m 0,0 km/h (0 Bft) O-NO 67 0 min 0,000 mm 0,0 UV-I 0 W/m -1,4 C -1,0 C 0,0 km/h (0 Bft) 92,00 %
01.12.2018 04:22 -0,9 C 3,3 C 0,0 C 97 % 1018,6 hPa 0,0 l/m 0,4 km/h (0 Bft) O-NO 67 0 min 0,000 mm 0,0 UV-I 0 W/m -1,3 C -0,9 C 1,6 km/h (1 Bft) 92,11 %
01.12.2018 04:24 -0,9 C 3,3 C 0,0 C 97 % 1018,6 hPa 0,0 l/m 1,4 km/h (1 Bft) O-NO 67 0 min 0,000 mm 0,0 UV-I 0 W/m -1,3 C -0,9 C 3,2 km/h (1 Bft) 95,74 %
01.12.2018 04:26 -0,9 C 3,3 C -0,6 C 97 % 1018,7 hPa 0,0 l/m 1,9 km/h (1 Bft) O-NO 67 0 min 0,000 mm 0,0 UV-I 0 W/m -1,3 C -0,9 C 3,2 km/h (1 Bft) 93,62 %
01.12.2018 04:28 -0,9 C 3,3 C -0,6 C 97 % 1018,7 hPa 0,0 l/m 0,6 km/h (0 Bft) O-NO 67 0 min 0,000 mm 0,0 UV-I 0 W/m -1,3 C -0,9 C 1,6 km/h (1 Bft) 96,00 %
01.12.2018 04:30 -0,9 C 3,3 C -0,6 C 97 % 1018,7 hPa 0,0 l/m 0,0 km/h (0 Bft) O-NO 67 0 min 0,000 mm 0,0 UV-I 0 W/m -1,3 C -0,9 C 0,0 km/h (0 Bft) 96,00 %
01.12.2018 04:32 -0,8 C 3,3 C -0,6 C 97 % 1018,7 hPa 0,0 l/m 0,0 km/h (0 Bft) O-NO 67 0 min 0,000 mm 0,0 UV-I 0 W/m -1,2 C -0,8 C 0,0 km/h (0 Bft) 97,44 %
01.12.2018 04:34 -0,8 C 3,3 C 0,0 C 97 % 1018,7 hPa 0,0 l/m 0,0 km/h (0 Bft) O-NO 67 0 min 0,000 mm 0,0 UV-I 0 W/m -1,2 C -0,8 C 0,0 km/h (0 Bft) 98,00 %
01.12.2018 04:36 -0,8 C 3,3 C 0,0 C 97 % 1018,7 hPa 0,0 l/m 0,0 km/h (0 Bft) O-NO 67 0 min 0,000 mm 0,0 UV-I 0 W/m -1,2 C -0,8 C 0,0 km/h (0 Bft) 98,00 %
01.12.2018 04:38 -0,8 C 3,3 C 0,0 C 97 % 1018,8 hPa 0,0 l/m 0,0 km/h (0 Bft) O-NO 67 0 min 0,000 mm 0,0 UV-I 0 W/m -1,2 C -0,8 C 0,0 km/h (0 Bft) 100,00 %
01.12.2018 04:40 -0,8 C 3,3 C 0,0 C 97 % 1018,8 hPa 0,0 l/m 0,0 km/h (0 Bft) O-NO 67 0 min 0,000 mm 0,0 UV-I 0 W/m -1,2 C -0,8 C 0,0 km/h (0 Bft) 100,00 %
01.12.2018 04:42 -0,8 C 3,3 C 0,0 C 97 % 1018,7 hPa 0,0 l/m 0,0 km/h (0 Bft) O-NO 67 0 min 0,000 mm 0,0 UV-I 0 W/m -1,2 C -0,8 C 0,0 km/h (0 Bft) 100,00 %
01.12.2018 04:44 -0,8 C 3,3 C 0,0 C 97 % 1018,8 hPa 0,2 l/m 0,1 km/h (0 Bft) O-NO 67 0 min 0,000 mm 0,0 UV-I 0 W/m -1,2 C -0,8 C 1,6 km/h (1 Bft) 98,00 %
01.12.2018 04:46 -0,7 C 3,3 C 0,0 C 97 % 1018,8 hPa 0,0 l/m 0,1 km/h (0 Bft) O-NO 67 0 min 0,000 mm 0,0 UV-I 0 W/m -1,1 C -0,7 C 1,6 km/h (1 Bft) 100,00 %
01.12.2018 04:48 -0,8 C 3,3 C 0,0 C 97 % 1018,8 hPa 0,0 l/m 0,0 km/h (0 Bft) O-NO 67 0 min 0,000 mm 0,0 UV-I 0 W/m -1,2 C -0,8 C 0,0 km/h (0 Bft) 100,00 %
01.12.2018 04:50 -0,8 C 3,3 C 0,0 C 97 % 1018,8 hPa 0,0 l/m 0,0 km/h (0 Bft) O-NO 67 0 min 0,000 mm 0,0 UV-I 0 W/m -1,2 C -0,8 C 0,0 km/h (0 Bft) 98,11 %
01.12.2018 04:52 -0,7 C 3,3 C 0,0 C 97 % 1018,9 hPa 0,0 l/m 0,0 km/h (0 Bft) O-NO 67 0 min 0,000 mm 0,0 UV-I 0 W/m -1,1 C -0,7 C 1,6 km/h (1 Bft) 95,74 %
01.12.2018 04:54 -0,7 C 3,3 C 0,0 C 97 % 1018,8 hPa 0,0 l/m 1,2 km/h (1 Bft) O-NO 67 0 min 0,000 mm 0,0 UV-I 0 W/m -1,1 C -0,7 C 1,6 km/h (1 Bft) 100,00 %
01.12.2018 04:56 -0,7 C 3,3 C 0,0 C 97 % 1018,9 hPa 0,0 l/m 0,6 km/h (0 Bft) O-NO 67 0 min 0,000 mm 0,0 UV-I 0 W/m -1,1 C -0,7 C 1,6 km/h (1 Bft) 96,23 %
01.12.2018 04:58 -0,8 C 3,3 C 0,0 C 97 % 1018,8 hPa 0,0 l/m 0,2 km/h (0 Bft) O-NO 67 0 min 0,000 mm 0,0 UV-I 0 W/m -1,2 C -0,8 C 1,6 km/h (1 Bft) 96,00 %
01.12.2018 05:00 -0,8 C 3,3 C 0,0 C 97 % 1018,9 hPa 0,0 l/m 0,2 km/h (0 Bft) O-NO 67 0 min 0,000 mm 0,0 UV-I 0 W/m -1,2 C -0,8 C 1,6 km/h (1 Bft) 100,00 %
01.12.2018 05:02 -0,7 C 3,3 C 0,0 C 97 % 1018,8 hPa 0,0 l/m 0,1 km/h (0 Bft) O-NO 67 0 min 0,000 mm 0,0 UV-I 0 W/m -1,1 C -0,7 C 1,6 km/h (1 Bft) 100,00 %
01.12.2018 05:04 -0,7 C 3,3 C 0,0 C 97 % 1018,8 hPa 0,0 l/m 0,0 km/h (0 Bft) O-NO 67 0 min 0,000 mm 0,0 UV-I 0 W/m -1,1 C -0,7 C 0,0 km/h (0 Bft) 98,00 %
01.12.2018 05:06 -0,7 C 3,3 C 0,0 C 97 % 1018,8 hPa 0,0 l/m 0,0 km/h (0 Bft) O-NO 67 0 min 0,000 mm 0,0 UV-I 0 W/m -1,1 C -0,7 C 0,0 km/h (0 Bft) 97,87 %
01.12.2018 05:08 -0,7 C 3,3 C 0,0 C 97 % 1018,9 hPa 0,0 l/m 0,0 km/h (0 Bft) O-NO 67 0 min 0,000 mm 0,0 UV-I 0 W/m -1,1 C -0,7 C 0,0 km/h (0 Bft) 100,00 %
01.12.2018 05:10 -0,6 C 3,3 C 0,0 C 97 % 1018,9 hPa 0,0 l/m 0,0 km/h (0 Bft) O-NO 67 0 min 0,000 mm 0,0 UV-I 0 W/m -1,0 C -0,6 C 0,0 km/h (0 Bft) 98,00 %
01.12.2018 05:12 -0,6 C 3,3 C 0,0 C 97 % 1018,9 hPa 0,0 l/m 0,2 km/h (0 Bft) O-NO 67 0 min 0,000 mm 0,0 UV-I 0 W/m -1,0 C -0,6 C 1,6 km/h (1 Bft) 100,00 %
01.12.2018 05:14 -0,6 C 3,3 C 0,0 C 97 % 1018,9 hPa 0,0 l/m 0,9 km/h (0 Bft) O-NO 67 0 min 0,000 mm 0,0 UV-I 0 W/m -1,0 C -0,6 C 1,6 km/h (1 Bft) 100,00 %
01.12.2018 05:16 -0,6 C 3,3 C 0,0 C 97 % 1018,8 hPa 0,2 l/m 0,4 km/h (0 Bft) O-NO 67 0 min 0,000 mm 0,0 UV-I 0 W/m -1,0 C -0,6 C 1,6 km/h (1 Bft) 97,44 %
01.12.2018 05:18 -0,7 C 3,3 C 0,0 C 97 % 1018,9 hPa 0,0 l/m 0,7 km/h (0 Bft) O-NO 67 0 min 0,000 mm 0,0 UV-I 0 W/m -1,1 C -0,7 C 1,6 km/h (1 Bft) 97,14 %
01.12.2018 05:20 -0,7 C 3,3 C 0,0 C 97 % 1018,9 hPa 0,0 l/m 0,5 km/h (0 Bft) O-NO 67 0 min 0,000 mm 0,0 UV-I 0 W/m -1,1 C -0,7 C 1,6 km/h (1 Bft) 92,86 %
01.12.2018 05:22 -0,7 C 3,3 C 0,0 C 97 % 1018,9 hPa 0,0 l/m 0,0 km/h (0 Bft) O-NO 67 0 min 0,000 mm 0,0 UV-I 0 W/m -1,1 C -0,7 C 0,0 km/h (0 Bft) 96,23 %
01.12.2018 05:24 -0,7 C 3,3 C 0,0 C 97 % 1018,9 hPa 0,0 l/m 0,1 km/h (0 Bft) O-NO 67 0 min 0,000 mm 0,0 UV-I 0 W/m -1,1 C -0,7 C 1,6 km/h (1 Bft) 96,00 %
01.12.2018 05:26 -0,6 C 3,3 C 0,0 C 97 % 1019,0 hPa 0,0 l/m 0,2 km/h (0 Bft) O-NO 67 0 min 0,000 mm 0,0 UV-I 0 W/m -1,0 C -0,6 C 1,6 km/h (1 Bft) 91,43 %
01.12.2018 05:28 -0,7 C 3,3 C 0,0 C 97 % 1018,9 hPa 0,0 l/m 0,7 km/h (0 Bft) O-NO 67 0 min 0,000 mm 0,0 UV-I 0 W/m -1,1 C -0,7 C 1,6 km/h (1 Bft) 94,64 %
01.12.2018 05:30 -0,7 C 3,3 C 0,0 C 97 % 1018,9 hPa 0,0 l/m 0,4 km/h (0 Bft) O-NO 67 0 min 0,000 mm 0,0 UV-I 0 W/m -1,1 C -0,7 C 1,6 km/h (1 Bft) 95,12 %
01.12.2018 05:32 -0,6 C 3,3 C 0,0 C 97 % 1018,9 hPa 0,0 l/m 0,1 km/h (0 Bft) O-NO 67 0 min 0,000 mm 0,0 UV-I 0 W/m -1,0 C -0,6 C 1,6 km/h (1 Bft) 91,49 %
01.12.2018 05:34 -0,6 C 3,3 C 0,0 C 97 % 1018,9 hPa 0,0 l/m 0,0 km/h (0 Bft) O-NO 67 0 min 0,000 mm 0,0 UV-I 0 W/m -1,0 C -0,6 C 0,0 km/h (0 Bft) 96,23 %
01.12.2018 05:36 -0,6 C 3,3 C 0,0 C 97 % 1018,9 hPa 0,0 l/m 0,0 km/h (0 Bft) O-NO 67 0 min 0,000 mm 0,0 UV-I 0 W/m -1,0 C -0,6 C 0,0 km/h (0 Bft) 95,74 %
01.12.2018 05:38 -0,6 C 3,3 C 0,0 C 97 % 1018,9 hPa 0,0 l/m 0,0 km/h (0 Bft) O-NO 67 0 min 0,000 mm 0,0 UV-I 0 W/m -1,0 C -0,6 C 0,0 km/h (0 Bft) 96,00 %
01.12.2018 05:40 -0,6 C 3,3 C 0,0 C 97 % 1018,9 hPa 0,0 l/m 0,0 km/h (0 Bft) O-NO 67 0 min 0,000 mm 0,0 UV-I 0 W/m -1,0 C -0,6 C 0,0 km/h (0 Bft) 94,74 %
01.12.2018 05:42 -0,6 C 3,3 C 0,0 C 97 % 1018,9 hPa 0,0 l/m 0,0 km/h (0 Bft) O-NO 67 0 min 0,000 mm 0,0 UV-I 0 W/m -1,0 C -0,6 C 0,0 km/h (0 Bft) 95,74 %
01.12.2018 05:44 -0,6 C 3,3 C 0,0 C 97 % 1019,0 hPa 0,0 l/m 0,0 km/h (0 Bft) O-NO 67 0 min 0,000 mm 0,0 UV-I 0 W/m -1,0 C -0,6 C 0,0 km/h (0 Bft) 94,00 %
01.12.2018 05:46 -0,6 C 3,3 C 0,0 C 97 % 1018,9 hPa 0,0 l/m 0,0 km/h (0 Bft) O-NO 67 0 min 0,000 mm 0,0 UV-I 0 W/m -1,0 C -0,6 C 0,0 km/h (0 Bft) 97,44 %
01.12.2018 05:48 -0,6 C 3,3 C 0,0 C 97 % 1018,9 hPa 0,0 l/m 0,6 km/h (0 Bft) O-NO 67 0 min 0,000 mm 0,0 UV-I 0 W/m -1,0 C -0,6 C 1,6 km/h (1 Bft) 100,00 %
01.12.2018 05:50 -0,5 C 3,3 C 0,0 C 97 % 1018,9 hPa 0,0 l/m 2,2 km/h (1 Bft) O-NO 67 0 min 0,000 mm 0,0 UV-I 0 W/m -0,9 C -0,5 C 3,2 km/h (1 Bft) 100,00 %
01.12.2018 05:52 -0,5 C 3,3 C 0,0 C 97 % 1019,0 hPa 0,0 l/m 1,5 km/h (1 Bft) O-NO 67 0 min 0,000 mm 0,0 UV-I 0 W/m -0,9 C -0,5 C 3,2 km/h (1 Bft) 100,00 %
01.12.2018 05:54 -0,5 C 3,3 C 0,0 C 97 % 1018,9 hPa 0,0 l/m 1,7 km/h (1 Bft) O-NO 67 0 min 0,000 mm 0,0 UV-I 0 W/m -0,9 C -0,5 C 3,2 km/h (1 Bft) 100,00 %
01.12.2018 05:56 -0,5 C 3,3 C 0,0 C 97 % 1018,9 hPa 0,0 l/m 1,8 km/h (1 Bft) O-NO 67 0 min 0,000 mm 0,0 UV-I 0 W/m -0,9 C -0,5 C 3,2 km/h (1 Bft) 100,00 %
01.12.2018 05:58 -0,4 C 3,3 C 0,0 C 97 % 1018,9 hPa 0,0 l/m 1,4 km/h (1 Bft) O-NO 67 0 min 0,000 mm 0,0 UV-I 0 W/m -0,8 C -0,4 C 3,2 km/h (1 Bft) 100,00 %
01.12.2018 06:00 -0,4 C 3,3 C 0,0 C 97 % 1019,0 hPa 0,0 l/m 1,6 km/h (1 Bft) O-NO 67 0 min 0,000 mm 0,0 UV-I 0 W/m -0,8 C -0,4 C 3,2 km/h (1 Bft) 100,00 %
01.12.2018 06:02 -0,4 C 3,3 C 0,0 C 97 % 1019,0 hPa 0,2 l/m 1,6 km/h (1 Bft) O-NO 67 0 min 0,000 mm 0,0 UV-I 0 W/m -0,8 C -0,4 C 3,2 km/h (1 Bft) 100,00 %
01.12.2018 06:04 -0,4 C 3,3 C 0,0 C 97 % 1019,1 hPa 0,0 l/m 1,4 km/h (1 Bft) O-NO 67 0 min 0,000 mm 0,0 UV-I 0 W/m -0,8 C -0,4 C 3,2 km/h (1 Bft) 100,00 %
01.12.2018 06:06 -0,4 C 3,3 C 0,0 C 97 % 1019,1 hPa 0,0 l/m 0,8 km/h (0 Bft) O-NO 67 0 min 0,000 mm 0,0 UV-I 0 W/m -0,8 C -0,4 C 1,6 km/h (1 Bft) 93,62 %
01.12.2018 06:08 -0,4 C 3,3 C 0,0 C 97 % 1019,2 hPa 0,0 l/m 0,8 km/h (0 Bft) O-NO 67 0 min 0,000 mm 0,0 UV-I 0 W/m -0,8 C -0,4 C 1,6 km/h (1 Bft) 100,00 %
01.12.2018 06:10 -0,4 C 3,3 C 0,0 C 97 % 1019,1 hPa 0,0 l/m 0,8 km/h (0 Bft) O-NO 67 0 min 0,000 mm 0,0 UV-I 0 W/m -0,8 C -0,4 C 1,6 km/h (1 Bft) 100,00 %
01.12.2018 06:12 -0,4 C 3,3 C 0,0 C 97 % 1019,2 hPa 0,0 l/m 0,3 km/h (0 Bft) O-NO 67 0 min 0,000 mm 0,0 UV-I 0 W/m -0,8 C -0,4 C 1,6 km/h (1 Bft) 100,00 %
01.12.2018 06:14 -0,3 C 3,3 C 0,0 C 97 % 1019,2 hPa 0,0 l/m 0,6 km/h (0 Bft) O-NO 67 0 min 0,000 mm 0,0 UV-I 0 W/m -0,7 C -0,3 C 1,6 km/h (1 Bft) 100,00 %
01.12.2018 06:16 -0,3 C 3,3 C 0,0 C 97 % 1019,3 hPa 0,0 l/m 0,1 km/h (0 Bft) O-NO 67 0 min 0,000 mm 0,0 UV-I 0 W/m -0,7 C -0,3 C 1,6 km/h (1 Bft) 100,00 %
01.12.2018 06:18 -0,3 C 3,3 C 0,0 C 97 % 1019,2 hPa 0,0 l/m 0,0 km/h (0 Bft) O-NO 67 0 min 0,000 mm 0,0 UV-I 0 W/m -0,7 C -0,3 C 0,0 km/h (0 Bft) 97,87 %
01.12.2018 06:20 -0,3 C 3,3 C 0,0 C 97 % 1019,3 hPa 0,0 l/m 0,0 km/h (0 Bft) O-NO 67 0 min 0,000 mm 0,0 UV-I 0 W/m -0,7 C -0,3 C 0,0 km/h (0 Bft) 100,00 %
01.12.2018 06:22 -0,3 C 3,3 C 0,0 C 97 % 1019,3 hPa 0,0 l/m 0,0 km/h (0 Bft) O-NO 67 0 min 0,000 mm 0,0 UV-I 0 W/m -0,7 C -0,3 C 0,0 km/h (0 Bft) 100,00 %
01.12.2018 06:24 -0,2 C 3,3 C 0,0 C 97 % 1019,3 hPa 0,0 l/m 0,0 km/h (0 Bft) O-NO 67 0 min 0,000 mm 0,0 UV-I 0 W/m -0,6 C -0,2 C 0,0 km/h (0 Bft) 98,00 %
01.12.2018 06:26 -0,2 C 3,3 C 0,0 C 97 % 1019,3 hPa 0,0 l/m 0,0 km/h (0 Bft) O-NO 67 0 min 0,000 mm 0,0 UV-I 0 W/m -0,6 C -0,2 C 0,0 km/h (0 Bft) 100,00 %
01.12.2018 06:28 -0,2 C 3,3 C 0,0 C 97 % 1019,3 hPa 0,2 l/m 0,0 km/h (0 Bft) O-NO 67 0 min 0,000 mm 0,0 UV-I 0 W/m -0,6 C -0,2 C 0,0 km/h (0 Bft) 100,00 %
01.12.2018 06:30 -0,2 C 3,3 C 0,0 C 97 % 1019,3 hPa 0,0 l/m 0,0 km/h (0 Bft) O-NO 67 0 min 0,000 mm 0,0 UV-I 0 W/m -0,6 C -0,2 C 0,0 km/h (0 Bft) 97,62 %
01.12.2018 06:32 -0,2 C 3,3 C 0,0 C 97 % 1019,3 hPa 0,0 l/m 0,0 km/h (0 Bft) O-NO 67 0 min 0,000 mm 0,0 UV-I 0 W/m -0,6 C -0,2 C 0,0 km/h (0 Bft) 98,00 %
01.12.2018 06:34 -0,2 C 3,3 C 0,0 C 97 % 1019,3 hPa 0,0 l/m 0,0 km/h (0 Bft) O-NO 67 0 min 0,000 mm 0,0 UV-I 0 W/m -0,6 C -0,2 C 0,0 km/h (0 Bft) 96,23 %
01.12.2018 06:36 -0,2 C 3,3 C 0,0 C 97 % 1019,3 hPa 0,0 l/m 0,0 km/h (0 Bft) O-NO 67 0 min 0,000 mm 0,0 UV-I 0 W/m -0,6 C -0,2 C 0,0 km/h (0 Bft) 95,74 %
01.12.2018 06:38 -0,3 C 3,3 C 0,0 C 97 % 1019,3 hPa 0,0 l/m 0,0 km/h (0 Bft) O-NO 67 0 min 0,000 mm 0,0 UV-I 0 W/m -0,7 C -0,3 C 0,0 km/h (0 Bft) 97,14 %
01.12.2018 06:40 -0,3 C 3,3 C 0,0 C 97 % 1019,3 hPa 0,0 l/m 0,0 km/h (0 Bft) O-NO 67 0 min 0,000 mm 0,0 UV-I 0 W/m -0,7 C -0,3 C 0,0 km/h (0 Bft) 97,87 %
01.12.2018 06:42 -0,3 C 3,3 C 0,0 C 97 % 1019,3 hPa 0,0 l/m 0,0 km/h (0 Bft) O-NO 67 0 min 0,000 mm 0,0 UV-I 0 W/m -0,7 C -0,3 C 0,0 km/h (0 Bft) 97,87 %
01.12.2018 06:44 -0,3 C 3,3 C 0,0 C 97 % 1019,3 hPa 0,0 l/m 0,0 km/h (0 Bft) O-NO 67 0 min 0,000 mm 0,0 UV-I 0 W/m -0,7 C -0,3 C 0,0 km/h (0 Bft) 95,74 %
01.12.2018 06:46 -0,3 C 3,3 C 0,0 C 97 % 1019,3 hPa 0,0 l/m 0,0 km/h (0 Bft) O-NO 67 0 min 0,000 mm 0,0 UV-I 0 W/m -0,7 C -0,3 C 0,0 km/h (0 Bft) 98,11 %
01.12.2018 06:48 -0,3 C 3,3 C 0,0 C 97 % 1019,3 hPa 0,2 l/m 0,0 km/h (0 Bft) O-NO 67 0 min 0,000 mm 0,0 UV-I 0 W/m -0,7 C -0,3 C 0,0 km/h (0 Bft) 97,87 %
01.12.2018 06:50 -0,2 C 3,3 C 0,0 C 97 % 1019,3 hPa 0,0 l/m 0,0 km/h (0 Bft) O-NO 67 0 min 0,000 mm 0,0 UV-I 0 W/m -0,6 C -0,2 C 0,0 km/h (0 Bft) 100,00 %
01.12.2018 06:52 -0,2 C 3,3 C 0,0 C 97 % 1019,3 hPa 0,0 l/m 0,0 km/h (0 Bft) O-NO 67 0 min 0,000 mm 0,0 UV-I 0 W/m -0,6 C -0,2 C 0,0 km/h (0 Bft) 98,00 %
01.12.2018 06:54 -0,2 C 3,3 C 0,0 C 97 % 1019,3 hPa 0,0 l/m 0,0 km/h (0 Bft) O-NO 67 0 min 0,000 mm 0,0 UV-I 0 W/m -0,6 C -0,2 C 0,0 km/h (0 Bft) 100,00 %
01.12.2018 06:56 -0,3 C 3,3 C 0,0 C 97 % 1019,4 hPa 0,0 l/m 0,0 km/h (0 Bft) O-NO 67 0 min 0,000 mm 0,0 UV-I 0 W/m -0,7 C -0,3 C 0,0 km/h (0 Bft) 97,87 %
01.12.2018 06:58 -0,3 C 3,3 C 0,0 C 97 % 1019,4 hPa 0,0 l/m 0,0 km/h (0 Bft) O-NO 67 0 min 0,000 mm 0,0 UV-I 0 W/m -0,7 C -0,3 C 0,0 km/h (0 Bft) 98,00 %
01.12.2018 07:00 -0,2 C 3,3 C 0,0 C 97 % 1019,4 hPa 0,0 l/m 0,0 km/h (0 Bft) O-NO 67 0 min 0,000 mm 0,0 UV-I 0 W/m -0,6 C -0,2 C 0,0 km/h (0 Bft) 100,00 %
01.12.2018 07:02 -0,2 C 3,3 C 0,0 C 97 % 1019,4 hPa 0,0 l/m 0,0 km/h (0 Bft) O-NO 67 0 min 0,000 mm 0,0 UV-I 0 W/m -0,6 C -0,2 C 0,0 km/h (0 Bft) 97,87 %
01.12.2018 07:04 -0,3 C 3,3 C 0,0 C 97 % 1019,5 hPa 0,0 l/m 0,0 km/h (0 Bft) O-NO 67 0 min 0,000 mm 0,0 UV-I 0 W/m -0,7 C -0,3 C 0,0 km/h (0 Bft) 100,00 %
01.12.2018 07:06 -0,3 C 3,3 C 0,0 C 97 % 1019,5 hPa 0,0 l/m 0,0 km/h (0 Bft) O-NO 67 0 min 0,000 mm 0,0 UV-I 0 W/m -0,7 C -0,3 C 0,0 km/h (0 Bft) 100,00 %
01.12.2018 07:08 -0,3 C 3,3 C 0,0 C 97 % 1019,5 hPa 0,0 l/m 0,0 km/h (0 Bft) O-NO 67 0 min 0,000 mm 0,0 UV-I 0 W/m -0,7 C -0,3 C 0,0 km/h (0 Bft) 97,22 %
01.12.2018 07:10 -0,2 C 3,3 C 0,0 C 97 % 1019,5 hPa 0,0 l/m 0,0 km/h (0 Bft) O-NO 67 0 min 0,000 mm 0,0 UV-I 0 W/m -0,6 C -0,2 C 0,0 km/h (0 Bft) 98,00 %
01.12.2018 07:12 -0,3 C 3,3 C 0,0 C 97 % 1019,5 hPa 0,0 l/m 0,0 km/h (0 Bft) O-NO 67 0 min 0,000 mm 0,0 UV-I 0 W/m -0,7 C -0,3 C 0,0 km/h (0 Bft) 95,74 %
01.12.2018 07:14 -0,3 C 3,3 C 0,0 C 97 % 1019,5 hPa 0,0 l/m 0,0 km/h (0 Bft) O-NO 67 0 min 0,000 mm 0,0 UV-I 0 W/m -0,7 C -0,3 C 0,0 km/h (0 Bft) 97,87 %
01.12.2018 07:16 -0,3 C 3,3 C 0,0 C 97 % 1019,5 hPa 0,0 l/m 0,0 km/h (0 Bft) O-NO 67 0 min 0,000 mm 0,0 UV-I 0 W/m -0,7 C -0,3 C 0,0 km/h (0 Bft) 94,34 %
01.12.2018 07:18 -0,2 C 3,3 C 0,0 C 97 % 1019,5 hPa 0,0 l/m 0,0 km/h (0 Bft) O-NO 67 0 min 0,000 mm 0,0 UV-I 0 W/m -0,6 C -0,2 C 0,0 km/h (0 Bft) 97,87 %
01.12.2018 07:20 -0,2 C 3,3 C 0,0 C 97 % 1019,5 hPa 0,0 l/m 0,0 km/h (0 Bft) O-NO 67 0 min 0,000 mm 0,0 UV-I 0 W/m -0,6 C -0,2 C 0,0 km/h (0 Bft) 98,00 %
01.12.2018 07:22 -0,2 C 3,3 C 0,0 C 97 % 1019,6 hPa 0,0 l/m 0,0 km/h (0 Bft) O-NO 67 0 min 0,000 mm 0,0 UV-I 0 W/m -0,6 C -0,2 C 0,0 km/h (0 Bft) 95,74 %
01.12.2018 07:24 -0,2 C 3,3 C 0,0 C 97 % 1019,5 hPa 0,0 l/m 0,0 km/h (0 Bft) O-NO 67 0 min 0,000 mm 0,0 UV-I 0 W/m -0,6 C -0,2 C 0,0 km/h (0 Bft) 95,74 %
01.12.2018 07:26 -0,2 C 3,3 C 0,0 C 97 % 1019,6 hPa 0,0 l/m 0,0 km/h (0 Bft) O-NO 67 0 min 0,000 mm 0,0 UV-I 0 W/m -0,6 C -0,2 C 0,0 km/h (0 Bft) 97,87 %
01.12.2018 07:29 -0,1 C 3,3 C 0,0 C 97 % 1019,6 hPa 0,0 l/m 0,0 km/h (0 Bft) O-NO 67 0 min 0,000 mm 0,0 UV-I 0 W/m -0,5 C -0,1 C 0,0 km/h (0 Bft) 97,06 %
01.12.2018 07:30 -0,2 C 3,3 C 0,0 C 97 % 1019,6 hPa 0,0 l/m 0,0 km/h (0 Bft) O-NO 67 0 min 0,000 mm 0,0 UV-I 0 W/m -0,6 C -0,2 C 0,0 km/h (0 Bft) 100,00 %
01.12.2018 07:32 -0,2 C 3,3 C 0,0 C 97 % 1019,7 hPa 0,0 l/m 0,0 km/h (0 Bft) O-NO 67 0 min 0,000 mm 0,0 UV-I 0 W/m -0,6 C -0,2 C 0,0 km/h (0 Bft) 97,87 %
01.12.2018 07:35 -0,1 C 3,3 C 0,0 C 97 % 1019,8 hPa 0,0 l/m 0,0 km/h (0 Bft) O-NO 67 0 min 0,000 mm 0,0 UV-I 0 W/m -0,5 C -0,1 C 0,0 km/h (0 Bft) 97,59 %
01.12.2018 07:36 -0,1 C 3,3 C 0,0 C 97 % 1019,8 hPa 0,0 l/m 0,0 km/h (0 Bft) O-NO 67 0 min 0,000 mm 0,0 UV-I 0 W/m -0,5 C -0,1 C 0,0 km/h (0 Bft) 90,91 %
01.12.2018 07:38 -0,1 C 3,3 C 0,0 C 97 % 1019,8 hPa 0,0 l/m 0,0 km/h (0 Bft) O-NO 67 0 min 0,000 mm 0,0 UV-I 0 W/m -0,5 C -0,1 C 0,0 km/h (0 Bft) 98,11 %
01.12.2018 07:40 -0,1 C 3,3 C 0,0 C 97 % 1019,8 hPa 0,0 l/m 0,0 km/h (0 Bft) O-NO 67 0 min 0,000 mm 0,0 UV-I 0 W/m -0,5 C -0,1 C 0,0 km/h (0 Bft) 97,56 %
01.12.2018 07:42 -0,1 C 3,3 C 0,0 C 97 % 1019,8 hPa 0,0 l/m 0,0 km/h (0 Bft) O-NO 67 0 min 0,000 mm 0,0 UV-I 0 W/m -0,5 C -0,1 C 0,0 km/h (0 Bft) 95,74 %
01.12.2018 07:44 -0,1 C 3,3 C 0,0 C 97 % 1019,8 hPa 0,0 l/m 0,0 km/h (0 Bft) O-NO 67 0 min 0,000 mm 0,0 UV-I 0 W/m -0,5 C -0,1 C 0,0 km/h (0 Bft) 98,11 %
01.12.2018 07:46 -0,2 C 3,3 C 0,0 C 97 % 1019,8 hPa 0,0 l/m 0,0 km/h (0 Bft) O-NO 67 0 min 0,000 mm 0,0 UV-I 0 W/m -0,6 C -0,2 C 0,0 km/h (0 Bft) 97,44 %
01.12.2018 07:48 -0,1 C 3,3 C 0,0 C 97 % 1019,8 hPa 0,0 l/m 0,0 km/h (0 Bft) O-NO 67 0 min 0,000 mm 0,0 UV-I 4 W/m -0,5 C -0,1 C 0,0 km/h (0 Bft) 96,00 %
01.12.2018 07:50 -0,2 C 3,3 C 0,0 C 97 % 1019,8 hPa 0,0 l/m 0,0 km/h (0 Bft) O-NO 67 0 min 0,000 mm 0,0 UV-I 5 W/m -0,6 C -0,2 C 0,0 km/h (0 Bft) 94,00 %
01.12.2018 07:52 -0,1 C 3,3 C 0,0 C 97 % 1019,9 hPa 0,0 l/m 0,0 km/h (0 Bft) O-NO 67 0 min 0,000 mm 0,0 UV-I 5 W/m -0,5 C -0,1 C 0,0 km/h (0 Bft) 98,00 %
01.12.2018 07:54 -0,1 C 3,3 C 0,0 C 97 % 1019,9 hPa 0,0 l/m 0,0 km/h (0 Bft) O-NO 67 0 min 0,000 mm 0,0 UV-I 5 W/m -0,5 C -0,1 C 0,0 km/h (0 Bft) 94,00 %
01.12.2018 07:56 -0,1 C 3,3 C 0,0 C 97 % 1019,9 hPa 0,0 l/m 0,0 km/h (0 Bft) O-NO 67 0 min 0,000 mm 0,0 UV-I 5 W/m -0,5 C -0,1 C 0,0 km/h (0 Bft) 97,14 %
01.12.2018 07:58 -0,1 C 3,3 C 0,0 C 97 % 1019,9 hPa 0,0 l/m 0,0 km/h (0 Bft) O-NO 67 0 min 0,000 mm 0,0 UV-I 5 W/m -0,5 C -0,1 C 0,0 km/h (0 Bft) 98,21 %
01.12.2018 08:00 -0,1 C 3,3 C 0,0 C 97 % 1020,0 hPa 0,0 l/m 0,0 km/h (0 Bft) O-NO 67 0 min 0,000 mm 0,0 UV-I 7 W/m -0,5 C -0,1 C 0,0 km/h (0 Bft) 95,74 %
01.12.2018 08:02 -0,1 C 3,3 C 0,0 C 97 % 1019,9 hPa 0,0 l/m 0,0 km/h (0 Bft) O-NO 67 0 min 0,000 mm 0,0 UV-I 5 W/m -0,5 C -0,1 C 0,0 km/h (0 Bft) 97,87 %
01.12.2018 08:04 -0,1 C 3,3 C 0,0 C 97 % 1019,9 hPa 0,0 l/m 0,0 km/h (0 Bft) O-NO 67 0 min 0,000 mm 0,0 UV-I 6 W/m -0,5 C -0,1 C 0,0 km/h (0 Bft) 97,87 %
01.12.2018 08:06 -0,1 C 3,3 C 0,0 C 97 % 1020,0 hPa 0,0 l/m 0,0 km/h (0 Bft) O-NO 67 0 min 0,000 mm 0,0 UV-I 7 W/m -0,5 C -0,1 C 0,0 km/h (0 Bft) 97,87 %
01.12.2018 08:08 -0,1 C 3,3 C 0,0 C 97 % 1020,0 hPa 0,0 l/m 0,0 km/h (0 Bft) O-NO 67 0 min 0,000 mm 0,0 UV-I 7 W/m -0,5 C -0,1 C 0,0 km/h (0 Bft) 100,00 %
01.12.2018 08:10 -0,1 C 3,3 C 0,0 C 97 % 1020,0 hPa 0,0 l/m 0,0 km/h (0 Bft) O-NO 67 0 min 0,000 mm 0,0 UV-I 6 W/m -0,5 C -0,1 C 0,0 km/h (0 Bft) 100,00 %
01.12.2018 08:12 -0,1 C 3,3 C 0,0 C 97 % 1020,0 hPa 0,0 l/m 0,0 km/h (0 Bft) O-NO 67 0 min 0,000 mm 0,0 UV-I 7 W/m -0,5 C -0,1 C 0,0 km/h (0 Bft) 100,00 %
01.12.2018 08:14 -0,1 C 3,3 C 0,0 C 97 % 1020,0 hPa 0,0 l/m 0,0 km/h (0 Bft) O-NO 67 0 min 0,000 mm 0,0 UV-I 9 W/m -0,5 C -0,1 C 0,0 km/h (0 Bft) 97,87 %
01.12.2018 08:16 -0,1 C 3,3 C 0,0 C 97 % 1020,0 hPa 0,2 l/m 0,0 km/h (0 Bft) O-NO 67 0 min 0,000 mm 0,0 UV-I 10 W/m -0,5 C -0,1 C 0,0 km/h (0 Bft) 100,00 %
01.12.2018 08:18 -0,1 C 3,3 C 0,0 C 97 % 1020,0 hPa 0,0 l/m 0,0 km/h (0 Bft) O-NO 67 0 min 0,000 mm 0,0 UV-I 10 W/m -0,5 C -0,1 C 0,0 km/h (0 Bft) 98,00 %
01.12.2018 08:20 0,0 C 3,3 C 0,0 C 97 % 1020,0 hPa 0,0 l/m 0,0 km/h (0 Bft) O-NO 67 0 min 0,000 mm 0,0 UV-I 11 W/m -0,4 C 0,0 C 0,0 km/h (0 Bft) 96,00 %
01.12.2018 08:22 0,0 C 3,3 C 0,0 C 97 % 1020,0 hPa 0,0 l/m 0,0 km/h (0 Bft) O-NO 67 0 min 0,000 mm 0,0 UV-I 12 W/m -0,4 C 0,0 C 1,6 km/h (1 Bft) 97,87 %
01.12.2018 08:24 0,0 C 3,3 C 0,0 C 97 % 1020,1 hPa 0,0 l/m 0,0 km/h (0 Bft) O-NO 67 0 min 0,000 mm 0,0 UV-I 13 W/m -0,4 C 0,0 C 0,0 km/h (0 Bft) 95,74 %
01.12.2018 08:26 0,0 C 3,3 C 0,0 C 97 % 1020,1 hPa 0,2 l/m 0,0 km/h (0 Bft) O-NO 67 0 min 0,000 mm 0,0 UV-I 14 W/m -0,4 C 0,0 C 0,0 km/h (0 Bft) 97,92 %
01.12.2018 08:28 0,0 C 3,3 C 0,0 C 97 % 1020,1 hPa 0,0 l/m 0,0 km/h (0 Bft) O-NO 67 0 min 0,000 mm 0,0 UV-I 16 W/m -0,4 C 0,0 C 0,0 km/h (0 Bft) 97,87 %
01.12.2018 08:30 0,1 C 3,3 C 0,0 C 97 % 1020,1 hPa 0,0 l/m 0,0 km/h (0 Bft) O-NO 67 0 min 0,000 mm 0,0 UV-I 17 W/m -0,3 C 0,1 C 0,0 km/h (0 Bft) 97,56 %
01.12.2018 08:32 0,1 C 3,3 C 0,0 C 97 % 1020,1 hPa 0,0 l/m 0,0 km/h (0 Bft) O-NO 67 0 min 0,000 mm 0,0 UV-I 17 W/m -0,3 C 0,1 C 0,0 km/h (0 Bft) 97,87 %
01.12.2018 08:34 0,1 C 3,3 C 0,0 C 97 % 1020,1 hPa 0,0 l/m 0,0 km/h (0 Bft) O-NO 67 0 min 0,000 mm 0,0 UV-I 17 W/m -0,3 C 0,1 C 0,0 km/h (0 Bft) 96,23 %
01.12.2018 08:36 0,1 C 3,3 C 0,0 C 97 % 1020,0 hPa 0,0 l/m 0,0 km/h (0 Bft) O-NO 67 0 min 0,000 mm 0,0 UV-I 18 W/m -0,3 C 0,1 C 0,0 km/h (0 Bft) 97,87 %
01.12.2018 08:38 0,1 C 3,3 C 0,0 C 97 % 1020,1 hPa 0,0 l/m 0,0 km/h (0 Bft) O-NO 67 0 min 0,000 mm 0,0 UV-I 19 W/m -0,3 C 0,1 C 0,0 km/h (0 Bft) 97,87 %
01.12.2018 08:40 0,1 C 3,3 C 0,0 C 97 % 1020,1 hPa 0,0 l/m 0,0 km/h (0 Bft) O-NO 67 0 min 0,000 mm 0,0 UV-I 19 W/m -0,3 C 0,1 C 0,0 km/h (0 Bft) 97,37 %
01.12.2018 08:42 0,1 C 3,3 C 0,0 C 97 % 1020,1 hPa 0,0 l/m 0,0 km/h (0 Bft) O-NO 67 0 min 0,000 mm 0,0 UV-I 18 W/m -0,3 C 0,1 C 0,0 km/h (0 Bft) 98,00 %
01.12.2018 08:44 0,1 C 3,3 C 0,0 C 97 % 1020,1 hPa 0,0 l/m 0,0 km/h (0 Bft) O-NO 67 0 min 0,000 mm 0,0 UV-I 19 W/m -0,3 C 0,1 C 0,0 km/h (0 Bft) 97,87 %
01.12.2018 08:46 0,1 C 3,3 C 0,0 C 97 % 1020,1 hPa 0,0 l/m 0,0 km/h (0 Bft) O-NO 67 0 min 0,000 mm 0,0 UV-I 19 W/m -0,3 C 0,1 C 0,0 km/h (0 Bft) 98,11 %
01.12.2018 08:48 0,1 C 3,3 C 0,0 C 97 % 1020,1 hPa 0,0 l/m 0,0 km/h (0 Bft) O-NO 67 0 min 0,000 mm 0,0 UV-I 19 W/m -0,3 C 0,1 C 0,0 km/h (0 Bft) 94,74 %
01.12.2018 08:50 0,1 C 3,3 C 0,0 C 97 % 1020,1 hPa 0,0 l/m 0,0 km/h (0 Bft) O-NO 67 0 min 0,000 mm 0,0 UV-I 19 W/m -0,3 C 0,1 C 0,0 km/h (0 Bft) 98,00 %
01.12.2018 08:52 0,2 C 3,3 C 0,0 C 97 % 1020,2 hPa 0,0 l/m 0,0 km/h (0 Bft) O-NO 67 0 min 0,000 mm 0,0 UV-I 18 W/m -0,2 C 0,2 C 0,0 km/h (0 Bft) 97,87 %
01.12.2018 08:54 0,2 C 3,3 C 0,0 C 97 % 1020,2 hPa 0,0 l/m 0,0 km/h (0 Bft) O-NO 67 0 min 0,000 mm 0,0 UV-I 17 W/m -0,2 C 0,2 C 0,0 km/h (0 Bft) 95,74 %
01.12.2018 08:56 0,2 C 3,3 C 0,0 C 97 % 1020,3 hPa 0,0 l/m 0,0 km/h (0 Bft) O-NO 67 0 min 0,000 mm 0,0 UV-I 16 W/m -0,2 C 0,2 C 0,0 km/h (0 Bft) 93,62 %
01.12.2018 08:58 0,2 C 3,3 C 0,0 C 97 % 1020,2 hPa 0,0 l/m 0,0 km/h (0 Bft) O-NO 67 0 min 0,000 mm 0,0 UV-I 16 W/m -0,2 C 0,2 C 0,0 km/h (0 Bft) 95,74 %
01.12.2018 09:00 0,2 C 3,3 C 0,0 C 97 % 1020,3 hPa 0,0 l/m 0,0 km/h (0 Bft) O-NO 67 0 min 0,000 mm 0,0 UV-I 16 W/m -0,2 C 0,2 C 0,0 km/h (0 Bft) 95,74 %
01.12.2018 09:02 0,2 C 3,3 C 0,0 C 97 % 1020,3 hPa 0,0 l/m 0,0 km/h (0 Bft) O-NO 67 0 min 0,000 mm 0,0 UV-I 16 W/m -0,2 C 0,2 C 0,0 km/h (0 Bft) 94,87 %
01.12.2018 09:04 0,2 C 3,3 C 0,0 C 97 % 1020,3 hPa 0,0 l/m 0,0 km/h (0 Bft) O-NO 67 0 min 0,000 mm 0,0 UV-I 16 W/m -0,2 C 0,2 C 0,0 km/h (0 Bft) 96,00 %
01.12.2018 09:06 0,2 C 3,3 C 0,0 C 97 % 1020,4 hPa 0,0 l/m 0,0 km/h (0 Bft) O-NO 67 0 min 0,000 mm 0,0 UV-I 16 W/m -0,2 C 0,2 C 0,0 km/h (0 Bft) 93,62 %
01.12.2018 09:08 0,2 C 3,3 C 0,0 C 97 % 1020,4 hPa 0,0 l/m 0,0 km/h (0 Bft) O-NO 67 0 min 0,000 mm 0,0 UV-I 18 W/m -0,2 C 0,2 C 0,0 km/h (0 Bft) 95,74 %
01.12.2018 09:10 0,2 C 3,3 C 0,0 C 97 % 1020,4 hPa 0,0 l/m 0,0 km/h (0 Bft) O-NO 67 0 min 0,000 mm 0,0 UV-I 19 W/m -0,2 C 0,2 C 0,0 km/h (0 Bft) 93,62 %
01.12.2018 09:12 0,2 C 3,3 C 0,0 C 97 % 1020,5 hPa 0,0 l/m 0,0 km/h (0 Bft) O-NO 67 0 min 0,000 mm 0,0 UV-I 19 W/m -0,2 C 0,2 C 0,0 km/h (0 Bft) 93,62 %
01.12.2018 09:14 0,2 C 3,3 C 0,0 C 97 % 1020,5 hPa 0,0 l/m 0,0 km/h (0 Bft) O-NO 67 0 min 0,000 mm 0,0 UV-I 20 W/m -0,2 C 0,2 C 0,0 km/h (0 Bft) 92,00 %
01.12.2018 09:16 0,2 C 3,3 C 0,0 C 97 % 1020,4 hPa 0,0 l/m 1,6 km/h (1 Bft) O-NO 67 0 min 0,000 mm 0,0 UV-I 24 W/m -0,2 C 0,2 C 3,2 km/h (1 Bft) 90,57 %
01.12.2018 09:18 0,2 C 3,3 C 0,0 C 97 % 1020,5 hPa 0,0 l/m 2,5 km/h (1 Bft) O-NO 67 0 min 0,000 mm 0,0 UV-I 25 W/m -0,2 C 0,2 C 3,2 km/h (1 Bft) 91,49 %
01.12.2018 09:20 0,2 C 3,3 C 0,0 C 97 % 1020,5 hPa 0,0 l/m 2,4 km/h (1 Bft) O-NO 67 0 min 0,000 mm 0,0 UV-I 25 W/m -0,2 C 0,2 C 3,2 km/h (1 Bft) 97,14 %
01.12.2018 09:22 0,2 C 3,3 C 0,0 C 97 % 1020,5 hPa 0,0 l/m 2,1 km/h (1 Bft) O-NO 67 0 min 0,000 mm 0,0 UV-I 28 W/m -0,2 C 0,2 C 3,2 km/h (1 Bft) 93,62 %
01.12.2018 09:24 0,2 C 3,3 C 0,0 C 97 % 1020,5 hPa 0,0 l/m 2,7 km/h (1 Bft) O-NO 67 0 min 0,000 mm 0,0 UV-I 28 W/m -0,2 C 0,2 C 3,2 km/h (1 Bft) 94,00 %
01.12.2018 09:26 0,2 C 3,3 C 0,0 C 97 % 1020,5 hPa 0,0 l/m 2,0 km/h (1 Bft) O-NO 67 0 min 0,000 mm 0,0 UV-I 29 W/m -0,2 C 0,2 C 3,2 km/h (1 Bft) 96,00 %
01.12.2018 09:28 0,2 C 3,3 C 0,0 C 97 % 1020,6 hPa 0,0 l/m 1,9 km/h (1 Bft) O-NO 67 0 min 0,000 mm 0,0 UV-I 34 W/m -0,2 C 0,2 C 3,2 km/h (1 Bft) 94,29 %
01.12.2018 09:30 0,2 C 3,3 C 0,0 C 97 % 1020,5 hPa 0,0 l/m 2,9 km/h (1 Bft) SO 145 0 min 0,000 mm 0,0 UV-I 37 W/m -0,2 C 0,2 C 4,8 km/h (1 Bft) 96,61 %
01.12.2018 09:32 0,2 C 3,3 C 0,0 C 97 % 1020,5 hPa 0,0 l/m 2,1 km/h (1 Bft) SO 145 0 min 0,000 mm 0,0 UV-I 36 W/m -0,2 C 0,2 C 3,2 km/h (1 Bft) 95,12 %
01.12.2018 09:34 0,2 C 3,3 C 0,0 C 97 % 1020,6 hPa 0,0 l/m 2,0 km/h (1 Bft) SO 145 0 min 0,000 mm 0,0 UV-I 33 W/m -0,2 C 0,2 C 3,2 km/h (1 Bft) 93,62 %
01.12.2018 09:36 0,2 C 3,3 C 0,0 C 97 % 1020,6 hPa 0,0 l/m 2,3 km/h (1 Bft) SO 145 0 min 0,000 mm 0,0 UV-I 31 W/m -0,2 C 0,2 C 3,2 km/h (1 Bft) 92,00 %
01.12.2018 09:38 0,2 C 3,3 C 0,0 C 97 % 1020,6 hPa 0,0 l/m 2,7 km/h (1 Bft) SO 145 0 min 0,000 mm 0,0 UV-I 32 W/m -0,2 C 0,2 C 3,2 km/h (1 Bft) 94,00 %
01.12.2018 09:40 0,2 C 3,3 C 0,0 C 97 % 1020,6 hPa 0,0 l/m 2,1 km/h (1 Bft) SO 145 0 min 0,000 mm 0,0 UV-I 36 W/m -0,2 C 0,2 C 3,2 km/h (1 Bft) 93,62 %
01.12.2018 09:42 0,2 C 3,3 C 0,0 C 97 % 1020,6 hPa 0,0 l/m 3,1 km/h (1 Bft) S-SO 154 0 min 0,000 mm 0,0 UV-I 34 W/m -0,2 C 0,2 C 4,8 km/h (1 Bft) 98,00 %
01.12.2018 09:44 0,3 C 3,3 C 0,0 C 97 % 1020,6 hPa 0,0 l/m 2,7 km/h (1 Bft) S-SO 154 0 min 0,000 mm 0,0 UV-I 34 W/m -0,1 C 0,3 C 4,8 km/h (1 Bft) 100,00 %
01.12.2018 09:46 0,3 C 3,3 C 0,0 C 97 % 1020,6 hPa 0,0 l/m 2,5 km/h (1 Bft) S-SO 154 0 min 0,000 mm 0,0 UV-I 37 W/m -0,1 C 0,3 C 3,2 km/h (1 Bft) 100,00 %
01.12.2018 09:48 0,3 C 3,3 C 0,0 C 98 % 1020,6 hPa 0,0 l/m 1,9 km/h (1 Bft) S-SO 154 0 min 0,000 mm 0,0 UV-I 43 W/m 0,0 C 0,3 C 3,2 km/h (1 Bft) 97,37 %
01.12.2018 09:50 0,3 C 3,3 C 0,0 C 98 % 1020,6 hPa 0,0 l/m 2,3 km/h (1 Bft) S-SO 154 0 min 0,000 mm 0,0 UV-I 55 W/m 0,0 C 0,3 C 4,8 km/h (1 Bft) 100,00 %
01.12.2018 09:52 0,3 C 3,3 C 0,0 C 98 % 1020,7 hPa 0,0 l/m 2,2 km/h (1 Bft) S-SO 154 0 min 0,000 mm 0,0 UV-I 64 W/m 0,0 C 0,3 C 3,2 km/h (1 Bft) 98,11 %
01.12.2018 09:54 0,3 C 3,3 C 0,0 C 98 % 1020,7 hPa 0,0 l/m 2,1 km/h (1 Bft) S-SO 154 0 min 0,000 mm 0,0 UV-I 67 W/m 0,0 C 0,3 C 3,2 km/h (1 Bft) 100,00 %
01.12.2018 09:56 0,3 C 3,3 C 0,0 C 98 % 1020,7 hPa 0,0 l/m 2,7 km/h (1 Bft) S-SO 154 0 min 0,000 mm 0,0 UV-I 73 W/m 0,0 C 0,3 C 3,2 km/h (1 Bft) 100,00 %
01.12.2018 09:58 0,3 C 3,3 C 0,0 C 98 % 1020,7 hPa 0,0 l/m 2,3 km/h (1 Bft) S-SO 154 0 min 0,000 mm 0,0 UV-I 78 W/m 0,0 C 0,3 C 4,8 km/h (1 Bft) 100,00 %
01.12.2018 10:00 0,3 C 3,3 C 0,0 C 98 % 1020,8 hPa 0,0 l/m 2,0 km/h (1 Bft) S-SO 154 0 min 0,000 mm 0,0 UV-I 63 W/m 0,0 C 0,3 C 3,2 km/h (1 Bft) 100,00 %
01.12.2018 10:02 0,3 C 3,3 C 0,0 C 98 % 1020,8 hPa 0,0 l/m 0,6 km/h (0 Bft) S-SO 154 0 min 0,000 mm 0,0 UV-I 52 W/m 0,0 C 0,3 C 1,6 km/h (1 Bft) 100,00 %
01.12.2018 10:04 0,4 C 3,3 C 0,0 C 98 % 1020,8 hPa 0,0 l/m 0,8 km/h (0 Bft) S-SO 154 0 min 0,000 mm 0,0 UV-I 48 W/m 0,1 C 0,4 C 1,6 km/h (1 Bft) 100,00 %
01.12.2018 10:06 0,4 C 3,3 C 0,0 C 98 % 1020,8 hPa 0,0 l/m 0,8 km/h (0 Bft) S-SO 154 0 min 0,000 mm 0,0 UV-I 47 W/m 0,1 C 0,4 C 1,6 km/h (1 Bft) 97,37 %
01.12.2018 10:08 0,3 C 3,3 C 0,0 C 98 % 1020,7 hPa 0,0 l/m 0,3 km/h (0 Bft) S-SO 154 0 min 0,000 mm 0,0 UV-I 50 W/m 0,0 C 0,3 C 1,6 km/h (1 Bft) 98,00 %
01.12.2018 10:10 0,3 C 3,3 C 0,0 C 98 % 1020,7 hPa 0,0 l/m 1,7 km/h (1 Bft) S-SO 154 0 min 0,000 mm 0,0 UV-I 55 W/m 0,0 C 0,3 C 3,2 km/h (1 Bft) 98,00 %
01.12.2018 10:12 0,4 C 3,3 C 0,0 C 98 % 1020,7 hPa 0,0 l/m 2,5 km/h (1 Bft) S-SO 154 0 min 0,000 mm 0,0 UV-I 63 W/m 0,1 C 0,4 C 4,8 km/h (1 Bft) 97,73 %
01.12.2018 10:14 0,4 C 3,3 C 0,0 C 98 % 1020,8 hPa 0,0 l/m 2,9 km/h (1 Bft) S 175 0 min 0,000 mm 0,0 UV-I 58 W/m 0,1 C 0,4 C 4,8 km/h (1 Bft) 97,62 %
01.12.2018 10:16 0,4 C 3,3 C 0,0 C 98 % 1020,8 hPa 0,0 l/m 1,7 km/h (1 Bft) S 175 0 min 0,000 mm 0,0 UV-I 54 W/m 0,1 C 0,4 C 3,2 km/h (1 Bft) 98,00 %
01.12.2018 10:18 0,4 C 3,3 C 0,0 C 98 % 1020,9 hPa 0,0 l/m 2,0 km/h (1 Bft) S 175 0 min 0,000 mm 0,0 UV-I 48 W/m 0,1 C 0,4 C 3,2 km/h (1 Bft) 95,74 %
01.12.2018 10:20 0,4 C 3,3 C 0,0 C 98 % 1020,8 hPa 0,0 l/m 2,5 km/h (1 Bft) S 175 0 min 0,000 mm 0,0 UV-I 48 W/m 0,1 C 0,4 C 3,2 km/h (1 Bft) 96,00 %
01.12.2018 10:22 0,4 C 3,3 C 0,0 C 98 % 1020,8 hPa 0,0 l/m 2,4 km/h (1 Bft) S 175 0 min 0,000 mm 0,0 UV-I 46 W/m 0,1 C 0,4 C 3,2 km/h (1 Bft) 97,56 %
01.12.2018 10:24 0,4 C 3,3 C 0,0 C 98 % 1020,8 hPa 0,0 l/m 2,6 km/h (1 Bft) S 175 0 min 0,000 mm 0,0 UV-I 47 W/m 0,1 C 0,4 C 4,8 km/h (1 Bft) 98,00 %
01.12.2018 10:26 0,4 C 3,3 C 0,0 C 97 % 1020,8 hPa 0,0 l/m 2,6 km/h (1 Bft) S 175 0 min 0,000 mm 0,0 UV-I 53 W/m -0,0 C 0,4 C 3,2 km/h (1 Bft) 97,87 %
01.12.2018 10:28 0,4 C 3,3 C 0,0 C 97 % 1020,8 hPa 0,0 l/m 2,3 km/h (1 Bft) S 175 0 min 0,000 mm 0,0 UV-I 57 W/m -0,0 C 0,4 C 3,2 km/h (1 Bft) 100,00 %
01.12.2018 10:30 0,5 C 3,3 C 0,0 C 97 % 1020,8 hPa 0,0 l/m 1,3 km/h (1 Bft) S 175 0 min 0,000 mm 0,0 UV-I 56 W/m 0,1 C 0,5 C 1,6 km/h (1 Bft) 98,11 %
01.12.2018 10:32 0,5 C 3,3 C 0,0 C 97 % 1020,9 hPa 0,0 l/m 1,7 km/h (1 Bft) S 175 0 min 0,000 mm 0,0 UV-I 56 W/m 0,1 C 0,5 C 3,2 km/h (1 Bft) 97,87 %
01.12.2018 10:34 0,5 C 3,3 C 0,0 C 97 % 1020,8 hPa 0,0 l/m 2,0 km/h (1 Bft) S 175 0 min 0,000 mm 0,0 UV-I 52 W/m 0,1 C 0,5 C 3,2 km/h (1 Bft) 100,00 %
01.12.2018 10:36 0,5 C 3,3 C 0,0 C 97 % 1020,8 hPa 0,0 l/m 2,4 km/h (1 Bft) S 175 0 min 0,000 mm 0,0 UV-I 47 W/m 0,1 C 0,5 C 3,2 km/h (1 Bft) 100,00 %
01.12.2018 10:38 0,5 C 3,3 C 0,0 C 97 % 1020,8 hPa 0,0 l/m 2,2 km/h (1 Bft) S 175 0 min 0,000 mm 0,0 UV-I 44 W/m 0,1 C 0,5 C 3,2 km/h (1 Bft) 98,00 %
01.12.2018 10:40 0,5 C 3,3 C 0,0 C 97 % 1020,8 hPa 0,0 l/m 2,4 km/h (1 Bft) S 175 0 min 0,000 mm 0,0 UV-I 45 W/m 0,1 C 0,5 C 3,2 km/h (1 Bft) 100,00 %
01.12.2018 10:42 0,5 C 3,3 C 0,0 C 98 % 1020,8 hPa 0,0 l/m 2,0 km/h (1 Bft) S 175 0 min 0,000 mm 0,0 UV-I 50 W/m 0,2 C 0,5 C 3,2 km/h (1 Bft) 100,00 %
01.12.2018 10:44 0,5 C 3,3 C 0,0 C 98 % 1020,7 hPa 0,0 l/m 1,9 km/h (1 Bft) S 175 0 min 0,000 mm 0,0 UV-I 53 W/m 0,2 C 0,5 C 3,2 km/h (1 Bft) 98,00 %
01.12.2018 10:46 0,5 C 3,3 C 0,0 C 98 % 1020,7 hPa 0,0 l/m 1,4 km/h (1 Bft) S 175 0 min 0,000 mm 0,0 UV-I 75 W/m 0,2 C 0,5 C 1,6 km/h (1 Bft) 100,00 %
01.12.2018 10:48 0,6 C 3,3 C 0,0 C 97 % 1020,6 hPa 0,0 l/m 1,8 km/h (1 Bft) S 175 0 min 0,000 mm 0,0 UV-I 108 W/m 0,2 C 0,6 C 3,2 km/h (1 Bft) 100,00 %
01.12.2018 10:50 0,6 C 3,3 C 0,0 C 97 % 1020,6 hPa 0,0 l/m 2,1 km/h (1 Bft) S 175 0 min 0,000 mm 0,0 UV-I 115 W/m 0,2 C 0,6 C 3,2 km/h (1 Bft) 98,00 %
01.12.2018 10:52 0,6 C 3,3 C 0,0 C 98 % 1020,7 hPa 0,0 l/m 2,7 km/h (1 Bft) S 175 0 min 0,000 mm 0,0 UV-I 108 W/m 0,3 C 0,6 C 3,2 km/h (1 Bft) 98,00 %
01.12.2018 10:54 0,7 C 3,3 C 0,0 C 98 % 1020,7 hPa 0,0 l/m 2,7 km/h (1 Bft) S 175 0 min 0,000 mm 0,0 UV-I 92 W/m 0,4 C 0,7 C 3,2 km/h (1 Bft) 100,00 %
01.12.2018 10:56 0,6 C 3,3 C 0,0 C 98 % 1020,7 hPa 0,0 l/m 2,1 km/h (1 Bft) S 175 0 min 0,000 mm 0,0 UV-I 86 W/m 0,3 C 0,6 C 3,2 km/h (1 Bft) 100,00 %
01.12.2018 10:58 0,6 C 3,3 C 0,0 C 98 % 1020,7 hPa 0,0 l/m 2,4 km/h (1 Bft) S 175 0 min 0,000 mm 0,0 UV-I 84 W/m 0,3 C 0,6 C 3,2 km/h (1 Bft) 100,00 %
01.12.2018 11:00 0,6 C 3,3 C 0,0 C 98 % 1020,6 hPa 0,0 l/m 2,1 km/h (1 Bft) S 175 0 min 0,025 mm 0,0 UV-I 94 W/m 0,3 C 0,6 C 3,2 km/h (1 Bft) 98,00 %
01.12.2018 11:02 0,6 C 3,3 C 0,0 C 97 % 1020,6 hPa 0,0 l/m 2,3 km/h (1 Bft) S 175 0 min 0,000 mm 0,0 UV-I 94 W/m 0,2 C 0,6 C 3,2 km/h (1 Bft) 100,00 %
01.12.2018 11:04 0,6 C 3,3 C 0,0 C 97 % 1020,5 hPa 0,0 l/m 1,6 km/h (1 Bft) S 175 0 min 0,000 mm 0,0 UV-I 88 W/m 0,2 C 0,6 C 3,2 km/h (1 Bft) 100,00 %
01.12.2018 11:06 0,6 C 3,3 C 0,0 C 98 % 1020,6 hPa 0,0 l/m 2,0 km/h (1 Bft) S 175 0 min 0,000 mm 0,0 UV-I 81 W/m 0,3 C 0,6 C 3,2 km/h (1 Bft) 98,00 %
01.12.2018 11:08 0,7 C 3,3 C 0,0 C 98 % 1020,6 hPa 0,0 l/m 2,0 km/h (1 Bft) S 175 0 min 0,000 mm 0,0 UV-I 78 W/m 0,4 C 0,7 C 3,2 km/h (1 Bft) 97,37 %
01.12.2018 11:10 0,7 C 3,3 C 0,0 C 98 % 1020,6 hPa 0,0 l/m 1,7 km/h (1 Bft) S 175 0 min 0,000 mm 0,0 UV-I 90 W/m 0,4 C 0,7 C 3,2 km/h (1 Bft) 98,11 %
01.12.2018 11:12 0,7 C 3,3 C 0,0 C 98 % 1020,6 hPa 0,0 l/m 1,4 km/h (1 Bft) S 175 0 min 0,000 mm 0,0 UV-I 98 W/m 0,4 C 0,7 C 1,6 km/h (1 Bft) 91,49 %
01.12.2018 11:14 0,7 C 3,3 C 0,0 C 98 % 1020,6 hPa 0,0 l/m 1,4 km/h (1 Bft) S 175 0 min 0,000 mm 0,0 UV-I 105 W/m 0,4 C 0,7 C 3,2 km/h (1 Bft) 97,87 %
01.12.2018 11:16 0,8 C 3,3 C 0,0 C 98 % 1020,6 hPa 0,0 l/m 1,0 km/h (0 Bft) S 175 0 min 0,000 mm 0,0 UV-I 104 W/m 0,5 C 0,8 C 1,6 km/h (1 Bft) 97,87 %
01.12.2018 11:18 0,8 C 3,3 C 0,0 C 98 % 1020,5 hPa 0,0 l/m 1,5 km/h (1 Bft) S 175 0 min 0,000 mm 0,0 UV-I 98 W/m 0,5 C 0,8 C 3,2 km/h (1 Bft) 95,74 %
01.12.2018 11:20 0,8 C 3,3 C 0,0 C 98 % 1020,5 hPa 0,0 l/m 0,9 km/h (0 Bft) S 175 0 min 0,000 mm 0,0 UV-I 95 W/m 0,5 C 0,8 C 1,6 km/h (1 Bft) 98,00 %
01.12.2018 11:22 0,8 C 3,3 C 0,0 C 98 % 1020,5 hPa 0,0 l/m 1,3 km/h (1 Bft) S 175 0 min 0,000 mm 0,0 UV-I 102 W/m 0,5 C 0,8 C 3,2 km/h (1 Bft) 96,00 %
01.12.2018 11:24 0,8 C 3,3 C 0,0 C 98 % 1020,5 hPa 0,0 l/m 1,1 km/h (1 Bft) S 175 0 min 0,000 mm 0,0 UV-I 108 W/m 0,5 C 0,8 C 1,6 km/h (1 Bft) 94,74 %
01.12.2018 11:26 0,8 C 3,3 C 0,0 C 98 % 1020,4 hPa 0,0 l/m 0,5 km/h (0 Bft) S 175 0 min 0,000 mm 0,0 UV-I 108 W/m 0,5 C 0,8 C 1,6 km/h (1 Bft) 94,00 %
01.12.2018 11:28 0,8 C 3,3 C 0,0 C 98 % 1020,4 hPa 0,0 l/m 1,4 km/h (1 Bft) S 175 0 min 0,000 mm 0,0 UV-I 105 W/m 0,5 C 0,8 C 3,2 km/h (1 Bft) 96,00 %
01.12.2018 11:30 0,8 C 3,3 C 0,0 C 98 % 1020,4 hPa 0,0 l/m 1,3 km/h (1 Bft) S 175 0 min 0,000 mm 0,0 UV-I 108 W/m 0,5 C 0,8 C 1,6 km/h (1 Bft) 97,87 %
01.12.2018 11:32 0,8 C 3,3 C 0,0 C 98 % 1020,4 hPa 0,0 l/m 1,0 km/h (0 Bft) S 175 0 min 0,000 mm 0,0 UV-I 106 W/m 0,5 C 0,8 C 3,2 km/h (1 Bft) 94,00 %
01.12.2018 11:34 0,8 C 3,3 C 0,0 C 98 % 1020,4 hPa 0,0 l/m 0,7 km/h (0 Bft) S 175 0 min 0,000 mm 0,0 UV-I 96 W/m 0,5 C 0,8 C 1,6 km/h (1 Bft) 97,22 %
01.12.2018 11:36 0,8 C 3,3 C 0,0 C 98 % 1020,3 hPa 0,0 l/m 0,5 km/h (0 Bft) S 175 0 min 0,000 mm 0,0 UV-I 94 W/m 0,5 C 0,8 C 1,6 km/h (1 Bft) 94,55 %
01.12.2018 11:38 0,8 C 3,3 C 0,0 C 98 % 1020,2 hPa 0,0 l/m 0,0 km/h (0 Bft) S 175 0 min 0,000 mm 0,0 UV-I 98 W/m 0,5 C 0,8 C 0,0 km/h (0 Bft) 97,44 %
01.12.2018 11:40 0,9 C 3,3 C 0,0 C 98 % 1020,3 hPa 0,0 l/m 0,2 km/h (0 Bft) S 175 0 min 0,000 mm 0,0 UV-I 98 W/m 0,6 C 0,9 C 1,6 km/h (1 Bft) 95,74 %
01.12.2018 11:42 0,9 C 3,3 C 0,0 C 98 % 1020,2 hPa 0,0 l/m 1,2 km/h (1 Bft) S 175 0 min 0,000 mm 0,0 UV-I 100 W/m 0,6 C 0,9 C 1,6 km/h (1 Bft) 96,00 %
01.12.2018 11:44 0,9 C 3,3 C 0,0 C 98 % 1020,2 hPa 0,0 l/m 0,0 km/h (0 Bft) S 175 0 min 0,000 mm 0,0 UV-I 106 W/m 0,6 C 0,9 C 0,0 km/h (0 Bft) 95,74 %
01.12.2018 11:46 0,9 C 3,3 C 0,0 C 98 % 1020,2 hPa 0,0 l/m 0,3 km/h (0 Bft) S 175 0 min 0,000 mm 0,0 UV-I 112 W/m 0,6 C 0,9 C 1,6 km/h (1 Bft) 100,00 %
01.12.2018 11:48 0,9 C 3,3 C 0,6 C 98 % 1020,1 hPa 0,0 l/m 0,1 km/h (0 Bft) S 175 0 min 0,000 mm 0,0 UV-I 125 W/m 0,6 C 0,9 C 1,6 km/h (1 Bft) 94,74 %
01.12.2018 11:50 0,9 C 3,3 C 0,6 C 97 % 1020,1 hPa 0,0 l/m 0,3 km/h (0 Bft) S 175 0 min 0,000 mm 0,0 UV-I 143 W/m 0,5 C 0,9 C 1,6 km/h (1 Bft) 100,00 %
01.12.2018 11:52 0,9 C 3,3 C 0,6 C 98 % 1020,1 hPa 0,0 l/m 0,9 km/h (0 Bft) S 175 0 min 0,000 mm 0,0 UV-I 152 W/m 0,6 C 0,9 C 3,2 km/h (1 Bft) 100,00 %
01.12.2018 11:54 1,0 C 3,3 C 0,6 C 98 % 1020,1 hPa 0,0 l/m 0,1 km/h (0 Bft) S 175 0 min 0,000 mm 0,0 UV-I 139 W/m 0,7 C 1,0 C 1,6 km/h (1 Bft) 100,00 %
01.12.2018 11:56 1,1 C 3,3 C 0,6 C 98 % 1020,0 hPa 0,0 l/m 0,4 km/h (0 Bft) S 175 0 min 0,000 mm 0,0 UV-I 134 W/m 0,8 C 1,1 C 1,6 km/h (1 Bft) 100,00 %
01.12.2018 11:58 1,0 C 3,3 C 0,6 C 98 % 1020,0 hPa 0,0 l/m 0,0 km/h (0 Bft) S 175 0 min 0,000 mm 0,0 UV-I 133 W/m 0,7 C 1,0 C 0,0 km/h (0 Bft) 100,00 %
01.12.2018 12:00 1,0 C 3,3 C 0,0 C 98 % 1020,0 hPa 0,0 l/m 0,0 km/h (0 Bft) S 175 0 min 0,026 mm 0,0 UV-I 119 W/m 0,7 C 1,0 C 0,0 km/h (0 Bft) 100,00 %
01.12.2018 12:02 1,1 C 3,3 C 0,0 C 98 % 1020,0 hPa 0,0 l/m 0,0 km/h (0 Bft) S 175 0 min 0,000 mm 0,0 UV-I 103 W/m 0,8 C 1,1 C 0,0 km/h (0 Bft) 100,00 %
01.12.2018 12:04 1,1 C 3,3 C 0,0 C 98 % 1019,9 hPa 0,0 l/m 0,6 km/h (0 Bft) S 175 0 min 0,000 mm 0,0 UV-I 94 W/m 0,8 C 1,1 C 3,2 km/h (1 Bft) 97,87 %
01.12.2018 12:06 1,1 C 3,3 C 0,0 C 97 % 1019,9 hPa 0,0 l/m 1,6 km/h (1 Bft) S 175 0 min 0,000 mm 0,0 UV-I 83 W/m 0,7 C 1,1 C 3,2 km/h (1 Bft) 100,00 %
01.12.2018 12:08 1,1 C 3,3 C 0,0 C 97 % 1019,9 hPa 0,0 l/m 1,0 km/h (0 Bft) S 175 0 min 0,000 mm 0,0 UV-I 74 W/m 0,7 C 1,1 C 3,2 km/h (1 Bft) 100,00 %
01.12.2018 12:10 1,1 C 3,3 C 0,0 C 97 % 1020,0 hPa 0,0 l/m 0,0 km/h (0 Bft) S 175 0 min 0,000 mm 0,0 UV-I 63 W/m 0,7 C 1,1 C 0,0 km/h (0 Bft) 100,00 %
01.12.2018 12:12 1,1 C 3,3 C 0,0 C 97 % 1019,9 hPa 0,0 l/m 0,0 km/h (0 Bft) S 175 0 min 0,000 mm 0,0 UV-I 57 W/m 0,7 C 1,1 C 0,0 km/h (0 Bft) 100,00 %
01.12.2018 12:14 1,0 C 3,3 C 0,0 C 97 % 1019,9 hPa 0,0 l/m 0,0 km/h (0 Bft) S 175 0 min 0,000 mm 0,0 UV-I 64 W/m 0,6 C 1,0 C 0,0 km/h (0 Bft) 100,00 %
01.12.2018 12:16 1,1 C 3,3 C 0,0 C 97 % 1019,9 hPa 0,0 l/m 0,0 km/h (0 Bft) S 175 0 min 0,000 mm 0,0 UV-I 75 W/m 0,7 C 1,1 C 0,0 km/h (0 Bft) 100,00 %
01.12.2018 12:18 1,1 C 3,3 C 0,0 C 97 % 1019,9 hPa 0,0 l/m 0,0 km/h (0 Bft) S 175 0 min 0,000 mm 0,0 UV-I 80 W/m 0,7 C 1,1 C 0,0 km/h (0 Bft) 100,00 %
01.12.2018 12:20 1,2 C 3,3 C 0,0 C 97 % 1019,9 hPa 0,0 l/m 0,0 km/h (0 Bft) S 175 0 min 0,000 mm 0,0 UV-I 80 W/m 0,8 C 1,2 C 0,0 km/h (0 Bft) 98,00 %
01.12.2018 12:22 1,2 C 3,3 C 0,0 C 97 % 1019,8 hPa 0,0 l/m 0,0 km/h (0 Bft) S 175 0 min 0,000 mm 0,0 UV-I 84 W/m 0,8 C 1,2 C 0,0 km/h (0 Bft) 100,00 %
01.12.2018 12:24 1,3 C 3,3 C 0,0 C 98 % 1019,9 hPa 0,0 l/m 0,0 km/h (0 Bft) S 175 0 min 0,000 mm 0,0 UV-I 98 W/m 1,0 C 1,3 C 0,0 km/h (0 Bft) 100,00 %
01.12.2018 12:26 1,2 C 3,3 C 0,0 C 98 % 1019,9 hPa 0,0 l/m 0,0 km/h (0 Bft) S 175 0 min 0,000 mm 0,0 UV-I 108 W/m 0,9 C 1,2 C 0,0 km/h (0 Bft) 95,74 %
01.12.2018 12:28 1,1 C 3,3 C 0,0 C 97 % 1019,9 hPa 0,0 l/m 0,0 km/h (0 Bft) S 175 0 min 0,000 mm 0,0 UV-I 104 W/m 0,7 C 1,1 C 0,0 km/h (0 Bft) 100,00 %
01.12.2018 12:30 1,1 C 3,3 C 0,0 C 97 % 1019,9 hPa 0,0 l/m 0,0 km/h (0 Bft) S 175 0 min 0,000 mm 0,0 UV-I 104 W/m 0,7 C 1,1 C 0,0 km/h (0 Bft) 100,00 %
01.12.2018 12:32 1,1 C 3,3 C 0,0 C 97 % 1019,9 hPa 0,0 l/m 0,0 km/h (0 Bft) S 175 0 min 0,000 mm 0,0 UV-I 93 W/m 0,7 C 1,1 C 0,0 km/h (0 Bft) 97,87 %
01.12.2018 12:34 1,1 C 3,3 C 0,0 C 97 % 1019,9 hPa 0,0 l/m 0,0 km/h (0 Bft) S 175 0 min 0,000 mm 0,0 UV-I 81 W/m 0,7 C 1,1 C 0,0 km/h (0 Bft) 100,00 %
01.12.2018 12:36 1,2 C 3,3 C 0,0 C 97 % 1020,0 hPa 0,0 l/m 0,0 km/h (0 Bft) S 175 0 min 0,000 mm 0,0 UV-I 68 W/m 0,8 C 1,2 C 0,0 km/h (0 Bft) 100,00 %
01.12.2018 12:38 1,1 C 3,3 C 0,0 C 97 % 1020,0 hPa 0,0 l/m 0,0 km/h (0 Bft) S 175 0 min 0,000 mm 0,0 UV-I 54 W/m 0,7 C 1,1 C 0,0 km/h (0 Bft) 95,45 %
01.12.2018 12:40 1,1 C 3,3 C 0,0 C 97 % 1020,0 hPa 0,0 l/m 0,0 km/h (0 Bft) S 175 0 min 0,000 mm 0,0 UV-I 50 W/m 0,7 C 1,1 C 0,0 km/h (0 Bft) 97,87 %
01.12.2018 12:46 1,0 C 3,3 C 0,0 C 97 % 1019,9 hPa 0,0 l/m 0,0 km/h (0 Bft) S 175 0 min 0,000 mm 0,0 UV-I 55 W/m 0,6 C 1,0 C 0,0 km/h (0 Bft) 93,55 %
01.12.2018 12:48 1,1 C 3,3 C 0,0 C 97 % 1020,0 hPa 0,0 l/m 0,0 km/h (0 Bft) S 175 0 min 0,000 mm 0,0 UV-I 57 W/m 0,7 C 1,1 C 0,0 km/h (0 Bft) 96,00 %
01.12.2018 12:50 1,1 C 3,3 C 0,0 C 97 % 1020,0 hPa 0,0 l/m 0,0 km/h (0 Bft) S 175 0 min 0,000 mm 0,0 UV-I 55 W/m 0,7 C 1,1 C 0,0 km/h (0 Bft) 97,56 %
01.12.2018 12:52 1,1 C 3,3 C 0,0 C 97 % 1019,9 hPa 0,0 l/m 0,0 km/h (0 Bft) S 175 0 min 0,000 mm 0,0 UV-I 62 W/m 0,7 C 1,1 C 0,0 km/h (0 Bft) 97,87 %
01.12.2018 12:54 1,1 C 3,3 C 0,0 C 97 % 1019,8 hPa 0,0 l/m 0,0 km/h (0 Bft) S 175 0 min 0,000 mm 0,0 UV-I 65 W/m 0,7 C 1,1 C 0,0 km/h (0 Bft) 98,11 %
01.12.2018 12:56 1,1 C 3,3 C 0,0 C 97 % 1019,9 hPa 0,0 l/m 0,0 km/h (0 Bft) S 175 0 min 0,000 mm 0,0 UV-I 67 W/m 0,7 C 1,1 C 0,0 km/h (0 Bft) 97,37 %
01.12.2018 12:58 1,1 C 3,3 C 0,0 C 97 % 1019,9 hPa 0,0 l/m 0,0 km/h (0 Bft) S 175 0 min 0,000 mm 0,0 UV-I 73 W/m 0,7 C 1,1 C 0,0 km/h (0 Bft) 97,87 %
01.12.2018 13:00 1,1 C 3,3 C 0,6 C 97 % 1019,8 hPa 0,0 l/m 0,0 km/h (0 Bft) S 175 0 min 0,025 mm 0,0 UV-I 85 W/m 0,7 C 1,1 C 0,0 km/h (0 Bft) 97,87 %
01.12.2018 13:02 1,2 C 3,3 C 0,6 C 97 % 1019,7 hPa 0,0 l/m 0,0 km/h (0 Bft) S 175 0 min 0,000 mm 0,0 UV-I 82 W/m 0,8 C 1,2 C 0,0 km/h (0 Bft) 92,86 %
01.12.2018 13:04 1,2 C 3,3 C 0,6 C 98 % 1019,7 hPa 0,0 l/m 0,0 km/h (0 Bft) S 175 0 min 0,000 mm 0,0 UV-I 83 W/m 0,9 C 1,2 C 0,0 km/h (0 Bft) 92,68 %
01.12.2018 13:06 1,2 C 3,3 C 0,0 C 98 % 1019,8 hPa 0,0 l/m 0,0 km/h (0 Bft) S 175 0 min 0,000 mm 0,0 UV-I 76 W/m 0,9 C 1,2 C 0,0 km/h (0 Bft) 100,00 %
01.12.2018 13:08 1,3 C 3,3 C 0,6 C 98 % 1019,7 hPa 0,0 l/m 0,0 km/h (0 Bft) S 175 0 min 0,000 mm 0,0 UV-I 80 W/m 1,0 C 1,3 C 0,0 km/h (0 Bft) 97,44 %
01.12.2018 13:10 1,3 C 3,3 C 0,6 C 98 % 1019,7 hPa 0,0 l/m 0,0 km/h (0 Bft) S 175 0 min 0,000 mm 0,0 UV-I 76 W/m 1,0 C 1,3 C 0,0 km/h (0 Bft) 97,37 %
01.12.2018 13:12 1,3 C 3,3 C 0,6 C 98 % 1019,7 hPa 0,0 l/m 0,0 km/h (0 Bft) S 175 0 min 0,000 mm 0,0 UV-I 78 W/m 1,0 C 1,3 C 0,0 km/h (0 Bft) 98,44 %
01.12.2018 13:14 1,2 C 3,3 C 0,6 C 98 % 1019,7 hPa 0,0 l/m 1,2 km/h (1 Bft) S 175 0 min 0,000 mm 0,0 UV-I 89 W/m 0,9 C 1,2 C 4,8 km/h (1 Bft) 97,92 %
01.12.2018 13:16 1,1 C 3,3 C 0,6 C 97 % 1019,6 hPa 0,0 l/m 2,0 km/h (1 Bft) S 175 0 min 0,000 mm 0,0 UV-I 87 W/m 0,7 C 1,1 C 3,2 km/h (1 Bft) 95,45 %
01.12.2018 13:18 1,1 C 3,3 C 0,0 C 97 % 1019,6 hPa 0,0 l/m 2,0 km/h (1 Bft) S 175 0 min 0,000 mm 0,0 UV-I 89 W/m 0,7 C 1,1 C 3,2 km/h (1 Bft) 97,73 %
01.12.2018 13:20 1,1 C 3,3 C 0,0 C 97 % 1019,6 hPa 0,0 l/m 2,4 km/h (1 Bft) S 175 0 min 0,000 mm 0,0 UV-I 93 W/m 0,7 C 1,1 C 3,2 km/h (1 Bft) 94,00 %
01.12.2018 13:22 1,1 C 3,3 C 0,6 C 97 % 1019,6 hPa 0,0 l/m 2,5 km/h (1 Bft) S 175 0 min 0,000 mm 0,0 UV-I 100 W/m 0,7 C 1,1 C 3,2 km/h (1 Bft) 98,00 %
01.12.2018 13:24 1,1 C 3,3 C 0,6 C 97 % 1019,6 hPa 0,0 l/m 2,4 km/h (1 Bft) S 175 0 min 0,000 mm 0,0 UV-I 101 W/m 0,7 C 1,1 C 3,2 km/h (1 Bft) 98,00 %
01.12.2018 13:26 1,1 C 3,3 C 0,6 C 97 % 1019,5 hPa 0,0 l/m 2,4 km/h (1 Bft) S 175 0 min 0,000 mm 0,0 UV-I 110 W/m 0,7 C 1,1 C 3,2 km/h (1 Bft) 97,37 %
01.12.2018 13:28 1,2 C 3,3 C 0,6 C 97 % 1019,5 hPa 0,0 l/m 1,7 km/h (1 Bft) S 175 0 min 0,000 mm 0,0 UV-I 129 W/m 0,8 C 1,2 C 3,2 km/h (1 Bft) 95,74 %
01.12.2018 13:30 1,2 C 3,3 C 0,6 C 97 % 1019,6 hPa 0,0 l/m 1,0 km/h (0 Bft) S 175 0 min 0,000 mm 0,0 UV-I 122 W/m 0,8 C 1,2 C 3,2 km/h (1 Bft) 98,00 %
01.12.2018 13:32 1,3 C 3,3 C 0,6 C 97 % 1019,5 hPa 0,0 l/m 1,7 km/h (1 Bft) S 175 2 min 0,000 mm 0,0 UV-I 161 W/m 0,9 C 1,3 C 3,2 km/h (1 Bft) 97,87 %
01.12.2018 13:34 1,4 C 3,3 C 0,6 C 97 % 1019,5 hPa 0,0 l/m 1,4 km/h (1 Bft) S 175 0 min 0,000 mm 0,0 UV-I 142 W/m 1,0 C 1,4 C 3,2 km/h (1 Bft) 96,23 %
01.12.2018 13:36 1,4 C 3,3 C 1,7 C 97 % 1019,5 hPa 0,0 l/m 1,4 km/h (1 Bft) S 175 0 min 0,000 mm 0,0 UV-I 128 W/m 1,0 C 1,4 C 3,2 km/h (1 Bft) 95,74 %
01.12.2018 13:38 1,3 C 3,3 C 2,2 C 97 % 1019,5 hPa 0,0 l/m 1,4 km/h (1 Bft) S 175 0 min 0,000 mm 0,0 UV-I 104 W/m 0,9 C 1,3 C 3,2 km/h (1 Bft) 97,56 %
01.12.2018 13:40 1,2 C 3,3 C 2,2 C 97 % 1019,4 hPa 0,0 l/m 1,4 km/h (1 Bft) S 175 0 min 0,000 mm 0,0 UV-I 90 W/m 0,8 C 1,2 C 3,2 km/h (1 Bft) 98,00 %
01.12.2018 13:42 1,2 C 3,3 C 1,7 C 97 % 1019,5 hPa 0,0 l/m 1,6 km/h (1 Bft) S 175 0 min 0,000 mm 0,0 UV-I 83 W/m 0,8 C 1,2 C 3,2 km/h (1 Bft) 100,00 %
01.12.2018 13:44 1,2 C 3,3 C 1,7 C 97 % 1019,5 hPa 0,0 l/m 2,0 km/h (1 Bft) S 175 0 min 0,000 mm 0,0 UV-I 73 W/m 0,8 C 1,2 C 3,2 km/h (1 Bft) 100,00 %
01.12.2018 13:46 1,3 C 3,3 C 1,7 C 97 % 1019,5 hPa 0,0 l/m 1,5 km/h (1 Bft) S 175 0 min 0,000 mm 0,0 UV-I 70 W/m 0,9 C 1,3 C 3,2 km/h (1 Bft) 100,00 %
01.12.2018 13:48 1,3 C 3,3 C 1,7 C 97 % 1019,5 hPa 0,0 l/m 1,8 km/h (1 Bft) S 175 0 min 0,000 mm 0,0 UV-I 63 W/m 0,9 C 1,3 C 3,2 km/h (1 Bft) 100,00 %
01.12.2018 13:50 1,3 C 3,3 C 1,7 C 97 % 1019,5 hPa 0,0 l/m 1,5 km/h (1 Bft) S 175 0 min 0,000 mm 0,0 UV-I 59 W/m 0,9 C 1,3 C 3,2 km/h (1 Bft) 97,92 %
01.12.2018 13:52 1,3 C 3,3 C 1,7 C 97 % 1019,5 hPa 0,0 l/m 1,9 km/h (1 Bft) S 175 0 min 0,000 mm 0,0 UV-I 52 W/m 0,9 C 1,3 C 3,2 km/h (1 Bft) 97,87 %
01.12.2018 13:54 1,3 C 3,3 C 1,7 C 97 % 1019,6 hPa 0,0 l/m 1,6 km/h (1 Bft) S 175 0 min 0,000 mm 0,0 UV-I 45 W/m 0,9 C 1,3 C 3,2 km/h (1 Bft) 98,00 %
01.12.2018 13:55 1,3 C 3,3 C 1,7 C 97 % 1019,6 hPa 0,0 l/m 1,6 km/h (1 Bft) S 180 0 min 0,000 mm 0,0 UV-I 47 W/m 0,9 C 1,3 C 3,2 km/h (1 Bft) 94,74 %
01.12.2018 13:58 1,3 C 3,3 C 1,7 C 97 % 1019,6 hPa 0,0 l/m 1,3 km/h (1 Bft) S 175 0 min 0,000 mm 0,0 UV-I 45 W/m 0,9 C 1,3 C 1,6 km/h (1 Bft) 100,00 %
01.12.2018 14:00 1,3 C 3,3 C 1,7 C 97 % 1019,6 hPa 0,0 l/m 0,8 km/h (0 Bft) S 175 0 min 0,000 mm 0,0 UV-I 44 W/m 0,9 C 1,3 C 1,6 km/h (1 Bft) 98,15 %
01.12.2018 14:02 1,3 C 3,3 C 1,7 C 97 % 1019,6 hPa 0,0 l/m 0,4 km/h (0 Bft) S 175 0 min 0,026 mm 0,0 UV-I 39 W/m 0,9 C 1,3 C 1,6 km/h (1 Bft) 100,00 %
01.12.2018 14:04 1,3 C 3,3 C 1,7 C 97 % 1019,5 hPa 0,0 l/m 1,4 km/h (1 Bft) S 175 0 min 0,000 mm 0,0 UV-I 37 W/m 0,9 C 1,3 C 3,2 km/h (1 Bft) 98,00 %
01.12.2018 14:06 1,3 C 3,3 C 1,7 C 97 % 1019,5 hPa 0,0 l/m 0,3 km/h (0 Bft) S 175 0 min 0,000 mm 0,0 UV-I 36 W/m 0,9 C 1,3 C 1,6 km/h (1 Bft) 96,00 %
01.12.2018 14:08 1,3 C 3,3 C 1,7 C 97 % 1019,5 hPa 0,0 l/m 0,0 km/h (0 Bft) S 175 0 min 0,000 mm 0,0 UV-I 37 W/m 0,9 C 1,3 C 0,0 km/h (0 Bft) 96,00 %
01.12.2018 14:10 1,3 C 3,3 C 1,7 C 97 % 1019,5 hPa 0,0 l/m 1,8 km/h (1 Bft) S 175 0 min 0,000 mm 0,0 UV-I 37 W/m 0,9 C 1,3 C 3,2 km/h (1 Bft) 97,37 %
01.12.2018 14:12 1,3 C 3,3 C 1,7 C 97 % 1019,5 hPa 0,0 l/m 1,6 km/h (1 Bft) S 175 0 min 0,000 mm 0,0 UV-I 41 W/m 0,9 C 1,3 C 3,2 km/h (1 Bft) 95,74 %
01.12.2018 14:14 1,3 C 3,3 C 1,7 C 97 % 1019,5 hPa 0,0 l/m 0,5 km/h (0 Bft) S 175 0 min 0,000 mm 0,0 UV-I 43 W/m 0,9 C 1,3 C 1,6 km/h (1 Bft) 98,00 %
01.12.2018 14:16 1,2 C 3,3 C 1,7 C 97 % 1019,5 hPa 0,0 l/m 0,9 km/h (0 Bft) S 175 0 min 0,000 mm 0,0 UV-I 42 W/m 0,8 C 1,2 C 1,6 km/h (1 Bft) 96,00 %
01.12.2018 14:18 1,2 C 3,3 C 1,7 C 97 % 1019,5 hPa 0,0 l/m 1,9 km/h (1 Bft) S 175 0 min 0,000 mm 0,0 UV-I 42 W/m 0,8 C 1,2 C 3,2 km/h (1 Bft) 97,87 %
01.12.2018 14:20 1,2 C 3,3 C 1,7 C 97 % 1019,5 hPa 0,0 l/m 2,2 km/h (1 Bft) S 175 0 min 0,000 mm 0,0 UV-I 44 W/m 0,8 C 1,2 C 3,2 km/h (1 Bft) 97,87 %
01.12.2018 14:22 1,1 C 3,3 C 1,7 C 97 % 1019,6 hPa 0,0 l/m 1,5 km/h (1 Bft) S 175 0 min 0,000 mm 0,0 UV-I 46 W/m 0,7 C 1,1 C 3,2 km/h (1 Bft) 95,74 %
01.12.2018 14:24 1,2 C 3,3 C 1,7 C 97 % 1019,6 hPa 0,0 l/m 1,1 km/h (1 Bft) S 175 0 min 0,000 mm 0,0 UV-I 44 W/m 0,8 C 1,2 C 3,2 km/h (1 Bft) 100,00 %
01.12.2018 14:26 1,2 C 3,3 C 1,7 C 97 % 1019,6 hPa 0,0 l/m 1,2 km/h (1 Bft) S 175 0 min 0,000 mm 0,0 UV-I 42 W/m 0,8 C 1,2 C 1,6 km/h (1 Bft) 98,08 %
01.12.2018 14:28 1,2 C 3,3 C 1,7 C 97 % 1019,6 hPa 0,0 l/m 2,8 km/h (1 Bft) S 175 0 min 0,000 mm 0,0 UV-I 40 W/m 0,8 C 1,2 C 3,2 km/h (1 Bft) 100,00 %
01.12.2018 14:30 1,2 C 3,3 C 1,7 C 97 % 1019,7 hPa 0,0 l/m 2,1 km/h (1 Bft) S 175 0 min 0,000 mm 0,0 UV-I 39 W/m 0,8 C 1,2 C 3,2 km/h (1 Bft) 97,92 %
01.12.2018 14:32 1,2 C 3,3 C 1,7 C 97 % 1019,6 hPa 0,0 l/m 2,7 km/h (1 Bft) S 175 0 min 0,000 mm 0,0 UV-I 36 W/m 0,8 C 1,2 C 3,2 km/h (1 Bft) 96,00 %
01.12.2018 14:34 1,1 C 3,3 C 1,7 C 97 % 1019,7 hPa 0,0 l/m 3,4 km/h (1 Bft) O-NO 59 0 min 0,000 mm 0,0 UV-I 37 W/m 0,7 C 1,1 C 4,8 km/h (1 Bft) 97,14 %
01.12.2018 14:36 1,1 C 3,3 C 1,7 C 97 % 1019,7 hPa 0,0 l/m 2,8 km/h (1 Bft) O-NO 62 0 min 0,000 mm 0,0 UV-I 34 W/m 0,7 C 1,1 C 4,8 km/h (1 Bft) 98,11 %
01.12.2018 14:38 1,1 C 3,3 C 1,7 C 97 % 1019,7 hPa 0,0 l/m 3,8 km/h (1 Bft) O-NO 67 0 min 0,000 mm 0,0 UV-I 35 W/m 0,7 C 1,1 C 6,4 km/h (2 Bft) 97,87 %
01.12.2018 14:40 1,1 C 3,3 C 1,1 C 97 % 1019,7 hPa 0,0 l/m 3,3 km/h (1 Bft) O-NO 67 0 min 0,000 mm 0,0 UV-I 34 W/m 0,7 C 1,1 C 4,8 km/h (1 Bft) 97,56 %
01.12.2018 14:42 1,1 C 3,3 C 1,1 C 97 % 1019,8 hPa 0,0 l/m 3,0 km/h (1 Bft) O-NO 67 0 min 0,000 mm 0,0 UV-I 33 W/m 0,7 C 1,1 C 4,8 km/h (1 Bft) 97,87 %
01.12.2018 14:44 1,1 C 3,3 C 1,7 C 97 % 1019,8 hPa 0,0 l/m 3,0 km/h (1 Bft) O-NO 71 0 min 0,000 mm 0,0 UV-I 33 W/m 0,7 C 1,1 C 4,8 km/h (1 Bft) 95,74 %
01.12.2018 14:46 1,1 C 3,3 C 1,7 C 97 % 1019,8 hPa 0,0 l/m 2,5 km/h (1 Bft) O-NO 71 0 min 0,000 mm 0,0 UV-I 31 W/m 0,7 C 1,1 C 3,2 km/h (1 Bft) 96,55 %
01.12.2018 14:48 1,1 C 3,3 C 1,7 C 97 % 1019,8 hPa 0,0 l/m 3,2 km/h (1 Bft) O-NO 72 0 min 0,000 mm 0,0 UV-I 32 W/m 0,7 C 1,1 C 4,8 km/h (1 Bft) 97,06 %
01.12.2018 14:50 1,1 C 3,3 C 1,7 C 97 % 1019,8 hPa 0,0 l/m 5,2 km/h (1 Bft) O-NO 75 0 min 0,000 mm 0,0 UV-I 33 W/m 0,7 C 1,1 C 8,0 km/h (2 Bft) 98,00 %
01.12.2018 14:52 1,1 C 3,3 C 1,1 C 97 % 1019,8 hPa 0,0 l/m 4,3 km/h (1 Bft) O-NO 75 0 min 0,000 mm 0,0 UV-I 32 W/m 0,7 C 1,1 C 6,4 km/h (2 Bft) 98,00 %
01.12.2018 14:54 1,1 C 3,3 C 1,1 C 97 % 1019,8 hPa 0,0 l/m 4,2 km/h (1 Bft) O-NO 73 0 min 0,000 mm 0,0 UV-I 32 W/m 0,7 C 1,1 C 4,8 km/h (1 Bft) 97,56 %
01.12.2018 14:56 1,1 C 3,3 C 1,1 C 97 % 1019,9 hPa 0,0 l/m 4,5 km/h (1 Bft) O 79 0 min 0,000 mm 0,0 UV-I 33 W/m 0,7 C 1,1 C 6,4 km/h (2 Bft) 98,11 %
01.12.2018 14:58 1,1 C 3,3 C 1,1 C 97 % 1019,8 hPa 0,0 l/m 5,4 km/h (1 Bft) O-SO 108 0 min 0,000 mm 0,0 UV-I 33 W/m 0,7 C 1,1 C 6,4 km/h (2 Bft) 95,74 %
01.12.2018 15:00 1,1 C 3,3 C 1,1 C 97 % 1019,9 hPa 0,0 l/m 2,9 km/h (1 Bft) O-SO 108 0 min 0,000 mm 0,0 UV-I 34 W/m 0,7 C 1,1 C 4,8 km/h (1 Bft) 94,29 %
01.12.2018 15:02 1,0 C 3,3 C 1,1 C 97 % 1020,0 hPa 0,0 l/m 1,9 km/h (1 Bft) O-SO 108 0 min 0,025 mm 0,0 UV-I 27 W/m 0,6 C 1,0 C 3,2 km/h (1 Bft) 96,00 %
01.12.2018 15:04 1,1 C 3,3 C 1,1 C 97 % 1020,1 hPa 0,0 l/m 2,3 km/h (1 Bft) O-SO 110 0 min 0,000 mm 0,0 UV-I 22 W/m 0,7 C 1,1 C 3,2 km/h (1 Bft) 98,00 %
01.12.2018 15:06 1,1 C 3,3 C 1,1 C 97 % 1020,1 hPa 0,0 l/m 2,6 km/h (1 Bft) SO 130 0 min 0,000 mm 0,0 UV-I 22 W/m 0,7 C 1,1 C 4,8 km/h (1 Bft) 96,00 %
01.12.2018 15:08 1,1 C 3,3 C 1,1 C 97 % 1020,2 hPa 0,0 l/m 0,8 km/h (0 Bft) SO 130 0 min 0,000 mm 0,0 UV-I 26 W/m 0,7 C 1,1 C 1,6 km/h (1 Bft) 95,24 %
01.12.2018 15:10 1,1 C 3,3 C 1,1 C 97 % 1020,3 hPa 0,0 l/m 0,4 km/h (0 Bft) SO 130 0 min 0,000 mm 0,0 UV-I 33 W/m 0,7 C 1,1 C 1,6 km/h (1 Bft) 96,00 %
01.12.2018 15:12 1,2 C 3,3 C 1,1 C 97 % 1020,3 hPa 0,0 l/m 0,1 km/h (0 Bft) SO 130 0 min 0,000 mm 0,0 UV-I 37 W/m 0,8 C 1,2 C 1,6 km/h (1 Bft) 94,74 %
01.12.2018 15:14 1,1 C 3,3 C 1,7 C 97 % 1020,4 hPa 0,0 l/m 0,0 km/h (0 Bft) SO 130 0 min 0,000 mm 0,0 UV-I 44 W/m 0,7 C 1,1 C 0,0 km/h (0 Bft) 96,23 %
01.12.2018 15:16 1,2 C 3,3 C 1,7 C 97 % 1020,3 hPa 0,0 l/m 1,8 km/h (1 Bft) SO 130 0 min 0,000 mm 0,0 UV-I 58 W/m 0,8 C 1,2 C 3,2 km/h (1 Bft) 95,74 %
01.12.2018 15:18 1,2 C 3,3 C 1,7 C 97 % 1020,3 hPa 0,0 l/m 3,5 km/h (1 Bft) SO 130 2 min 0,000 mm 0,0 UV-I 69 W/m 0,8 C 1,2 C 4,8 km/h (1 Bft) 96,00 %
01.12.2018 15:20 1,1 C 3,3 C 1,7 C 97 % 1020,3 hPa 0,0 l/m 4,4 km/h (1 Bft) O 84 2 min 0,000 mm 0,0 UV-I 70 W/m 0,7 C 1,1 C 6,4 km/h (2 Bft) 94,00 %
01.12.2018 15:22 1,2 C 3,3 C 1,7 C 97 % 1020,3 hPa 0,0 l/m 4,1 km/h (1 Bft) O 84 2 min 0,000 mm 0,0 UV-I 60 W/m 0,8 C 1,2 C 4,8 km/h (1 Bft) 94,29 %
01.12.2018 15:24 1,2 C 3,3 C 1,7 C 97 % 1020,4 hPa 0,0 l/m 3,4 km/h (1 Bft) O 83 0 min 0,000 mm 0,0 UV-I 51 W/m 0,8 C 1,2 C 6,4 km/h (2 Bft) 92,59 %
01.12.2018 15:26 1,2 C 3,3 C 1,7 C 97 % 1020,4 hPa 0,0 l/m 4,1 km/h (1 Bft) N-NO 24 0 min 0,000 mm 0,0 UV-I 47 W/m 0,8 C 1,2 C 6,4 km/h (2 Bft) 89,47 %
01.12.2018 15:28 1,1 C 3,3 C 1,1 C 97 % 1020,4 hPa 0,0 l/m 5,4 km/h (1 Bft) NO 53 0 min 0,000 mm 0,0 UV-I 39 W/m 0,7 C 1,1 C 6,4 km/h (2 Bft) 94,64 %
01.12.2018 15:30 1,1 C 3,3 C 1,1 C 97 % 1020,4 hPa 0,0 l/m 5,9 km/h (2 Bft) NO 40 0 min 0,000 mm 0,0 UV-I 28 W/m 0,7 C 1,1 C 8,0 km/h (2 Bft) 89,36 %
01.12.2018 15:32 1,0 C 3,3 C 1,1 C 97 % 1020,5 hPa 0,0 l/m 6,2 km/h (2 Bft) NO 42 0 min 0,000 mm 0,0 UV-I 23 W/m 0,6 C 1,0 C 8,0 km/h (2 Bft) 92,11 %
01.12.2018 15:34 1,0 C 3,3 C 1,1 C 97 % 1020,5 hPa 0,0 l/m 4,8 km/h (1 Bft) NO 42 0 min 0,000 mm 0,0 UV-I 18 W/m 0,6 C 1,0 C 6,4 km/h (2 Bft) 92,86 %
01.12.2018 15:36 1,0 C 3,3 C 1,1 C 97 % 1020,5 hPa 0,0 l/m 1,4 km/h (1 Bft) NO 42 0 min 0,000 mm 0,0 UV-I 17 W/m 0,6 C 1,0 C 3,2 km/h (1 Bft) 92,00 %
01.12.2018 15:38 1,0 C 3,3 C 1,1 C 97 % 1020,6 hPa 0,0 l/m 0,8 km/h (0 Bft) NO 42 0 min 0,000 mm 0,0 UV-I 14 W/m 0,6 C 1,0 C 3,2 km/h (1 Bft) 91,49 %
01.12.2018 15:40 1,0 C 3,3 C 1,1 C 97 % 1020,6 hPa 0,0 l/m 1,0 km/h (0 Bft) NO 42 0 min 0,000 mm 0,0 UV-I 12 W/m 0,6 C 1,0 C 1,6 km/h (1 Bft) 92,31 %
01.12.2018 15:42 1,0 C 3,3 C 1,1 C 97 % 1020,7 hPa 0,0 l/m 0,3 km/h (0 Bft) NO 42 0 min 0,000 mm 0,0 UV-I 12 W/m 0,6 C 1,0 C 1,6 km/h (1 Bft) 95,74 %
01.12.2018 15:44 1,0 C 3,3 C 1,1 C 97 % 1020,7 hPa 0,0 l/m 0,3 km/h (0 Bft) NO 42 0 min 0,000 mm 0,0 UV-I 11 W/m 0,6 C 1,0 C 1,6 km/h (1 Bft) 98,00 %
01.12.2018 15:46 1,0 C 3,3 C 1,1 C 98 % 1020,7 hPa 0,0 l/m 1,8 km/h (1 Bft) NO 42 0 min 0,000 mm 0,0 UV-I 11 W/m 0,7 C 1,0 C 3,2 km/h (1 Bft) 92,00 %
01.12.2018 15:48 1,0 C 3,3 C 1,1 C 97 % 1020,6 hPa 0,0 l/m 1,9 km/h (1 Bft) NO 44 0 min 0,000 mm 0,0 UV-I 12 W/m 0,6 C 1,0 C 3,2 km/h (1 Bft) 97,87 %
01.12.2018 15:50 1,1 C 3,3 C 1,1 C 97 % 1020,6 hPa 0,0 l/m 3,8 km/h (1 Bft) SO 133 0 min 0,000 mm 0,0 UV-I 12 W/m 0,7 C 1,1 C 6,4 km/h (2 Bft) 95,74 %
01.12.2018 15:52 0,9 C 3,3 C 1,1 C 98 % 1020,6 hPa 0,0 l/m 5,0 km/h (1 Bft) SO 136 0 min 0,000 mm 0,0 UV-I 11 W/m 0,6 C 0,9 C 6,4 km/h (2 Bft) 97,37 %
01.12.2018 15:54 0,9 C 3,3 C 0,6 C 98 % 1020,5 hPa 0,0 l/m 5,5 km/h (1 Bft) O-SO 117 0 min 0,000 mm 0,0 UV-I 11 W/m 0,6 C 0,9 C 6,4 km/h (2 Bft) 95,74 %
01.12.2018 15:56 0,9 C 3,3 C 1,1 C 98 % 1020,5 hPa 0,0 l/m 5,2 km/h (1 Bft) O-SO 105 0 min 0,000 mm 0,0 UV-I 11 W/m 0,6 C 0,9 C 6,4 km/h (2 Bft) 98,11 %
01.12.2018 15:58 1,1 C 3,3 C 1,1 C 97 % 1020,5 hPa 0,0 l/m 6,5 km/h (2 Bft) O-SO 111 0 min 0,000 mm 0,0 UV-I 9 W/m 0,7 C 1,0 C 9,7 km/h (2 Bft) 98,00 %
01.12.2018 16:00 1,1 C 3,3 C 0,6 C 97 % 1020,5 hPa 0,0 l/m 7,0 km/h (2 Bft) SO 127 0 min 0,000 mm 0,0 UV-I 7 W/m 0,7 C 0,5 C 11,3 km/h (2 Bft) 97,37 %
01.12.2018 16:02 1,1 C 3,3 C 1,1 C 97 % 1020,5 hPa 0,0 l/m 6,8 km/h (2 Bft) O-SO 119 0 min 0,000 mm 0,0 UV-I 7 W/m 0,7 C 0,7 C 11,3 km/h (2 Bft) 95,74 %
01.12.2018 16:04 1,2 C 3,3 C 1,1 C 97 % 1020,5 hPa 0,0 l/m 8,0 km/h (2 Bft) O-SO 123 0 min 0,000 mm 0,0 UV-I 7 W/m 0,8 C -0,4 C 12,9 km/h (3 Bft) 98,11 %
01.12.2018 16:06 1,2 C 3,3 C 1,1 C 97 % 1020,5 hPa 0,0 l/m 5,1 km/h (1 Bft) SO 131 0 min 0,000 mm 0,0 UV-I 7 W/m 0,8 C 1,2 C 9,7 km/h (2 Bft) 97,37 %
01.12.2018 16:08 1,2 C 3,3 C 1,1 C 97 % 1020,5 hPa 0,0 l/m 3,6 km/h (1 Bft) SO 140 0 min 0,000 mm 0,0 UV-I 5 W/m 0,8 C 1,2 C 6,4 km/h (2 Bft) 98,00 %
01.12.2018 16:10 1,1 C 3,3 C 1,1 C 97 % 1020,5 hPa 0,0 l/m 1,8 km/h (1 Bft) SO 141 0 min 0,000 mm 0,0 UV-I 5 W/m 0,7 C 1,1 C 3,2 km/h (1 Bft) 97,87 %
01.12.2018 16:12 1,1 C 3,3 C 1,1 C 97 % 1020,6 hPa 0,0 l/m 1,9 km/h (1 Bft) SO 141 0 min 0,000 mm 0,0 UV-I 5 W/m 0,7 C 1,1 C 3,2 km/h (1 Bft) 95,74 %
01.12.2018 16:14 1,1 C 3,3 C 1,1 C 97 % 1020,5 hPa 0,0 l/m 3,0 km/h (1 Bft) SO 141 0 min 0,000 mm 0,0 UV-I 5 W/m 0,7 C 1,1 C 4,8 km/h (1 Bft) 96,00 %
01.12.2018 16:16 1,2 C 3,3 C 1,1 C 97 % 1020,6 hPa 0,0 l/m 0,8 km/h (0 Bft) SO 141 0 min 0,000 mm 0,0 UV-I 5 W/m 0,8 C 1,2 C 1,6 km/h (1 Bft) 97,87 %
01.12.2018 16:18 1,2 C 3,3 C 1,1 C 98 % 1020,6 hPa 0,0 l/m 2,0 km/h (1 Bft) SO 141 0 min 0,000 mm 0,0 UV-I 5 W/m 0,9 C 1,2 C 3,2 km/h (1 Bft) 97,87 %
01.12.2018 16:20 1,2 C 3,3 C 1,1 C 98 % 1020,5 hPa 0,0 l/m 3,1 km/h (1 Bft) SO 140 0 min 0,000 mm 0,0 UV-I 2 W/m 0,9 C 1,2 C 6,4 km/h (2 Bft) 100,00 %
01.12.2018 16:22 1,2 C 3,3 C 1,1 C 98 % 1020,5 hPa 0,0 l/m 3,0 km/h (1 Bft) SO 140 0 min 0,000 mm 0,0 UV-I 0 W/m 0,9 C 1,2 C 4,8 km/h (1 Bft) 100,00 %
01.12.2018 16:24 1,2 C 3,3 C 1,1 C 98 % 1020,5 hPa 0,0 l/m 2,0 km/h (1 Bft) O-SO 119 0 min 0,000 mm 0,0 UV-I 0 W/m 0,9 C 1,2 C 4,8 km/h (1 Bft) 97,87 %
01.12.2018 16:26 1,2 C 3,3 C 1,1 C 98 % 1020,4 hPa 0,0 l/m 4,2 km/h (1 Bft) O-SO 121 0 min 0,000 mm 0,0 UV-I 0 W/m 0,9 C 1,2 C 6,4 km/h (2 Bft) 98,18 %
01.12.2018 16:28 1,2 C 3,3 C 0,6 C 98 % 1020,5 hPa 0,0 l/m 5,2 km/h (1 Bft) SO 137 0 min 0,000 mm 0,0 UV-I 0 W/m 0,9 C 1,2 C 6,4 km/h (2 Bft) 97,92 %
01.12.2018 16:30 1,2 C 3,3 C 0,6 C 98 % 1020,5 hPa 0,0 l/m 3,5 km/h (1 Bft) SO 137 0 min 0,000 mm 0,0 UV-I 0 W/m 0,9 C 1,2 C 6,4 km/h (2 Bft) 97,37 %
01.12.2018 16:32 1,2 C 3,3 C 0,6 C 98 % 1020,5 hPa 0,0 l/m 5,4 km/h (1 Bft) SO 126 0 min 0,000 mm 0,0 UV-I 0 W/m 0,9 C 1,2 C 8,0 km/h (2 Bft) 100,00 %
01.12.2018 16:34 1,2 C 3,3 C 0,6 C 98 % 1020,5 hPa 0,0 l/m 5,1 km/h (1 Bft) O-SO 123 0 min 0,000 mm 0,0 UV-I 0 W/m 0,9 C 1,2 C 8,0 km/h (2 Bft) 100,00 %
01.12.2018 16:36 1,2 C 3,3 C 0,6 C 98 % 1020,6 hPa 0,0 l/m 3,1 km/h (1 Bft) O-SO 123 0 min 0,000 mm 0,0 UV-I 0 W/m 0,9 C 1,2 C 6,4 km/h (2 Bft) 100,00 %
01.12.2018 16:38 1,2 C 3,3 C 0,6 C 98 % 1020,5 hPa 0,0 l/m 2,1 km/h (1 Bft) SO 133 0 min 0,000 mm 0,0 UV-I 0 W/m 0,9 C 1,2 C 4,8 km/h (1 Bft) 97,37 %
01.12.2018 16:40 1,2 C 3,3 C 0,6 C 98 % 1020,5 hPa 0,0 l/m 2,0 km/h (1 Bft) SO 136 0 min 0,000 mm 0,0 UV-I 0 W/m 0,9 C 1,2 C 4,8 km/h (1 Bft) 96,00 %
01.12.2018 16:42 1,2 C 3,3 C 0,6 C 98 % 1020,6 hPa 0,0 l/m 3,5 km/h (1 Bft) SO 126 0 min 0,000 mm 0,0 UV-I 0 W/m 0,9 C 1,2 C 4,8 km/h (1 Bft) 100,00 %
01.12.2018 16:44 1,3 C 3,3 C 0,6 C 98 % 1020,6 hPa 0,0 l/m 2,6 km/h (1 Bft) SO 126 0 min 0,000 mm 0,0 UV-I 0 W/m 1,0 C 1,3 C 6,4 km/h (2 Bft) 96,23 %
01.12.2018 16:46 1,2 C 3,3 C 0,6 C 98 % 1020,5 hPa 0,0 l/m 2,9 km/h (1 Bft) SO 126 0 min 0,000 mm 0,0 UV-I 0 W/m 0,9 C 1,2 C 4,8 km/h (1 Bft) 97,56 %
01.12.2018 16:48 1,3 C 3,3 C 0,6 C 98 % 1020,5 hPa 0,0 l/m 3,7 km/h (1 Bft) O-SO 114 0 min 0,000 mm 0,0 UV-I 0 W/m 1,0 C 1,3 C 6,4 km/h (2 Bft) 96,00 %
01.12.2018 16:50 1,3 C 3,3 C 1,1 C 98 % 1020,5 hPa 0,0 l/m 6,0 km/h (2 Bft) O-SO 114 0 min 0,000 mm 0,0 UV-I 0 W/m 1,0 C 1,3 C 11,3 km/h (2 Bft) 96,00 %
01.12.2018 16:52 1,4 C 3,3 C 1,1 C 98 % 1020,5 hPa 0,0 l/m 6,5 km/h (2 Bft) SO 125 0 min 0,000 mm 0,0 UV-I 0 W/m 1,1 C 1,3 C 11,3 km/h (2 Bft) 95,74 %
01.12.2018 16:54 1,4 C 3,3 C 1,1 C 98 % 1020,5 hPa 0,0 l/m 5,8 km/h (2 Bft) O-SO 121 0 min 0,000 mm 0,0 UV-I 0 W/m 1,1 C 1,4 C 11,3 km/h (2 Bft) 96,00 %
01.12.2018 16:56 1,4 C 3,3 C 1,1 C 98 % 1020,4 hPa 0,0 l/m 5,5 km/h (1 Bft) SO 140 0 min 0,000 mm 0,0 UV-I 0 W/m 1,1 C 1,4 C 9,7 km/h (2 Bft) 97,56 %
01.12.2018 16:58 1,4 C 3,3 C 1,1 C 98 % 1020,5 hPa 0,0 l/m 5,2 km/h (1 Bft) S-SO 166 0 min 0,000 mm 0,0 UV-I 0 W/m 1,1 C 1,4 C 8,0 km/h (2 Bft) 98,00 %
01.12.2018 17:00 1,3 C 3,3 C 1,1 C 98 % 1020,4 hPa 0,0 l/m 5,4 km/h (1 Bft) SO 136 0 min 0,000 mm 0,0 UV-I 0 W/m 1,0 C 1,3 C 8,0 km/h (2 Bft) 100,00 %
01.12.2018 17:02 1,2 C 3,3 C 1,1 C 98 % 1020,4 hPa 0,0 l/m 4,6 km/h (1 Bft) S-SO 147 0 min 0,000 mm 0,0 UV-I 0 W/m 0,9 C 1,2 C 8,0 km/h (2 Bft) 97,87 %
01.12.2018 17:04 1,2 C 3,3 C 1,1 C 97 % 1020,4 hPa 0,0 l/m 3,1 km/h (1 Bft) S-SO 161 0 min 0,000 mm 0,0 UV-I 0 W/m 0,8 C 1,2 C 6,4 km/h (2 Bft) 100,00 %
01.12.2018 17:06 1,1 C 3,3 C 1,1 C 97 % 1020,3 hPa 0,0 l/m 5,1 km/h (1 Bft) SO 125 0 min 0,000 mm 0,0 UV-I 0 W/m 0,7 C 1,1 C 8,0 km/h (2 Bft) 96,00 %
01.12.2018 17:08 1,1 C 3,3 C 1,1 C 97 % 1020,3 hPa 0,0 l/m 7,0 km/h (2 Bft) O-SO 117 0 min 0,000 mm 0,0 UV-I 0 W/m 0,7 C 0,5 C 11,3 km/h (2 Bft) 100,00 %
01.12.2018 17:10 1,2 C 3,3 C 1,1 C 98 % 1020,3 hPa 0,0 l/m 6,5 km/h (2 Bft) SO 131 0 min 0,000 mm 0,0 UV-I 0 W/m 0,9 C 1,1 C 11,3 km/h (2 Bft) 100,00 %
01.12.2018 17:12 1,3 C 3,3 C 1,1 C 98 % 1020,3 hPa 0,0 l/m 1,9 km/h (1 Bft) SO 128 0 min 0,000 mm 0,0 UV-I 0 W/m 1,0 C 1,3 C 4,8 km/h (1 Bft) 97,37 %
01.12.2018 17:14 1,3 C 3,3 C 1,1 C 98 % 1020,4 hPa 0,0 l/m 1,3 km/h (1 Bft) SO 137 0 min 0,000 mm 0,0 UV-I 0 W/m 1,0 C 1,3 C 4,8 km/h (1 Bft) 95,16 %
01.12.2018 17:16 1,4 C 3,3 C 1,1 C 98 % 1020,3 hPa 0,0 l/m 4,9 km/h (1 Bft) O-SO 115 0 min 0,000 mm 0,0 UV-I 0 W/m 1,1 C 1,4 C 9,7 km/h (2 Bft) 98,11 %
01.12.2018 17:18 1,4 C 3,3 C 1,1 C 98 % 1020,3 hPa 0,0 l/m 3,8 km/h (1 Bft) O-SO 107 0 min 0,000 mm 0,0 UV-I 0 W/m 1,1 C 1,4 C 4,8 km/h (1 Bft) 97,37 %
01.12.2018 17:20 1,4 C 3,3 C 1,1 C 98 % 1020,4 hPa 0,0 l/m 3,9 km/h (1 Bft) SO 130 0 min 0,000 mm 0,0 UV-I 0 W/m 1,1 C 1,4 C 6,4 km/h (2 Bft) 97,87 %
01.12.2018 17:22 1,4 C 3,3 C 1,1 C 98 % 1020,3 hPa 0,0 l/m 3,0 km/h (1 Bft) SO 130 0 min 0,000 mm 0,0 UV-I 0 W/m 1,1 C 1,4 C 4,8 km/h (1 Bft) 96,23 %
01.12.2018 17:24 1,4 C 3,3 C 1,1 C 98 % 1020,3 hPa 0,0 l/m 3,1 km/h (1 Bft) SO 130 0 min 0,000 mm 0,0 UV-I 0 W/m 1,1 C 1,4 C 4,8 km/h (1 Bft) 98,00 %
01.12.2018 17:26 1,3 C 3,3 C 1,1 C 98 % 1020,3 hPa 0,0 l/m 3,0 km/h (1 Bft) SO 130 0 min 0,000 mm 0,0 UV-I 0 W/m 1,0 C 1,3 C 6,4 km/h (2 Bft) 97,37 %
01.12.2018 17:28 1,3 C 3,3 C 1,1 C 98 % 1020,2 hPa 0,0 l/m 4,0 km/h (1 Bft) SO 138 0 min 0,000 mm 0,0 UV-I 0 W/m 1,0 C 1,3 C 6,4 km/h (2 Bft) 98,00 %
01.12.2018 17:30 1,3 C 3,3 C 1,1 C 98 % 1020,2 hPa 0,0 l/m 3,3 km/h (1 Bft) O-SO 123 0 min 0,000 mm 0,0 UV-I 0 W/m 1,0 C 1,3 C 4,8 km/h (1 Bft) 98,00 %
01.12.2018 17:32 1,2 C 3,3 C 1,1 C 98 % 1020,2 hPa 0,0 l/m 2,7 km/h (1 Bft) O-SO 123 0 min 0,000 mm 0,0 UV-I 0 W/m 0,9 C 1,2 C 4,8 km/h (1 Bft) 97,87 %
01.12.2018 17:34 1,0 C 3,3 C 1,1 C 98 % 1020,1 hPa 0,0 l/m 3,3 km/h (1 Bft) O-SO 123 0 min 0,000 mm 0,0 UV-I 0 W/m 0,7 C 1,0 C 4,8 km/h (1 Bft) 97,87 %
01.12.2018 17:36 0,9 C 3,3 C 1,1 C 97 % 1020,1 hPa 0,0 l/m 3,8 km/h (1 Bft) SO 124 0 min 0,000 mm 0,0 UV-I 0 W/m 0,5 C 0,9 C 6,4 km/h (2 Bft) 94,00 %
01.12.2018 17:38 1,1 C 3,3 C 1,1 C 97 % 1020,0 hPa 0,0 l/m 3,7 km/h (1 Bft) O 98 0 min 0,000 mm 0,0 UV-I 0 W/m 0,7 C 1,1 C 6,4 km/h (2 Bft) 100,00 %
01.12.2018 17:40 1,1 C 3,3 C 1,1 C 98 % 1020,0 hPa 0,0 l/m 4,4 km/h (1 Bft) O-SO 109 0 min 0,000 mm 0,0 UV-I 0 W/m 0,8 C 1,1 C 6,4 km/h (2 Bft) 91,49 %
01.12.2018 17:42 1,2 C 3,3 C 1,1 C 98 % 1020,0 hPa 0,0 l/m 5,5 km/h (1 Bft) O-SO 114 0 min 0,000 mm 0,0 UV-I 0 W/m 0,9 C 1,2 C 9,7 km/h (2 Bft) 96,00 %
01.12.2018 17:44 1,3 C 3,3 C 1,1 C 98 % 1020,0 hPa 0,0 l/m 5,4 km/h (1 Bft) O 97 0 min 0,000 mm 0,0 UV-I 0 W/m 1,0 C 1,3 C 11,3 km/h (2 Bft) 97,92 %
01.12.2018 17:46 1,3 C 3,3 C 1,1 C 98 % 1019,9 hPa 0,0 l/m 9,7 km/h (2 Bft) O-SO 104 0 min 0,000 mm 0,0 UV-I 0 W/m 1,0 C -1,8 C 12,9 km/h (3 Bft) 95,74 %
01.12.2018 17:48 1,3 C 3,3 C 1,1 C 98 % 1019,9 hPa 0,0 l/m 10,0 km/h (2 Bft) O 97 0 min 0,000 mm 0,0 UV-I 0 W/m 1,0 C -2,0 C 12,9 km/h (3 Bft) 95,74 %
01.12.2018 17:50 1,3 C 3,3 C 1,1 C 98 % 1019,9 hPa 0,0 l/m 7,6 km/h (2 Bft) O-SO 116 0 min 0,000 mm 0,0 UV-I 0 W/m 1,0 C 0,1 C 11,3 km/h (2 Bft) 100,00 %
01.12.2018 17:52 1,4 C 3,3 C 1,1 C 98 % 1019,9 hPa 0,0 l/m 6,1 km/h (2 Bft) O 82 0 min 0,000 mm 0,0 UV-I 0 W/m 1,1 C 1,4 C 9,7 km/h (2 Bft) 97,87 %
01.12.2018 17:54 1,4 C 3,3 C 1,1 C 98 % 1019,9 hPa 0,0 l/m 5,1 km/h (1 Bft) O 88 0 min 0,000 mm 0,0 UV-I 0 W/m 1,1 C 1,4 C 8,0 km/h (2 Bft) 97,87 %
01.12.2018 17:56 1,2 C 3,3 C 1,1 C 98 % 1020,0 hPa 0,0 l/m 3,4 km/h (1 Bft) O 88 0 min 0,000 mm 0,0 UV-I 0 W/m 0,9 C 1,2 C 4,8 km/h (1 Bft) 93,62 %
01.12.2018 17:58 1,0 C 3,3 C 0,6 C 98 % 1020,0 hPa 0,0 l/m 2,7 km/h (1 Bft) O 88 0 min 0,000 mm 0,0 UV-I 0 W/m 0,7 C 1,0 C 4,8 km/h (1 Bft) 97,56 %
01.12.2018 18:00 0,9 C 3,3 C 0,6 C 98 % 1020,0 hPa 0,0 l/m 1,3 km/h (1 Bft) O 88 0 min 0,000 mm 0,0 UV-I 0 W/m 0,6 C 0,9 C 3,2 km/h (1 Bft) 96,00 %
01.12.2018 18:02 0,9 C 3,3 C 0,6 C 97 % 1020,0 hPa 0,0 l/m 1,5 km/h (1 Bft) O 88 0 min 0,000 mm 0,0 UV-I 0 W/m 0,5 C 0,9 C 3,2 km/h (1 Bft) 95,74 %
01.12.2018 18:04 1,0 C 3,3 C 0,6 C 98 % 1020,0 hPa 0,0 l/m 2,1 km/h (1 Bft) O 88 0 min 0,000 mm 0,0 UV-I 0 W/m 0,7 C 1,0 C 3,2 km/h (1 Bft) 93,62 %
01.12.2018 18:06 1,1 C 3,3 C 0,6 C 98 % 1020,0 hPa 0,0 l/m 1,9 km/h (1 Bft) O 88 0 min 0,000 mm 0,0 UV-I 0 W/m 0,8 C 1,1 C 3,2 km/h (1 Bft) 98,11 %
01.12.2018 18:08 1,0 C 3,3 C 0,6 C 98 % 1020,0 hPa 0,0 l/m 2,0 km/h (1 Bft) O 88 0 min 0,000 mm 0,0 UV-I 0 W/m 0,7 C 1,0 C 3,2 km/h (1 Bft) 97,87 %
01.12.2018 18:10 1,0 C 3,3 C 1,1 C 98 % 1019,9 hPa 0,0 l/m 2,5 km/h (1 Bft) O 88 0 min 0,000 mm 0,0 UV-I 0 W/m 0,7 C 1,0 C 3,2 km/h (1 Bft) 97,37 %
01.12.2018 18:12 1,1 C 3,3 C 1,1 C 98 % 1019,9 hPa 0,0 l/m 4,3 km/h (1 Bft) O 84 0 min 0,000 mm 0,0 UV-I 0 W/m 0,8 C 1,1 C 6,4 km/h (2 Bft) 97,87 %
01.12.2018 18:14 1,2 C 3,3 C 1,1 C 98 % 1019,8 hPa 0,0 l/m 5,4 km/h (1 Bft) O 88 0 min 0,000 mm 0,0 UV-I 0 W/m 0,9 C 1,2 C 9,7 km/h (2 Bft) 100,00 %
01.12.2018 18:16 1,2 C 3,3 C 1,1 C 98 % 1019,8 hPa 0,0 l/m 4,9 km/h (1 Bft) O 90 0 min 0,000 mm 0,0 UV-I 0 W/m 0,9 C 1,2 C 9,7 km/h (2 Bft) 97,92 %
01.12.2018 18:18 1,2 C 3,3 C 1,1 C 98 % 1019,8 hPa 0,0 l/m 4,1 km/h (1 Bft) O 91 0 min 0,000 mm 0,0 UV-I 0 W/m 0,9 C 1,2 C 6,4 km/h (2 Bft) 100,00 %
01.12.2018 18:20 1,2 C 3,3 C 1,1 C 98 % 1019,8 hPa 0,0 l/m 4,8 km/h (1 Bft) O-NO 71 0 min 0,000 mm 0,0 UV-I 0 W/m 0,9 C 1,2 C 8,0 km/h (2 Bft) 100,00 %
01.12.2018 18:22 1,1 C 3,3 C 1,1 C 98 % 1019,8 hPa 0,0 l/m 4,9 km/h (1 Bft) NO 51 0 min 0,000 mm 0,0 UV-I 0 W/m 0,8 C 1,1 C 6,4 km/h (2 Bft) 100,00 %
01.12.2018 18:24 1,0 C 3,3 C 0,6 C 98 % 1019,8 hPa 0,0 l/m 4,1 km/h (1 Bft) NO 51 0 min 0,000 mm 0,0 UV-I 0 W/m 0,7 C 1,0 C 6,4 km/h (2 Bft) 100,00 %
01.12.2018 18:26 1,0 C 3,3 C 1,1 C 98 % 1019,7 hPa 0,0 l/m 3,3 km/h (1 Bft) O 80 0 min 0,000 mm 0,0 UV-I 0 W/m 0,7 C 1,0 C 6,4 km/h (2 Bft) 100,00 %
01.12.2018 18:28 1,0 C 3,3 C 1,1 C 98 % 1019,6 hPa 0,0 l/m 4,1 km/h (1 Bft) O 80 0 min 0,000 mm 0,0 UV-I 0 W/m 0,7 C 1,0 C 6,4 km/h (2 Bft) 100,00 %
01.12.2018 18:30 1,0 C 3,3 C 0,6 C 98 % 1019,6 hPa 0,0 l/m 3,2 km/h (1 Bft) O 80 0 min 0,000 mm 0,0 UV-I 0 W/m 0,7 C 1,0 C 4,8 km/h (1 Bft) 100,00 %
01.12.2018 18:32 1,0 C 3,3 C 0,6 C 98 % 1019,6 hPa 0,0 l/m 4,3 km/h (1 Bft) O 87 0 min 0,000 mm 0,0 UV-I 0 W/m 0,7 C 1,0 C 6,4 km/h (2 Bft) 100,00 %
01.12.2018 18:34 0,9 C 3,3 C 0,6 C 98 % 1019,6 hPa 0,0 l/m 7,3 km/h (2 Bft) O-NO 72 0 min 0,000 mm 0,0 UV-I 0 W/m 0,6 C -0,0 C 11,3 km/h (2 Bft) 100,00 %
01.12.2018 18:36 0,9 C 3,3 C 0,6 C 98 % 1019,5 hPa 0,0 l/m 7,6 km/h (2 Bft) O-NO 74 0 min 0,000 mm 0,0 UV-I 0 W/m 0,6 C -0,3 C 11,3 km/h (2 Bft) 100,00 %
01.12.2018 18:38 0,9 C 3,3 C 0,6 C 98 % 1019,5 hPa 0,0 l/m 9,1 km/h (2 Bft) O 98 0 min 0,000 mm 0,0 UV-I 0 W/m 0,6 C -1,7 C 12,9 km/h (3 Bft) 100,00 %
01.12.2018 18:40 0,9 C 3,3 C 0,6 C 98 % 1019,5 hPa 0,0 l/m 9,3 km/h (2 Bft) O 95 0 min 0,000 mm 0,0 UV-I 0 W/m 0,6 C -1,9 C 12,9 km/h (3 Bft) 100,00 %
01.12.2018 18:42 0,9 C 3,3 C 0,6 C 98 % 1019,4 hPa 0,0 l/m 8,6 km/h (2 Bft) O 90 0 min 0,000 mm 0,0 UV-I 0 W/m 0,6 C -1,3 C 11,3 km/h (2 Bft) 98,00 %
01.12.2018 18:44 0,9 C 3,3 C 0,6 C 98 % 1019,4 hPa 0,0 l/m 7,0 km/h (2 Bft) O-NO 71 0 min 0,000 mm 0,0 UV-I 0 W/m 0,6 C 0,3 C 12,9 km/h (3 Bft) 100,00 %
01.12.2018 18:46 0,9 C 3,3 C 0,6 C 98 % 1019,4 hPa 0,0 l/m 7,4 km/h (2 Bft) O-NO 76 0 min 0,000 mm 0,0 UV-I 0 W/m 0,6 C -0,1 C 11,3 km/h (2 Bft) 98,00 %
01.12.2018 18:48 0,9 C 3,3 C 0,6 C 98 % 1019,4 hPa 0,0 l/m 6,7 km/h (2 Bft) O-NO 67 0 min 0,000 mm 0,0 UV-I 0 W/m 0,6 C 0,6 C 11,3 km/h (2 Bft) 100,00 %
01.12.2018 18:50 0,9 C 3,3 C 0,6 C 98 % 1019,4 hPa 0,0 l/m 6,1 km/h (2 Bft) O-NO 74 0 min 0,000 mm 0,0 UV-I 0 W/m 0,6 C 0,9 C 8,0 km/h (2 Bft) 100,00 %
01.12.2018 18:52 0,9 C 3,3 C 0,6 C 98 % 1019,5 hPa 0,0 l/m 6,2 km/h (2 Bft) O 91 0 min 0,000 mm 0,0 UV-I 0 W/m 0,6 C 0,9 C 8,0 km/h (2 Bft) 100,00 %
01.12.2018 18:54 0,9 C 3,3 C 0,6 C 98 % 1019,4 hPa 0,0 l/m 5,8 km/h (2 Bft) O 88 0 min 0,000 mm 0,0 UV-I 0 W/m 0,6 C 0,9 C 9,7 km/h (2 Bft) 100,00 %
01.12.2018 18:56 0,9 C 3,3 C 0,6 C 98 % 1019,5 hPa 0,0 l/m 6,0 km/h (2 Bft) O-NO 75 0 min 0,000 mm 0,0 UV-I 0 W/m 0,6 C 0,9 C 11,3 km/h (2 Bft) 100,00 %
01.12.2018 18:58 0,9 C 3,3 C 0,6 C 98 % 1019,4 hPa 0,0 l/m 5,4 km/h (1 Bft) NO 36 0 min 0,000 mm 0,0 UV-I 0 W/m 0,6 C 0,9 C 8,0 km/h (2 Bft) 100,00 %
01.12.2018 19:00 0,9 C 3,3 C 0,6 C 98 % 1019,4 hPa 0,0 l/m 6,9 km/h (2 Bft) O-NO 59 0 min 0,000 mm 0,0 UV-I 0 W/m 0,6 C 0,4 C 9,7 km/h (2 Bft) 98,00 %
01.12.2018 19:02 0,9 C 3,3 C 0,6 C 98 % 1019,4 hPa 0,0 l/m 4,9 km/h (1 Bft) NO 55 0 min 0,000 mm 0,0 UV-I 0 W/m 0,6 C 0,9 C 6,4 km/h (2 Bft) 100,00 %
01.12.2018 19:04 0,9 C 3,3 C 0,6 C 98 % 1019,5 hPa 0,0 l/m 3,8 km/h (1 Bft) NO 56 0 min 0,000 mm 0,0 UV-I 0 W/m 0,6 C 0,9 C 4,8 km/h (1 Bft) 98,11 %
01.12.2018 19:06 0,9 C 3,3 C 0,6 C 98 % 1019,5 hPa 0,0 l/m 3,6 km/h (1 Bft) NO 56 0 min 0,000 mm 0,0 UV-I 0 W/m 0,6 C 0,9 C 4,8 km/h (1 Bft) 100,00 %
01.12.2018 19:08 0,8 C 3,3 C 0,6 C 98 % 1019,5 hPa 0,0 l/m 3,4 km/h (1 Bft) NO 56 0 min 0,000 mm 0,0 UV-I 0 W/m 0,5 C 0,8 C 4,8 km/h (1 Bft) 100,00 %
01.12.2018 19:10 0,8 C 3,3 C 0,6 C 98 % 1019,5 hPa 0,0 l/m 4,6 km/h (1 Bft) O-NO 59 0 min 0,000 mm 0,0 UV-I 0 W/m 0,5 C 0,8 C 6,4 km/h (2 Bft) 98,00 %
01.12.2018 19:12 0,8 C 3,3 C 0,6 C 98 % 1019,5 hPa 0,0 l/m 3,0 km/h (1 Bft) O-NO 63 0 min 0,000 mm 0,0 UV-I 0 W/m 0,5 C 0,8 C 4,8 km/h (1 Bft) 97,87 %
01.12.2018 19:14 0,8 C 3,3 C 0,6 C 98 % 1019,5 hPa 0,0 l/m 3,2 km/h (1 Bft) O-NO 66 0 min 0,000 mm 0,0 UV-I 0 W/m 0,5 C 0,8 C 4,8 km/h (1 Bft) 97,87 %
01.12.2018 19:16 0,9 C 3,3 C 0,6 C 98 % 1019,5 hPa 0,0 l/m 3,2 km/h (1 Bft) O-NO 66 0 min 0,000 mm 0,0 UV-I 0 W/m 0,6 C 0,9 C 4,8 km/h (1 Bft) 94,29 %
01.12.2018 19:18 0,9 C 3,3 C 0,6 C 98 % 1019,5 hPa 0,0 l/m 2,5 km/h (1 Bft) O-NO 68 0 min 0,000 mm 0,0 UV-I 0 W/m 0,6 C 0,9 C 3,2 km/h (1 Bft) 96,23 %
01.12.2018 19:20 0,8 C 3,3 C 0,6 C 98 % 1019,6 hPa 0,0 l/m 1,9 km/h (1 Bft) O-NO 68 0 min 0,000 mm 0,0 UV-I 0 W/m 0,5 C 0,8 C 3,2 km/h (1 Bft) 96,00 %
01.12.2018 19:22 0,8 C 3,3 C 0,6 C 98 % 1019,6 hPa 0,0 l/m 1,6 km/h (1 Bft) O-NO 67 0 min 0,000 mm 0,0 UV-I 0 W/m 0,5 C 0,8 C 3,2 km/h (1 Bft) 97,37 %
01.12.2018 19:24 0,8 C 3,3 C 0,6 C 98 % 1019,6 hPa 0,0 l/m 1,0 km/h (0 Bft) O-NO 67 0 min 0,000 mm 0,0 UV-I 0 W/m 0,5 C 0,8 C 1,6 km/h (1 Bft) 93,62 %
01.12.2018 19:26 0,8 C 3,3 C 0,6 C 98 % 1019,6 hPa 0,0 l/m 0,4 km/h (0 Bft) O-NO 67 0 min 0,000 mm 0,0 UV-I 0 W/m 0,5 C 0,8 C 1,6 km/h (1 Bft) 93,62 %
01.12.2018 19:28 0,8 C 3,3 C 0,6 C 98 % 1019,6 hPa 0,0 l/m 0,8 km/h (0 Bft) O-NO 67 0 min 0,000 mm 0,0 UV-I 0 W/m 0,5 C 0,8 C 1,6 km/h (1 Bft) 92,45 %
01.12.2018 19:30 0,8 C 3,3 C 0,6 C 98 % 1019,6 hPa 0,0 l/m 0,4 km/h (0 Bft) O-NO 67 0 min 0,000 mm 0,0 UV-I 0 W/m 0,5 C 0,8 C 1,6 km/h (1 Bft) 98,00 %
01.12.2018 19:32 0,8 C 3,3 C 0,6 C 98 % 1019,6 hPa 0,0 l/m 0,9 km/h (0 Bft) O-NO 67 0 min 0,000 mm 0,0 UV-I 0 W/m 0,5 C 0,8 C 1,6 km/h (1 Bft) 97,87 %
01.12.2018 19:34 0,8 C 3,3 C 0,6 C 98 % 1019,5 hPa 0,0 l/m 1,4 km/h (1 Bft) O-NO 67 0 min 0,000 mm 0,0 UV-I 0 W/m 0,5 C 0,8 C 1,6 km/h (1 Bft) 97,44 %
01.12.2018 19:36 0,7 C 3,3 C 0,6 C 98 % 1019,6 hPa 0,0 l/m 1,1 km/h (1 Bft) O-NO 67 0 min 0,000 mm 0,0 UV-I 0 W/m 0,4 C 0,7 C 1,6 km/h (1 Bft) 98,00 %
01.12.2018 19:38 0,7 C 3,3 C 0,6 C 98 % 1019,6 hPa 0,0 l/m 0,6 km/h (0 Bft) O-NO 67 0 min 0,000 mm 0,0 UV-I 0 W/m 0,4 C 0,7 C 1,6 km/h (1 Bft) 96,23 %
01.12.2018 19:40 0,8 C 3,3 C 0,6 C 98 % 1019,5 hPa 0,0 l/m 0,6 km/h (0 Bft) O-NO 67 0 min 0,000 mm 0,0 UV-I 0 W/m 0,5 C 0,8 C 1,6 km/h (1 Bft) 95,74 %
01.12.2018 19:42 0,8 C 3,3 C 0,6 C 98 % 1019,5 hPa 0,0 l/m 0,6 km/h (0 Bft) O-NO 67 0 min 0,000 mm 0,0 UV-I 0 W/m 0,5 C 0,8 C 1,6 km/h (1 Bft) 97,37 %
01.12.2018 19:44 0,8 C 3,3 C 0,6 C 98 % 1019,5 hPa 0,0 l/m 1,2 km/h (1 Bft) O-NO 67 0 min 0,000 mm 0,0 UV-I 0 W/m 0,5 C 0,8 C 3,2 km/h (1 Bft) 98,11 %
01.12.2018 19:46 0,7 C 3,3 C 0,6 C 98 % 1019,5 hPa 0,0 l/m 1,8 km/h (1 Bft) O-NO 67 0 min 0,000 mm 0,0 UV-I 0 W/m 0,4 C 0,7 C 3,2 km/h (1 Bft) 95,74 %
01.12.2018 19:49 0,7 C 3,3 C 0,6 C 98 % 1019,5 hPa 0,0 l/m 1,7 km/h (1 Bft) O-NO 67 0 min 0,000 mm 0,0 UV-I 0 W/m 0,4 C 0,7 C 3,2 km/h (1 Bft) 97,26 %
01.12.2018 19:50 0,7 C 3,3 C 0,6 C 98 % 1019,5 hPa 0,0 l/m 1,9 km/h (1 Bft) O-NO 67 0 min 0,000 mm 0,0 UV-I 0 W/m 0,4 C 0,7 C 3,2 km/h (1 Bft) 91,67 %
01.12.2018 19:52 0,7 C 3,3 C 0,6 C 98 % 1019,5 hPa 0,0 l/m 1,7 km/h (1 Bft) O-NO 67 0 min 0,000 mm 0,0 UV-I 0 W/m 0,4 C 0,7 C 3,2 km/h (1 Bft) 98,00 %
01.12.2018 19:54 0,7 C 3,3 C 0,6 C 98 % 1019,4 hPa 0,0 l/m 1,9 km/h (1 Bft) O-NO 67 0 min 0,000 mm 0,0 UV-I 0 W/m 0,4 C 0,7 C 3,2 km/h (1 Bft) 98,00 %
01.12.2018 19:56 0,7 C 3,3 C 0,6 C 98 % 1019,4 hPa 0,0 l/m 1,8 km/h (1 Bft) O-NO 67 0 min 0,000 mm 0,0 UV-I 0 W/m 0,4 C 0,7 C 3,2 km/h (1 Bft) 98,00 %
01.12.2018 19:59 0,7 C 3,3 C 0,6 C 98 % 1019,4 hPa 0,0 l/m 2,0 km/h (1 Bft) O-NO 67 0 min 0,000 mm 0,0 UV-I 0 W/m 0,4 C 0,7 C 3,2 km/h (1 Bft) 100,00 %
01.12.2018 20:00 0,7 C 3,3 C 0,6 C 98 % 1019,4 hPa 0,0 l/m 2,5 km/h (1 Bft) O-NO 67 0 min 0,000 mm 0,0 UV-I 0 W/m 0,4 C 0,7 C 3,2 km/h (1 Bft) 100,00 %
01.12.2018 20:02 0,7 C 3,3 C 0,6 C 98 % 1019,3 hPa 0,0 l/m 2,9 km/h (1 Bft) O-NO 67 0 min 0,000 mm 0,0 UV-I 0 W/m 0,4 C 0,7 C 3,2 km/h (1 Bft) 98,00 %
01.12.2018 20:04 0,7 C 3,3 C 0,6 C 98 % 1019,3 hPa 0,0 l/m 2,9 km/h (1 Bft) O-NO 67 0 min 0,000 mm 0,0 UV-I 0 W/m 0,4 C 0,7 C 3,2 km/h (1 Bft) 97,37 %
01.12.2018 20:06 0,7 C 3,3 C 0,6 C 98 % 1019,3 hPa 0,0 l/m 2,3 km/h (1 Bft) O-NO 67 0 min 0,000 mm 0,0 UV-I 0 W/m 0,4 C 0,7 C 3,2 km/h (1 Bft) 98,00 %
01.12.2018 20:08 0,6 C 3,3 C 0,6 C 98 % 1019,3 hPa 0,0 l/m 1,4 km/h (1 Bft) O-NO 67 0 min 0,000 mm 0,0 UV-I 0 W/m 0,3 C 0,6 C 3,2 km/h (1 Bft) 98,00 %
01.12.2018 20:10 0,6 C 3,3 C 0,6 C 98 % 1019,3 hPa 0,0 l/m 2,1 km/h (1 Bft) O-NO 67 0 min 0,000 mm 0,0 UV-I 0 W/m 0,3 C 0,6 C 3,2 km/h (1 Bft) 95,74 %
01.12.2018 20:12 0,6 C 3,3 C 0,6 C 98 % 1019,3 hPa 0,0 l/m 2,3 km/h (1 Bft) O-NO 67 0 min 0,000 mm 0,0 UV-I 0 W/m 0,3 C 0,6 C 3,2 km/h (1 Bft) 97,62 %
01.12.2018 20:14 0,5 C 3,3 C 0,6 C 98 % 1019,4 hPa 0,0 l/m 2,9 km/h (1 Bft) O-NO 67 0 min 0,000 mm 0,0 UV-I 0 W/m 0,2 C 0,5 C 3,2 km/h (1 Bft) 97,87 %
01.12.2018 20:16 0,5 C 3,3 C 0,6 C 98 % 1019,4 hPa 0,0 l/m 2,6 km/h (1 Bft) O-NO 67 0 min 0,000 mm 0,0 UV-I 0 W/m 0,2 C 0,5 C 3,2 km/h (1 Bft) 98,00 %
01.12.2018 20:18 0,4 C 3,3 C 0,6 C 98 % 1019,3 hPa 0,0 l/m 2,2 km/h (1 Bft) O-NO 67 0 min 0,000 mm 0,0 UV-I 0 W/m 0,1 C 0,4 C 3,2 km/h (1 Bft) 98,00 %
01.12.2018 20:20 0,4 C 3,3 C 0,6 C 98 % 1019,3 hPa 0,0 l/m 2,0 km/h (1 Bft) O-NO 67 0 min 0,000 mm 0,0 UV-I 0 W/m 0,1 C 0,4 C 3,2 km/h (1 Bft) 95,74 %
01.12.2018 20:22 0,4 C 3,3 C 0,6 C 98 % 1019,2 hPa 0,0 l/m 1,3 km/h (1 Bft) O-NO 67 0 min 0,000 mm 0,0 UV-I 0 W/m 0,1 C 0,4 C 3,2 km/h (1 Bft) 97,37 %
01.12.2018 20:24 0,4 C 3,3 C 0,6 C 98 % 1019,3 hPa 0,0 l/m 0,5 km/h (0 Bft) O-NO 67 0 min 0,000 mm 0,0 UV-I 0 W/m 0,1 C 0,4 C 1,6 km/h (1 Bft) 96,00 %
01.12.2018 20:26 0,4 C 3,3 C 0,6 C 98 % 1019,2 hPa 0,0 l/m 0,9 km/h (0 Bft) O-NO 67 0 min 0,000 mm 0,0 UV-I 0 W/m 0,1 C 0,4 C 1,6 km/h (1 Bft) 95,74 %
01.12.2018 20:29 0,5 C 3,3 C 0,6 C 98 % 1019,2 hPa 0,0 l/m 1,3 km/h (1 Bft) O-NO 67 0 min 0,000 mm 0,0 UV-I 0 W/m 0,2 C 0,5 C 3,2 km/h (1 Bft) 94,74 %
01.12.2018 20:30 0,5 C 3,3 C 0,6 C 98 % 1019,2 hPa 0,0 l/m 1,6 km/h (1 Bft) O-NO 67 0 min 0,000 mm 0,0 UV-I 0 W/m 0,2 C 0,5 C 1,6 km/h (1 Bft) 95,83 %
01.12.2018 20:32 0,5 C 3,3 C 0,6 C 98 % 1019,2 hPa 0,0 l/m 1,2 km/h (1 Bft) O-NO 67 0 min 0,000 mm 0,0 UV-I 0 W/m 0,2 C 0,5 C 1,6 km/h (1 Bft) 97,37 %
01.12.2018 20:34 0,5 C 3,3 C 0,6 C 98 % 1019,2 hPa 0,0 l/m 1,1 km/h (1 Bft) O-NO 67 0 min 0,000 mm 0,0 UV-I 0 W/m 0,2 C 0,5 C 1,6 km/h (1 Bft) 92,86 %
01.12.2018 20:36 0,5 C 3,3 C 0,6 C 98 % 1019,2 hPa 0,0 l/m 1,1 km/h (1 Bft) O-NO 67 0 min 0,000 mm 0,0 UV-I 0 W/m 0,2 C 0,5 C 1,6 km/h (1 Bft) 95,74 %
01.12.2018 20:38 0,4 C 3,3 C 0,6 C 98 % 1019,1 hPa 0,0 l/m 1,3 km/h (1 Bft) O-NO 67 0 min 0,000 mm 0,0 UV-I 0 W/m 0,1 C 0,4 C 3,2 km/h (1 Bft) 94,74 %
01.12.2018 20:40 0,4 C 3,3 C 0,6 C 98 % 1019,1 hPa 0,0 l/m 1,4 km/h (1 Bft) O-NO 67 0 min 0,000 mm 0,0 UV-I 0 W/m 0,1 C 0,4 C 3,2 km/h (1 Bft) 94,00 %
01.12.2018 20:42 0,5 C 3,3 C 0,6 C 98 % 1019,1 hPa 0,0 l/m 0,5 km/h (0 Bft) O-NO 67 0 min 0,000 mm 0,0 UV-I 0 W/m 0,2 C 0,5 C 1,6 km/h (1 Bft) 96,00 %
01.12.2018 20:44 0,5 C 3,3 C 0,6 C 98 % 1019,0 hPa 0,0 l/m 0,5 km/h (0 Bft) O-NO 67 0 min 0,000 mm 0,0 UV-I 0 W/m 0,2 C 0,5 C 1,6 km/h (1 Bft) 92,11 %
01.12.2018 20:46 0,5 C 3,3 C 0,6 C 98 % 1019,0 hPa 0,0 l/m 1,9 km/h (1 Bft) O-NO 67 0 min 0,000 mm 0,0 UV-I 0 W/m 0,2 C 0,5 C 3,2 km/h (1 Bft) 96,00 %
01.12.2018 20:49 0,6 C 3,3 C 0,6 C 98 % 1018,9 hPa 0,0 l/m 2,5 km/h (1 Bft) O-NO 76 0 min 0,000 mm 0,0 UV-I 0 W/m 0,3 C 0,6 C 4,8 km/h (1 Bft) 97,30 %
01.12.2018 20:50 0,5 C 3,3 C 0,6 C 98 % 1018,9 hPa 0,0 l/m 3,2 km/h (1 Bft) O 97 0 min 0,000 mm 0,0 UV-I 0 W/m 0,2 C 0,5 C 3,2 km/h (1 Bft) 100,00 %
01.12.2018 20:52 0,5 C 3,3 C 0,6 C 98 % 1018,9 hPa 0,0 l/m 2,1 km/h (1 Bft) O 96 0 min 0,000 mm 0,0 UV-I 0 W/m 0,2 C 0,5 C 3,2 km/h (1 Bft) 95,74 %
01.12.2018 20:54 0,5 C 3,3 C 0,6 C 98 % 1018,9 hPa 0,0 l/m 1,3 km/h (1 Bft) O 96 0 min 0,000 mm 0,0 UV-I 0 W/m 0,2 C 0,5 C 3,2 km/h (1 Bft) 97,37 %
01.12.2018 20:56 0,6 C 3,3 C 0,6 C 98 % 1018,9 hPa 0,0 l/m 1,4 km/h (1 Bft) O 96 0 min 0,000 mm 0,0 UV-I 0 W/m 0,3 C 0,6 C 3,2 km/h (1 Bft) 98,00 %
01.12.2018 20:58 0,6 C 3,3 C 0,6 C 98 % 1018,9 hPa 0,0 l/m 1,9 km/h (1 Bft) O 96 0 min 0,000 mm 0,0 UV-I 0 W/m 0,3 C 0,6 C 3,2 km/h (1 Bft) 96,00 %
01.12.2018 21:00 0,7 C 3,3 C 0,6 C 98 % 1018,9 hPa 0,0 l/m 2,3 km/h (1 Bft) O 95 0 min 0,000 mm 0,0 UV-I 0 W/m 0,4 C 0,7 C 4,8 km/h (1 Bft) 96,00 %
01.12.2018 21:02 0,7 C 3,3 C 0,6 C 98 % 1018,9 hPa 0,0 l/m 3,3 km/h (1 Bft) O 97 0 min 0,000 mm 0,0 UV-I 0 W/m 0,4 C 0,7 C 4,8 km/h (1 Bft) 97,56 %
01.12.2018 21:04 0,7 C 3,3 C 0,6 C 98 % 1018,9 hPa 0,0 l/m 2,3 km/h (1 Bft) O-SO 108 0 min 0,000 mm 0,0 UV-I 0 W/m 0,4 C 0,7 C 4,8 km/h (1 Bft) 97,87 %
01.12.2018 21:06 0,7 C 3,3 C 0,6 C 98 % 1018,9 hPa 0,0 l/m 3,5 km/h (1 Bft) SO 130 0 min 0,000 mm 0,0 UV-I 0 W/m 0,4 C 0,7 C 6,4 km/h (2 Bft) 98,00 %
01.12.2018 21:09 0,7 C 3,3 C 0,6 C 98 % 1018,8 hPa 0,0 l/m 1,9 km/h (1 Bft) SO 130 0 min 0,000 mm 0,0 UV-I 0 W/m 0,4 C 0,7 C 3,2 km/h (1 Bft) 97,06 %
01.12.2018 21:10 0,7 C 3,3 C 0,6 C 98 % 1018,8 hPa 0,0 l/m 2,2 km/h (1 Bft) SO 130 0 min 0,000 mm 0,0 UV-I 0 W/m 0,4 C 0,7 C 3,2 km/h (1 Bft) 100,00 %
01.12.2018 21:12 0,7 C 3,3 C 0,6 C 98 % 1018,8 hPa 0,0 l/m 3,1 km/h (1 Bft) SO 130 0 min 0,000 mm 0,0 UV-I 0 W/m 0,4 C 0,7 C 4,8 km/h (1 Bft) 97,56 %
01.12.2018 21:14 0,7 C 3,3 C 0,6 C 98 % 1018,8 hPa 0,0 l/m 2,5 km/h (1 Bft) SO 130 0 min 0,000 mm 0,0 UV-I 0 W/m 0,4 C 0,7 C 4,8 km/h (1 Bft) 98,11 %
01.12.2018 21:16 0,7 C 3,3 C 0,6 C 98 % 1018,8 hPa 0,0 l/m 3,1 km/h (1 Bft) SO 129 0 min 0,000 mm 0,0 UV-I 0 W/m 0,4 C 0,7 C 4,8 km/h (1 Bft) 97,87 %
01.12.2018 21:18 0,7 C 3,3 C 0,6 C 98 % 1018,8 hPa 0,0 l/m 1,2 km/h (1 Bft) SO 129 0 min 0,000 mm 0,0 UV-I 0 W/m 0,4 C 0,7 C 3,2 km/h (1 Bft) 95,74 %
01.12.2018 21:20 0,7 C 3,3 C 0,6 C 98 % 1018,8 hPa 0,0 l/m 0,3 km/h (0 Bft) SO 129 0 min 0,000 mm 0,0 UV-I 0 W/m 0,4 C 0,7 C 1,6 km/h (1 Bft) 97,87 %
01.12.2018 21:22 0,7 C 3,3 C 0,6 C 98 % 1018,9 hPa 0,0 l/m 1,0 km/h (0 Bft) SO 129 0 min 0,000 mm 0,0 UV-I 0 W/m 0,4 C 0,7 C 3,2 km/h (1 Bft) 98,00 %
01.12.2018 21:24 0,6 C 3,3 C 0,6 C 98 % 1018,9 hPa 0,0 l/m 1,1 km/h (1 Bft) SO 129 0 min 0,000 mm 0,0 UV-I 0 W/m 0,3 C 0,6 C 3,2 km/h (1 Bft) 95,74 %
01.12.2018 21:26 0,6 C 3,3 C 0,6 C 98 % 1018,8 hPa 0,0 l/m 1,0 km/h (0 Bft) SO 129 0 min 0,000 mm 0,0 UV-I 0 W/m 0,3 C 0,6 C 3,2 km/h (1 Bft) 95,74 %
01.12.2018 21:28 0,6 C 3,3 C 0,6 C 98 % 1018,7 hPa 0,0 l/m 1,8 km/h (1 Bft) SO 129 0 min 0,000 mm 0,0 UV-I 0 W/m 0,3 C 0,6 C 3,2 km/h (1 Bft) 97,73 %
01.12.2018 21:30 0,7 C 3,3 C 0,6 C 98 % 1018,7 hPa 0,0 l/m 2,1 km/h (1 Bft) SO 129 0 min 0,000 mm 0,0 UV-I 0 W/m 0,4 C 0,7 C 3,2 km/h (1 Bft) 97,87 %
01.12.2018 21:32 0,7 C 3,3 C 0,6 C 98 % 1018,7 hPa 0,0 l/m 1,2 km/h (1 Bft) SO 129 0 min 0,000 mm 0,0 UV-I 0 W/m 0,4 C 0,7 C 3,2 km/h (1 Bft) 97,92 %
01.12.2018 21:34 0,7 C 3,3 C 0,6 C 98 % 1018,6 hPa 0,0 l/m 1,8 km/h (1 Bft) SO 130 0 min 0,000 mm 0,0 UV-I 0 W/m 0,4 C 0,7 C 3,2 km/h (1 Bft) 95,74 %
01.12.2018 21:36 0,7 C 3,3 C 0,6 C 98 % 1018,6 hPa 0,0 l/m 0,9 km/h (0 Bft) SO 130 0 min 0,000 mm 0,0 UV-I 0 W/m 0,4 C 0,7 C 1,6 km/h (1 Bft) 97,37 %
01.12.2018 21:38 0,7 C 3,3 C 0,6 C 98 % 1018,6 hPa 0,0 l/m 1,5 km/h (1 Bft) SO 130 0 min 0,000 mm 0,0 UV-I 0 W/m 0,4 C 0,7 C 3,2 km/h (1 Bft) 97,87 %
01.12.2018 21:40 0,7 C 3,3 C 0,6 C 98 % 1018,6 hPa 0,0 l/m 1,3 km/h (1 Bft) SO 130 0 min 0,000 mm 0,0 UV-I 0 W/m 0,4 C 0,7 C 1,6 km/h (1 Bft) 97,87 %
01.12.2018 21:42 0,7 C 3,3 C 0,6 C 98 % 1018,6 hPa 0,0 l/m 2,3 km/h (1 Bft) SO 130 0 min 0,000 mm 0,0 UV-I 0 W/m 0,4 C 0,7 C 3,2 km/h (1 Bft) 92,86 %
01.12.2018 21:44 0,6 C 3,3 C 0,6 C 98 % 1018,5 hPa 0,0 l/m 2,3 km/h (1 Bft) SO 130 0 min 0,000 mm 0,0 UV-I 0 W/m 0,3 C 0,6 C 3,2 km/h (1 Bft) 97,87 %
01.12.2018 21:46 0,6 C 3,3 C 0,6 C 98 % 1018,5 hPa 0,0 l/m 3,0 km/h (1 Bft) SO 136 0 min 0,000 mm 0,0 UV-I 0 W/m 0,3 C 0,6 C 4,8 km/h (1 Bft) 97,73 %
01.12.2018 21:48 0,6 C 3,3 C 0,6 C 98 % 1018,5 hPa 0,0 l/m 3,8 km/h (1 Bft) SO 124 0 min 0,000 mm 0,0 UV-I 0 W/m 0,3 C 0,6 C 6,4 km/h (2 Bft) 94,00 %
01.12.2018 21:50 0,6 C 3,3 C 0,6 C 98 % 1018,4 hPa 0,0 l/m 2,9 km/h (1 Bft) SO 136 0 min 0,000 mm 0,0 UV-I 0 W/m 0,3 C 0,6 C 6,4 km/h (2 Bft) 95,74 %
01.12.2018 21:52 0,6 C 3,3 C 0,6 C 98 % 1018,4 hPa 0,0 l/m 4,5 km/h (1 Bft) SO 136 0 min 0,000 mm 0,0 UV-I 0 W/m 0,3 C 0,6 C 6,4 km/h (2 Bft) 94,74 %
01.12.2018 21:54 0,6 C 3,3 C 0,6 C 98 % 1018,4 hPa 0,0 l/m 3,3 km/h (1 Bft) SO 136 0 min 0,000 mm 0,0 UV-I 0 W/m 0,3 C 0,6 C 4,8 km/h (1 Bft) 96,43 %
01.12.2018 21:56 0,6 C 3,3 C 0,6 C 98 % 1018,3 hPa 0,0 l/m 4,7 km/h (1 Bft) SO 146 0 min 0,000 mm 0,0 UV-I 0 W/m 0,3 C 0,6 C 8,0 km/h (2 Bft) 94,29 %
01.12.2018 21:58 0,6 C 3,3 C 0,6 C 98 % 1018,2 hPa 0,0 l/m 4,8 km/h (1 Bft) SO 142 0 min 0,000 mm 0,0 UV-I 0 W/m 0,3 C 0,6 C 8,0 km/h (2 Bft) 96,23 %
01.12.2018 22:00 0,6 C 3,3 C 0,6 C 98 % 1018,3 hPa 0,0 l/m 4,0 km/h (1 Bft) S-SO 147 0 min 0,000 mm 0,0 UV-I 0 W/m 0,3 C 0,6 C 4,8 km/h (1 Bft) 94,87 %
01.12.2018 22:02 0,6 C 3,3 C 0,6 C 98 % 1018,3 hPa 0,0 l/m 4,3 km/h (1 Bft) SO 140 0 min 0,000 mm 0,0 UV-I 0 W/m 0,3 C 0,6 C 6,4 km/h (2 Bft) 94,83 %
01.12.2018 22:04 0,6 C 3,3 C 0,6 C 98 % 1018,2 hPa 0,0 l/m 4,0 km/h (1 Bft) S-SO 155 0 min 0,000 mm 0,0 UV-I 0 W/m 0,3 C 0,6 C 6,4 km/h (2 Bft) 100,00 %
01.12.2018 22:06 0,6 C 3,3 C 0,6 C 98 % 1018,3 hPa 0,0 l/m 4,1 km/h (1 Bft) SO 125 0 min 0,000 mm 0,0 UV-I 0 W/m 0,3 C 0,6 C 6,4 km/h (2 Bft) 98,08 %
01.12.2018 22:08 0,6 C 3,3 C 0,6 C 98 % 1018,3 hPa 0,0 l/m 3,5 km/h (1 Bft) SO 146 0 min 0,000 mm 0,0 UV-I 0 W/m 0,3 C 0,6 C 6,4 km/h (2 Bft) 100,00 %
01.12.2018 22:10 0,6 C 3,3 C 0,6 C 98 % 1018,2 hPa 0,0 l/m 3,3 km/h (1 Bft) S-SO 157 0 min 0,000 mm 0,0 UV-I 0 W/m 0,3 C 0,6 C 4,8 km/h (1 Bft) 100,00 %
01.12.2018 22:12 0,6 C 3,3 C 0,6 C 98 % 1018,2 hPa 0,0 l/m 2,6 km/h (1 Bft) SO 134 0 min 0,000 mm 0,0 UV-I 0 W/m 0,3 C 0,6 C 6,4 km/h (2 Bft) 97,87 %
01.12.2018 22:14 0,6 C 3,3 C 0,6 C 98 % 1018,2 hPa 0,0 l/m 2,6 km/h (1 Bft) SO 135 0 min 0,000 mm 0,0 UV-I 0 W/m 0,3 C 0,6 C 4,8 km/h (1 Bft) 100,00 %
01.12.2018 22:16 0,6 C 3,3 C 0,6 C 98 % 1018,2 hPa 0,0 l/m 3,6 km/h (1 Bft) S-SO 161 0 min 0,000 mm 0,0 UV-I 0 W/m 0,3 C 0,6 C 6,4 km/h (2 Bft) 100,00 %
01.12.2018 22:18 0,6 C 3,3 C 0,6 C 98 % 1018,2 hPa 0,0 l/m 2,8 km/h (1 Bft) S-SO 161 0 min 0,000 mm 0,0 UV-I 0 W/m 0,3 C 0,6 C 6,4 km/h (2 Bft) 100,00 %
01.12.2018 22:20 0,6 C 3,3 C 0,6 C 98 % 1018,1 hPa 0,0 l/m 3,2 km/h (1 Bft) S-SO 161 0 min 0,000 mm 0,0 UV-I 0 W/m 0,3 C 0,6 C 6,4 km/h (2 Bft) 100,00 %
01.12.2018 22:22 0,6 C 3,3 C 0,6 C 98 % 1018,1 hPa 0,0 l/m 1,8 km/h (1 Bft) S-SO 161 0 min 0,000 mm 0,0 UV-I 0 W/m 0,3 C 0,6 C 3,2 km/h (1 Bft) 98,00 %
01.12.2018 22:24 0,6 C 3,3 C 0,6 C 98 % 1018,1 hPa 0,0 l/m 1,8 km/h (1 Bft) S-SO 161 0 min 0,000 mm 0,0 UV-I 0 W/m 0,3 C 0,6 C 6,4 km/h (2 Bft) 98,00 %
01.12.2018 22:26 0,6 C 3,3 C 0,6 C 98 % 1018,1 hPa 0,0 l/m 2,4 km/h (1 Bft) S-SO 161 0 min 0,000 mm 0,0 UV-I 0 W/m 0,3 C 0,6 C 3,2 km/h (1 Bft) 100,00 %
01.12.2018 22:28 0,6 C 3,3 C 0,6 C 98 % 1018,0 hPa 0,0 l/m 1,0 km/h (0 Bft) S-SO 161 0 min 0,000 mm 0,0 UV-I 0 W/m 0,3 C 0,6 C 3,2 km/h (1 Bft) 100,00 %
01.12.2018 22:30 0,6 C 3,3 C 0,6 C 98 % 1018,0 hPa 0,0 l/m 0,9 km/h (0 Bft) S-SO 161 0 min 0,000 mm 0,0 UV-I 0 W/m 0,3 C 0,6 C 1,6 km/h (1 Bft) 100,00 %
01.12.2018 22:32 0,6 C 3,3 C 0,6 C 98 % 1018,1 hPa 0,0 l/m 0,9 km/h (0 Bft) S-SO 161 0 min 0,000 mm 0,0 UV-I 0 W/m 0,3 C 0,6 C 1,6 km/h (1 Bft) 100,00 %
01.12.2018 22:34 0,5 C 3,3 C 0,6 C 98 % 1018,0 hPa 0,0 l/m 0,3 km/h (0 Bft) S-SO 161 0 min 0,000 mm 0,0 UV-I 0 W/m 0,2 C 0,5 C 1,6 km/h (1 Bft) 100,00 %
01.12.2018 22:36 0,5 C 3,3 C 0,6 C 98 % 1018,0 hPa 0,0 l/m 0,0 km/h (0 Bft) S-SO 161 0 min 0,000 mm 0,0 UV-I 0 W/m 0,2 C 0,5 C 0,0 km/h (0 Bft) 97,87 %
01.12.2018 22:38 0,5 C 3,3 C 0,6 C 98 % 1018,0 hPa 0,0 l/m 0,0 km/h (0 Bft) S-SO 161 0 min 0,000 mm 0,0 UV-I 0 W/m 0,2 C 0,5 C 0,0 km/h (0 Bft) 100,00 %
01.12.2018 22:40 0,5 C 3,3 C 0,6 C 98 % 1018,0 hPa 0,0 l/m 0,0 km/h (0 Bft) S-SO 161 0 min 0,000 mm 0,0 UV-I 0 W/m 0,2 C 0,5 C 0,0 km/h (0 Bft) 98,08 %
01.12.2018 22:42 0,5 C 3,3 C 0,6 C 98 % 1018,1 hPa 0,0 l/m 0,0 km/h (0 Bft) S-SO 161 0 min 0,000 mm 0,0 UV-I 0 W/m 0,2 C 0,5 C 0,0 km/h (0 Bft) 91,67 %
01.12.2018 22:46 0,5 C 3,3 C 0,6 C 98 % 1018,2 hPa 0,0 l/m 1,4 km/h (1 Bft) S-SO 161 0 min 0,000 mm 0,0 UV-I 0 W/m 0,2 C 0,5 C 1,6 km/h (1 Bft) 99,25 %
01.12.2018 22:48 0,5 C 3,3 C 0,6 C 98 % 1018,2 hPa 0,0 l/m 1,7 km/h (1 Bft) S-SO 161 0 min 0,000 mm 0,0 UV-I 0 W/m 0,2 C 0,5 C 3,2 km/h (1 Bft) 100,00 %
01.12.2018 22:50 0,5 C 3,3 C 0,6 C 98 % 1018,2 hPa 0,0 l/m 1,3 km/h (1 Bft) S-SO 161 0 min 0,000 mm 0,0 UV-I 0 W/m 0,2 C 0,5 C 3,2 km/h (1 Bft) 100,00 %
01.12.2018 22:52 0,5 C 3,3 C 0,6 C 98 % 1018,2 hPa 0,0 l/m 1,4 km/h (1 Bft) S-SO 161 0 min 0,000 mm 0,0 UV-I 0 W/m 0,2 C 0,5 C 3,2 km/h (1 Bft) 100,00 %
01.12.2018 22:54 0,5 C 3,3 C 0,6 C 98 % 1018,2 hPa 0,0 l/m 0,8 km/h (0 Bft) S-SO 161 0 min 0,000 mm 0,0 UV-I 0 W/m 0,2 C 0,5 C 1,6 km/h (1 Bft) 97,37 %
01.12.2018 22:56 0,5 C 3,3 C 0,6 C 98 % 1018,2 hPa 0,0 l/m 0,3 km/h (0 Bft) S-SO 161 0 min 0,000 mm 0,0 UV-I 0 W/m 0,2 C 0,5 C 1,6 km/h (1 Bft) 100,00 %
01.12.2018 22:58 0,5 C 3,3 C 0,6 C 98 % 1018,2 hPa 0,0 l/m 1,6 km/h (1 Bft) S-SO 161 0 min 0,000 mm 0,0 UV-I 0 W/m 0,2 C 0,5 C 3,2 km/h (1 Bft) 98,11 %
01.12.2018 23:00 0,4 C 3,3 C 0,6 C 98 % 1018,2 hPa 0,0 l/m 1,1 km/h (1 Bft) S-SO 161 0 min 0,000 mm 0,0 UV-I 0 W/m 0,1 C 0,4 C 1,6 km/h (1 Bft) 97,14 %
01.12.2018 23:02 0,4 C 3,3 C 0,6 C 98 % 1018,1 hPa 0,0 l/m 0,8 km/h (0 Bft) S-SO 161 0 min 0,000 mm 0,0 UV-I 0 W/m 0,1 C 0,4 C 1,6 km/h (1 Bft) 96,43 %
01.12.2018 23:04 0,5 C 3,3 C 0,6 C 98 % 1018,1 hPa 0,0 l/m 1,7 km/h (1 Bft) S-SO 161 0 min 0,000 mm 0,0 UV-I 0 W/m 0,2 C 0,5 C 3,2 km/h (1 Bft) 97,87 %
01.12.2018 23:06 0,5 C 3,3 C 0,6 C 98 % 1018,1 hPa 0,0 l/m 1,6 km/h (1 Bft) S-SO 161 0 min 0,000 mm 0,0 UV-I 0 W/m 0,2 C 0,5 C 3,2 km/h (1 Bft) 98,00 %
01.12.2018 23:08 0,5 C 3,3 C 0,6 C 98 % 1018,1 hPa 0,0 l/m 0,5 km/h (0 Bft) S-SO 161 0 min 0,000 mm 0,0 UV-I 0 W/m 0,2 C 0,5 C 1,6 km/h (1 Bft) 95,74 %
01.12.2018 23:10 0,4 C 3,3 C 0,6 C 98 % 1018,1 hPa 0,0 l/m 1,4 km/h (1 Bft) S-SO 161 0 min 0,000 mm 0,0 UV-I 0 W/m 0,1 C 0,4 C 3,2 km/h (1 Bft) 97,37 %
01.12.2018 23:12 0,4 C 3,3 C 0,6 C 98 % 1018,1 hPa 0,0 l/m 1,9 km/h (1 Bft) S-SO 161 0 min 0,000 mm 0,0 UV-I 0 W/m 0,1 C 0,4 C 3,2 km/h (1 Bft) 98,00 %
01.12.2018 23:14 0,4 C 3,3 C 0,6 C 98 % 1018,0 hPa 0,0 l/m 0,9 km/h (0 Bft) S-SO 161 0 min 0,000 mm 0,0 UV-I 0 W/m 0,1 C 0,4 C 3,2 km/h (1 Bft) 97,87 %
01.12.2018 23:16 0,5 C 3,3 C 0,6 C 98 % 1018,0 hPa 0,0 l/m 1,5 km/h (1 Bft) S-SO 161 0 min 0,000 mm 0,0 UV-I 0 W/m 0,2 C 0,5 C 3,2 km/h (1 Bft) 98,00 %
01.12.2018 23:18 0,4 C 3,3 C 0,6 C 98 % 1018,0 hPa 0,0 l/m 1,9 km/h (1 Bft) S-SO 161 0 min 0,000 mm 0,0 UV-I 0 W/m 0,1 C 0,4 C 3,2 km/h (1 Bft) 98,00 %
01.12.2018 23:20 0,4 C 3,3 C 0,6 C 98 % 1018,0 hPa 0,0 l/m 2,6 km/h (1 Bft) S-SO 160 0 min 0,000 mm 0,0 UV-I 0 W/m 0,1 C 0,4 C 6,4 km/h (2 Bft) 97,87 %
01.12.2018 23:22 0,4 C 3,3 C 0,6 C 98 % 1017,9 hPa 0,0 l/m 3,3 km/h (1 Bft) O 81 0 min 0,000 mm 0,0 UV-I 0 W/m 0,1 C 0,4 C 4,8 km/h (1 Bft) 97,44 %
01.12.2018 23:24 0,4 C 3,3 C 0,6 C 98 % 1017,9 hPa 0,0 l/m 3,5 km/h (1 Bft) O 82 0 min 0,000 mm 0,0 UV-I 0 W/m 0,1 C 0,4 C 4,8 km/h (1 Bft) 100,00 %
01.12.2018 23:26 0,4 C 3,3 C 0,6 C 98 % 1017,8 hPa 0,0 l/m 4,5 km/h (1 Bft) O 91 0 min 0,000 mm 0,0 UV-I 0 W/m 0,1 C 0,4 C 6,4 km/h (2 Bft) 100,00 %
01.12.2018 23:28 0,4 C 3,3 C 0,6 C 98 % 1017,8 hPa 0,0 l/m 4,5 km/h (1 Bft) O 90 0 min 0,000 mm 0,0 UV-I 0 W/m 0,1 C 0,4 C 6,4 km/h (2 Bft) 100,00 %
01.12.2018 23:30 0,3 C 3,3 C 0,6 C 98 % 1017,7 hPa 0,0 l/m 3,9 km/h (1 Bft) O 84 0 min 0,000 mm 0,0 UV-I 0 W/m 0,0 C 0,3 C 6,4 km/h (2 Bft) 100,00 %
01.12.2018 23:32 0,3 C 3,3 C 0,6 C 98 % 1017,7 hPa 0,0 l/m 4,0 km/h (1 Bft) O 80 0 min 0,000 mm 0,0 UV-I 0 W/m 0,0 C 0,3 C 4,8 km/h (1 Bft) 100,00 %
01.12.2018 23:34 0,3 C 3,3 C 0,6 C 98 % 1017,7 hPa 0,0 l/m 3,6 km/h (1 Bft) O-NO 71 0 min 0,000 mm 0,0 UV-I 0 W/m 0,0 C 0,3 C 6,4 km/h (2 Bft) 100,00 %
01.12.2018 23:36 0,3 C 3,3 C 0,6 C 98 % 1017,7 hPa 0,0 l/m 4,8 km/h (1 Bft) O-NO 76 0 min 0,000 mm 0,0 UV-I 0 W/m 0,0 C 0,3 C 6,4 km/h (2 Bft) 100,00 %
01.12.2018 23:38 0,3 C 3,3 C 0,6 C 98 % 1017,7 hPa 0,0 l/m 5,1 km/h (1 Bft) O-NO 78 0 min 0,000 mm 0,0 UV-I 0 W/m 0,0 C 0,3 C 6,4 km/h (2 Bft) 97,37 %
01.12.2018 23:40 0,3 C 3,3 C 0,6 C 98 % 1017,7 hPa 0,0 l/m 4,9 km/h (1 Bft) O-NO 74 0 min 0,000 mm 0,0 UV-I 0 W/m 0,0 C 0,3 C 6,4 km/h (2 Bft) 98,00 %
01.12.2018 23:42 0,3 C 3,3 C 0,6 C 98 % 1017,6 hPa 0,0 l/m 4,4 km/h (1 Bft) O 86 0 min 0,000 mm 0,0 UV-I 0 W/m 0,0 C 0,3 C 6,4 km/h (2 Bft) 94,64 %
01.12.2018 23:44 0,3 C 3,3 C 0,6 C 98 % 1017,6 hPa 0,0 l/m 4,3 km/h (1 Bft) O 79 0 min 0,000 mm 0,0 UV-I 0 W/m 0,0 C 0,3 C 4,8 km/h (1 Bft) 97,56 %
01.12.2018 23:46 0,2 C 3,3 C 0,6 C 98 % 1017,6 hPa 0,0 l/m 4,1 km/h (1 Bft) O 82 0 min 0,000 mm 0,0 UV-I 0 W/m -0,1 C 0,2 C 6,4 km/h (2 Bft) 97,87 %
01.12.2018 23:48 0,2 C 3,3 C 0,6 C 98 % 1017,5 hPa 0,0 l/m 5,4 km/h (1 Bft) O-NO 71 0 min 0,000 mm 0,0 UV-I 0 W/m -0,1 C 0,2 C 8,0 km/h (2 Bft) 98,11 %
01.12.2018 23:50 0,2 C 3,3 C 0,6 C 98 % 1017,5 hPa 0,0 l/m 5,2 km/h (1 Bft) O-NO 74 0 min 0,000 mm 0,0 UV-I 0 W/m -0,1 C 0,2 C 6,4 km/h (2 Bft) 97,37 %
01.12.2018 23:52 0,2 C 3,3 C 0,6 C 98 % 1017,5 hPa 0,0 l/m 4,3 km/h (1 Bft) O-NO 60 0 min 0,000 mm 0,0 UV-I 0 W/m -0,1 C 0,2 C 6,4 km/h (2 Bft) 95,74 %
01.12.2018 23:54 0,2 C 3,3 C 0,6 C 98 % 1017,6 hPa 0,0 l/m 4,5 km/h (1 Bft) O-NO 78 0 min 0,000 mm 0,0 UV-I 0 W/m -0,1 C 0,2 C 6,4 km/h (2 Bft) 97,73 %
01.12.2018 23:56 0,2 C 3,3 C 0,6 C 98 % 1017,6 hPa 0,0 l/m 5,1 km/h (1 Bft) O-NO 76 0 min 0,000 mm 0,0 UV-I 0 W/m -0,1 C 0,2 C 6,4 km/h (2 Bft) 97,87 %
01.12.2018 23:58 0,2 C 3,3 C 0,6 C 98 % 1017,6 hPa 0,0 l/m 4,3 km/h (1 Bft) O 82 0 min 0,000 mm 0,0 UV-I 0 W/m -0,1 C 0,2 C 6,4 km/h (2 Bft) 94,64 %
_ Min-Zeit 00:02 00:00 00:22 00:00 23:48 - 03:51 - - - - - - 00:02 17:48 03:51 15:30
Minimum _ -1,2 C 3,3 C -0,6 C 96 % 1017,5 hPa - 0,0 km/h (0 Bft) - - - - - - -1,8 C -2,0 C 0,0 km/h (0 Bft) 89,36 %
_ Max-Zeit 13:34 00:00 13:38 09:48 10:18 00:04 17:48 - - 13:32 12:00 00:00 13:32 16:52 13:34 16:04 00:20
Maximum _ 1,4 C 3,3 C 2,2 C 98 % 1020,9 hPa 0,2 l/m 10,0 km/h
O (2 Bft)
- - 2 min 0,026 mm 0,0 UV-I 161 W/m 1,1 C 1,4 C 12,9 km/h
SO (3 Bft)
100,00 %
Durchschnitt _ 0,3 C 3,3 C 0,4 C 97 % 1019,4 hPa #4,0 l/m 2,1 km/h (1 Bft) O-NO - #8 min. #0,127 mm 0,0 UV-I 52 W/m -0,1 C 0,2 C 3,4 km/h (1 Bft) 97,44 %